     2.10           OBSERVATION DATA    G (GPS)             RINEX VERSION / TYPE
teqc 2003Nov3 GPS Data Processor 20031211 22:26:38UTC       PGM / RUN BY / DATE
Solaris 2.7|Ultra 2|cc SC5.0|=+-|*Sparc                     COMMENT
2 OBSERVATION DATA                                          COMMENT
ASHTORIN USGS 17 - SEP - 92 16:33                           COMMENT
                                                            COMMENT
alta Altamont_NGS                                           MARKER NAME
                                                            MARKER NUMBER
RCM USGS                                                    OBSERVER / AGENCY
0831 ASHTECH L-XII 7A24                                     REC # / TYPE / VERS
1027 ASH700228A NONE                                        ANT # / TYPE
 -2490032.0000 -4024273.0000  4263656.0000                  APPROX POSITION XYZ
        1.2261        0.0000        0.0000                  ANTENNA: DELTA H/E/N
HI is vertical height to base of antenna                    COMMENT
     1     1                                                WAVELENGTH FACT L1/2
     3    L1    L2    C1                                    # / TYPES OF OBSERV
    30.0000                                                 INTERVAL
                                                            COMMENT
Receiver type modified to reflect codeless receiver         COMMENT
Original receiver designation: ASHTECH LM-XII3              COMMENT
                                                            COMMENT
                                                            COMMENT
  1992     9     3    18    57   30.0000000     GPS         TIME OF FIRST OBS
                                                            END OF HEADER
 92  9  3 18 57 30.0000000  0  1G25
  -1720244.55416    -41457.56531  23824753.799
 92  9  3 18 59  0.0000000  0  1G25
     15489.23916     -5066.48431  23814194.211
 92  9  3 18 59 30.0000000  0  2G25G 3
      -166.265 6    -17261.69121  23811215.401
   7882408.93016    -78451.03631  23035991.481
 92  9  3 19  0  0.0000000  0  2G25G 3
    -14627.641 6    -28530.42722  23808463.527
   7807782.649 6   -136600.24521  23021791.188
 92  9  3 19  0 30.0000000  0  3G25G12G 3
    -27887.431 6    -38862.70223  24105733.528
   6762692.07215    212114.20331  24889594.304
   7733898.927 6   -194165.70422  23307524.018
 92  9  3 19  1  0.0000000  0  3G25G12G 3
    -39926.578 6    -48243.89624  23803650.656
   6874302.179 5    299082.67922  24611041.220
   7660770.636 6   -251148.71524  22993817.462
 92  9  3 19  1 30.0000000  0  5G25G16G20G12G 3
    -50750.480 6    -56678.17024  24101383.038
   4881291.06517   -125350.47831  22065015.707
  13248496.89018    -43870.49231  20680180.540
   6986569.827 5    386563.68323  24932198.967
   7588401.316 6   -307540.33325  23279838.779
 92  9  3 19  2  0.0000000  0  5G25G16G20G12G 3
    -60378.756 6    -64180.71625  24099550.145
   4826867.629 7   -167757.91125  22054658.937
  13232603.600 8    -56252.79125  20677155.844
   7099484.852 5    474549.05324  24953685.213
   7516765.219 6   -363360.65425  23266206.472
 92  9  3 19  2 30.0000000  0  5G25G16G20G12G 3
    -68821.497 6    -70759.54925  24097942.943
   4773553.305 7   -209301.50025  22044513.640
  13217904.352 8    -67706.75626  20674358.600
   7213030.158 5    563025.54925  24975293.870
   7445854.771 6   -418615.47425  23252711.914
 92  9  3 19  3  0.0000000  0  5G25G16G20G12G 3
    -76097.054 6    -76428.87625  24096557.537
   4721332.409 7   -249993.05925  22034576.322
  13204381.871 8    -78243.75627  20671785.692
   7327184.469 5    651976.55325  24997015.635
   7375651.728 6   -473319.13125  23239352.434
 92  9  3 19  3 30.0000000  0  6G25G16G20G24G12G 3
    -82224.752 5    -81203.70525  24095392.307
   4670187.924 7   -289845.86525  22024844.415
  13192018.093 8    -87877.86928  20669432.901
   -517961.05317    160645.21431  22201718.280
   7441925.512 5    741384.78925  25018852.619
   7306137.253 6   -527486.20925  23226123.630
 92  9  3 19  4  0.0000000  0  7G25G16G17G20G24G12G 3
    -87226.830 6    -85101.42025  24094440.157
   4620100.154 7   -328875.27326  22015312.918
  -2189974.03415   -182522.16531  24779462.371
  13180792.246 8    -96625.29029  20667297.136
   -440986.557 7    220627.77121  22216364.959
   7557228.579 5    831230.94625  25040790.948
   7237289.314 6   -581133.91625  23213021.914
 92  9  3 19  4 30.0000000  0  6G25G17G20G24G12G 3
    -91113.745 5    -88130.16325  24093700.457
  -2293997.678 5   -263579.15021  24759671.056
  13170695.080 8   -104493.22029  20665375.679
   -363243.664 7    281215.64422  22231160.265
   7673080.154 5    921504.43625  25062836.587
   7169097.908 6   -634270.06125  23200046.731
 92  9  3 19  5  0.0000000  0  7G25G16G17G20G24G12G 3
    -93887.803 5    -90291.85825  24093173.130
    413738.95517    -34245.11535  21996849.250
  -2397352.044 5   -344114.90522  24740000.896
  13161725.458 8   -111482.52729  20663668.639
   -284736.453 7    342390.03625  22246097.979
   7789475.418 5   1012201.70125  25084986.776
   7101561.488 6   -686895.81225  23187194.357
 92  9  3 19  5 30.0000000  0  7G25G16G17G20G24G12G 3
    -95542.844 6    -91581.51525  24092859.093
    366805.027 7    -70816.95825  21987916.892
  -2500029.004 5   -424122.88222  24720460.284
  13153890.907 8   -117587.37229  20662177.921
   -205460.354 7    404163.60725  22261183.413
   7906417.622 5   1103325.09425  25107241.596
   7034686.411 6   -739006.18625  23174469.111
 92  9  3 19  6  0.0000000  0  7G25G16G17G20G24G12G 3
    -96091.239 5    -92008.87025  24092754.688
    320917.665 7   -106573.30125  21979185.305
  -2602039.017 5   -503611.04823  24701050.642
  13147180.430 8   -122816.32629  20660901.008
   -125429.270 7    466525.46725  22276412.470
   8023891.861 5   1194863.05825  25129597.721
   6968461.052 6   -790610.36225  23161866.672
 92  9  3 19  6 30.0000000  0  6G25G16G20G24G12G 3
    -95573.110 5    -91605.15025  24092852.756
    276039.579 7   -141543.19325  21970645.666
  13141554.703 8   -127200.00329  20659830.130
    -44685.024 7    529443.03126  22291778.707
   8141855.451 5   1286782.32425  25152045.911
   6902845.623 6   -841739.25025  23149380.615
 92  9  3 19  7  0.0000000  0  6G25G16G20G24G12G 3
    -94021.663 5    -90396.26125  24093147.811
    232139.913 7   -175750.69326  21962291.692
  13136982.087 8   -130763.09229  20658960.389
     36737.613 7    592889.23626  22307273.237
   8260272.401 5   1379054.89525  25174580.687
   6837807.326 6   -892418.39125  23137004.617
 92  9  3 19  7 30.0000000  0  6G25G16G20G24G12G 3
    -91468.362 6    -88406.75625  24093634.672
    189189.798 7   -209218.27126  21954117.133
  13133432.502 8   -133529.01429  20658284.856
    118806.318 7    656838.86226  22322889.475
   8379108.837 5   1471654.35825  25197197.043
   6773315.921 6   -942671.38425  23124732.243
 92  9  3 19  8  0.0000000  0  6G25G16G20G24G12G 3
    -87950.743 5    -85665.71925  24094302.230
    147154.082 7   -241973.34226  21946119.078
  13130869.292 8   -135526.32329  20657796.975
    201481.644 7    721261.16926  22338621.134
   8498324.633 5   1564549.37025  25219880.772
   6709333.914 6   -992527.49125  23112556.346
 92  9  3 19  8 30.0000000  0  6G25G16G20G24G12G 3
    -83501.085 5    -82198.54625  24095148.289
    106003.005 7   -274039.08826  21938289.377
  13129261.590 8   -136779.08329  20657491.275
    284729.767 7    786129.81726  22354463.805
   8617884.816 5   1657712.71825  25242632.504
   6645829.787 6  -1042011.18925  23100471.956
 92  9  3 19  9  0.0000000  0  7G25G16G17G20G24G12G 3
    -78157.677 5    -78034.88525  24096165.671
     65700.552 7   -305443.53226  21930619.609
    -93773.55215    -82062.01932  24586875.952
  13128572.638 8   -137315.94029  20657359.806
    368511.570 7    851414.31126  22370408.097
   8737748.822 5   1751112.85225  25265439.803
   6582765.903 6  -1091151.80825  23088470.898
 92  9  3 19  9 30.0000000  0  7G25G16G17G20G24G12G 3
    -71948.676 6    -73196.71025  24097348.720
     26221.022 7   -336206.77826  21923106.361
   -192053.576 5   -158643.70424  24568175.546
  13128775.179 8   -137158.12329  20657398.692
    452796.959 7    917091.23826  22386446.860
   8857885.997 5   1844725.83925  25288301.459
   6520115.111 6  -1139970.61125  23076548.869
 92  9  3 19 10  0.0000000  0  6G25G16G17G20G24G 3
    -64891.675 5    -67697.77625  24098692.361
    -12450.928 7   -366340.73426  21915746.643
   -289910.436 5   -234895.67425  24549555.318
  13129853.221 8   -136318.09829  20657603.459
    537567.417 7    983146.11526  22402576.872
   6457860.200 6  -1188480.89325  23064702.382
 92  9  3 19 10 30.0000000  0  6G25G16G17G20G24G 3
    -56993.651 5    -61543.48125  24100195.490
    -50319.757 7   -395848.85626  21908540.861
   -387349.173 5   -310821.86825  24531014.052
  13131801.069 8   -134800.29929  20657974.620
    622814.412 7   1049572.31126  22418799.718
   6395995.032 6  -1236687.47525  23052929.786
 92  9  3 19 11  0.0000000  0  6G25G16G17G20G24G 3
    -48271.586 5    -54747.05325  24101855.455
    -87399.656 7   -424742.26026  21901484.348
   -484384.881 5   -386434.00725  24512548.966
  13134603.063 8   -132616.94529  20658507.603
    708519.912 7   1116355.78726  22435108.996
   6334503.509 6  -1284602.90225  23041228.937
 92  9  3 19 11 30.0000000  0  6G25G16G17G20G24G 3
    -38734.397 5    -47315.55225  24103670.734
   -123697.698 7   -453026.40726  21894577.322
   -581024.708 5   -461737.65325  24494161.397
  13138251.059 8   -129774.36229  20659201.480
    794673.424 7   1183488.39226  22451502.626
   6273377.785 6  -1332233.32125  23029596.846
 92  9  3 19 12  0.0000000  0  6G25G16G17G20G24G 3
    -28395.975 5    -39259.65825  24105637.977
   -159224.947 7   -480709.92926  21887817.479
   -677280.434 5   -536742.00425  24475844.692
  13142732.547 8   -126282.29029  20660054.763
    881260.071 7   1250958.46026  22467981.366
   6212604.754 6  -1379588.89725  23018032.010
 92  9  3 19 12 30.0000000  0  6G25G16G17G20G24G 3
    -17265.386 5    -30586.43625  24107754.544
   -193988.122 7   -507798.08026  21881201.599
   -773159.160 5   -611452.54425  24457596.553
  13148039.994 8   -122146.62729  20661064.613
    968269.046 7   1318757.63026  22484537.355
   6152175.827 6  -1426676.31625  23006533.478
 92  9  3 19 13  0.0000000  0  6G25G16G17G20G24G 3
     -5353.052 5    -21304.16925  24110020.560
   -227994.835 7   -534296.79626  21874731.218
   -868668.603 5   -685875.41025  24439424.397
  13154164.542 8   -117374.26629  20662230.386
   1055689.269 7   1386877.26926  22501174.751
   6092081.761 6  -1473502.84125  22995097.048
 92  9  3 19 13 30.0000000  0  6G25G16G17G20G24G 3
      7319.657 5    -11429.34925  24112431.679
   -261264.486 7   -560221.17326  21868399.282
   -963828.688 5   -760025.99425  24421315.521
  13161085.877 8   -111981.02429  20663547.482
   1143498.336 7   1455299.89326  22517883.777
   6032302.395 6  -1520084.13525  22983720.480
 92  9  3 19 14  0.0000000  0  6G25G16G17G20G24G 3
     20734.660 6      -976.06325  24114984.211
   -293812.302 7   -585583.06626  21862206.079
  -1058655.552 5   -833916.97725  24403269.795
  13168786.998 8   -105980.16029  20665013.218
   1231677.086 7   1524010.59026  22534663.676
   5972820.126 7  -1566433.91325  22972402.025
 92  9  3 19 14 30.0000000  0  6G25G16G17G20G24G 3
     34884.247 5     10049.48925  24117677.196
   -325643.460 7   -610386.54126  21856148.553
  -1153154.512 5   -907552.41025  24385287.594
  13177261.726 8    -99376.47929  20666625.435
   1320216.637 7   1593002.41426  22551511.205
   5913628.539 6  -1612557.18325  22961138.535
 92  9  3 19 15  0.0000000  0  6G25G16G17G20G24G 3
     49758.588 5     21639.90125  24120507.774
   -356765.503 7   -634637.45326  21850226.556
  -1247333.054 5   -980938.15325  24367363.213
  13186501.488 8    -92176.67029  20668383.536
   1409106.307 7   1662267.07626  22568425.993
   5854718.818 7  -1658460.84025  22949928.028
 92  9  3 19 15 30.0000000  0  6G25G16G17G20G24G 3
     65339.199 5     33780.64125  24123472.301
   -387195.068 7   -658348.77826  21844436.152
  -1341207.385 5  -1054086.85025  24349500.750
  13196488.874 8    -84394.30329  20670283.919
   1498326.397 7   1731789.18926  22585403.482
   5796073.510 6  -1704158.43825  22938768.323
 92  9  3 19 16  0.0000000  0  6G25G16G17G20G24G 3
     81615.889 5     46463.68125  24126568.756
   -416939.010 7   -681525.86826  21838776.459
  -1434785.656 5  -1127004.94225  24331693.380
  13207215.475 8    -76035.91429  20672325.288
   1587865.735 7   1801560.10326  22602443.272
   5737683.667 6  -1749656.97025  22927656.917
 92  9  3 19 16 30.0000000  0  6G25G16G17G20G24G 3
     98587.405 5     59688.23925  24129798.549
   -445996.008 7   -704167.65026  21833247.158
  -1528067.521 5  -1199692.01725  24313941.524
  13218680.915 8    -67101.81729  20674506.957
   1677722.063 7   1871577.98626  22619541.561
   5679548.934 7  -1794956.74625  22916594.452
 92  9  3 19 17  0.0000000  0  6G25G16G17G20G24G 3
    116249.715 5     73451.10325  24133159.868
   -474368.291 7   -726275.89526  21827846.778
  -1621054.391 5  -1272149.15225  24296247.795
  13230882.500 8    -57594.08229  20676829.068
   1767890.516 7   1941839.11426  22636700.753
   5621666.224 7  -1840060.13625  22905579.606
 92  9  3 19 17 30.0000000  0  6G25G16G17G20G24G 3
    134592.489 5     87744.08025  24136651.695
   -502063.358 7   -747856.44826  21822576.453
  -1713754.059 5  -1344382.66225  24278607.143
  13243811.297 8    -47519.70429  20679289.479
   1858360.120 7   2012334.85226  22653916.989
   5564027.127 7  -1884973.66125  22894610.901
 92  9  3 19 18  0.0000000  0  6G25G16G17G20G24G 3
    153601.606 5    102556.36125  24140268.964
   -529092.993 7   -768918.48326  21817432.988
  -1806178.762 5  -1416401.82225  24261019.401
  13257454.580 8    -36888.58729  20681885.788
   1949115.902 7   2083053.63526  22671186.787
   5506617.980 7  -1929708.02425  22883686.552
 92  9  3 19 18 30.0000000  0  6G25G16G17G20G24G 3
    173266.180 5    117879.38225  24144011.038
   -555465.261 7   -789468.26626  21812414.649
  -1898337.198 5  -1488213.49225  24243481.115
  13271802.724 8    -25708.21729  20684616.179
   2040145.822 7   2153986.01026  22688509.957
   5449429.480 7  -1974270.48825  22872803.387
 92  9  3 19 19  0.0000000  0  6G25G16G17G20G24G 3
    193583.675 5    133711.12525  24147876.599
   -581179.991 7   -809505.70926  21807521.577
  -1990229.275 5  -1559817.57125  24225992.857
  13286854.343 8    -13979.69029  20687480.735
   2131446.623 7   2225129.48426  22705882.367
   5392460.499 7  -2018661.83725  22861962.902
 92  9  3 19 19 30.0000000  0  6G25G16G17G20G24G 3
    214547.933 6    150046.87825  24151865.767
   -606241.662 7   -829034.26426  21802751.899
  -2081859.184 5  -1631217.43025  24208557.344
  13302604.880 8     -1706.55929  20690477.711
   2223011.398 7   2296478.62726  22723307.525
   5335706.089 7  -2062886.03225  22851163.127
 92  9  3 19 20  0.0000000  0  6G25G16G17G20G24G 3
    236157.859 5    166885.82125  24155978.776
   -630648.700 7   -848052.71026  21798108.223
  -2173225.234 5  -1702411.66125  24191169.862
  13319054.397 8     11111.23229  20693608.193
   2314838.691 7   2368032.34026  22740781.415
   5279166.389 7  -2106942.90225  22840403.463
 92  9  3 19 20 30.0000000  0  6G25G16G17G20G24G 3
    258402.229 5    184218.95225  24160210.280
   -654409.452 7   -866567.56926  21793587.832
  -2264336.587 5  -1773407.41325  24173832.290
  13336192.691 8     24465.73729  20696869.146
   2406916.158 7   2439780.97826  22758302.935
   5222831.480 7  -2150840.21525  22829683.299
 92  9  3 19 21  0.0000000  0  6G25G16G17G20G24G 3
    281285.631 5    202050.21725  24164565.032
   -677516.762 7   -884573.23326  21789190.592
  -2355186.246 5  -1844199.27525  24156546.219
  13354025.751 8     38361.62529  20700262.686
   2499248.177 7   2511727.98326  22775873.273
   5166707.546 7  -2194573.10425  22819004.142
 92  9  3 19 21 30.0000000  0  6G25G16G17G20G24G 3
    304806.933 5    220378.43625  24169042.387
   -699969.419 7   -902068.79126  21784916.234
  -2445772.760 5  -1914786.06325  24139306.372
  13372553.832 8     52799.06829  20703787.904
   2591832.615 7   2583871.66426  22793490.043
   5110794.611 7  -2238141.58625  22808364.200
 92  9  3 19 22  0.0000000  0  6G25G16G17G20G24G 3
    328956.509 5    239196.21525  24173637.831
   -721774.977 7   -919060.10526  21780766.668
  -2536103.355 5  -1985173.47125  24122119.267
  13391768.543 8     67771.55729  20707444.934
   2684659.086 7   2656203.95926  22811155.573
   5055084.539 7  -2281551.99725  22797763.487
 92  9  3 19 22 30.0000000  0  6G25G16G17G20G24G 3
    353724.637 5    258496.08125  24178350.194
   -742939.498 7   -935551.93426  21776739.467
  -2626185.702 5  -2055367.43325  24104975.350
  13411661.490 8     83272.54229  20711231.162
   2777717.614 7   2728717.08126  22828864.546
   4999569.361 7  -2324810.58025  22787198.740
 92  9  3 19 23  0.0000000  0  6G25G16G17G20G24G 3
    379105.062 5    278272.97325  24183179.238
   -763467.257 7   -951547.56527  21772833.278
  -2716023.524 6  -2125370.81425  24087880.587
  13432227.639 8     99298.09429  20715145.057
   2871001.408 7   2801405.70026  22846615.714
   4944243.902 7  -2367921.27725  22776670.950
 92  9  3 19 23 30.0010000  0  6G25G16G17G20G24G 3
    405091.423 5    298522.04725  24188124.295
     -6557.84917     -6142.07631  21769045.482
  -2805624.501 5  -2195189.66925  24070829.854
  13453461.854 8    115844.22729  20719185.817
   2964505.933 7   2874266.34026  22864409.990
   4889100.894 7  -2410889.82125  22766177.027
 92  9  3 19 24  0.0010000  0  6G25G16G17G20G24G 3
    431681.121 5    319241.29825  24193184.337
    -25819.565 7    -21149.14121  21765380.982
  -2894980.810 6  -2264817.83325  24053827.252
  13475363.174 8    132910.15629  20723353.351
   3058223.550 7   2947293.03126  22882243.451
   4834144.643 7  -2453712.87125  22755718.853
 92  9  3 19 24 30.0010000  0  6G25G16G17G20G24G 3
    458881.800 5    340436.56125  24198361.198
    -44438.439 7    -35662.53821  21761838.106
  -2984086.636 6  -2334250.84225  24036869.593
  13497940.424 8    150502.80229  20727649.360
   3152163.551 7   3020493.01126  22900117.745
   4779381.760 7  -2496385.20525  22745298.298
 92  9  3 19 25  0.0010000  0  6G25G16G17G20G24G 3
    486692.287 6    362107.03225  24203655.322
    -62413.539 7    -49671.35921  21758418.410
  -3072940.279 5  -2403487.40025  24019961.689
  13521193.607 8    168622.15529  20732074.084
   3246324.032 6   3093864.77225  22918036.598
   4724812.584 7  -2538906.61125  22734913.917
 92  9  3 19 25 30.0010000  0  6G25G16G17G20G24G 3
    515106.856 5    384248.27325  24209061.536
    -79747.953 7    -63178.05625  21755120.462
  -3161544.661 5  -2472529.65625  24003101.314
  13545118.164 8    187264.64529  20736626.741
   3340699.312 6   3167403.93125  22935995.434
   4670433.001 7  -2581280.28925  22724565.802
 92  9  3 19 26  0.0010000  0  6G25G16G17G20G24G 3
    544130.637 6    406864.12225  24214585.232
    -96433.653 7    -76179.87425  21751945.532
  -3249892.649 6  -2541372.16225  23986287.994
  13569720.830 8    206435.54229  20741308.639
   3435293.995 7   3241114.04725  22953997.738
   4616249.769 7  -2623500.96125  22714254.829
 92  9  3 19 26 30.0010000  0  6G25G16G17G20G24G 3
    573755.607 5    429948.46625  24220220.295
   -112475.969 7    -88680.37026  21748891.778
  -3337989.412 5  -2610018.89225  23969524.258
  13594994.817 8    226129.53629  20746118.001
   3530099.592 7   3314988.51325  22972037.279
   4562256.986 7  -2665573.24325  22703980.541
 92  9  3 19 27  0.0010000  0  6G25G16G17G20G24G 3
    603981.664 5    453501.26525  24225970.881
   -127872.390 7   -100677.55326  21745960.916
  -3425832.456 5  -2678467.89925  23952806.400
  13620941.178 8    246347.46729  20751055.643
   3625116.133 7   3389027.34925  22990118.847
   4508456.099 7  -2707495.95525  22693742.899
 92  9  3 19 27 30.0010000  0  6G25G16G17G20G24G 3
    634805.179 5    477519.55925  24231836.220
   -142624.685 7   -112172.82426  21743154.016
  -3513422.800 5  -2746720.01525  23936138.307
  13647557.609 8    267087.52129  20756120.187
   3720339.359 6   3463227.22325  23008239.252
   4454844.979 7  -2749270.86725  22683540.541
 92  9  3 19 28  0.0010000  0  6G25G16G17G20G24G 3
    666217.828 6    501996.86425  24237814.629
   -156738.322 7   -123170.45226  21740468.457
  -3600766.081 5  -2814779.64025  23919518.379
  13674836.913 8    288344.10429  20761311.093
   3815761.094 7   3537581.81825  23026398.155
   4401417.231 7  -2790902.81225  22673373.751
 92  9  3 19 28 30.0010000  0  6G25G16G17G20G24G 3
    698212.748 5    526927.96625  24243902.570
   -170217.918 7   -133674.01726  21737902.673
  -3687866.523 5  -2882649.98525  23902943.508
  13702773.599 8    310112.92829  20766627.223
   3911373.963 6   3612085.30525  23044591.449
   4348167.980 7  -2832395.71225  22663239.667
 92  9  3 19 29  0.0010000  0  6G25G16G17G20G24G 3
    730786.209 5    552309.78825  24250105.379
   -183065.241 7   -143684.91427  21735457.936
  -3774725.242 5  -2950332.03025  23886415.608
  13731365.114 8    332392.02029  20772068.315
   4007174.084 7   3686734.72325  23062821.250
   4295095.248 7  -2873751.07025  22653141.206
 92  9  3 19 29 30.0010000  0  6G25G16G17G20G24G 3
    763937.762 5    578142.15625  24256414.910
   -195277.062 8   -153200.59627  21733135.472
  -3861339.558 5  -3017823.59525  23869932.039
  13760612.682 8    355182.32529  20777634.243
   4103160.976 6   3761529.67725  23081087.793
   4242200.495 7  -2914967.71425  22643075.078
 92  9  3 19 30  0.0010000  0  6G25G16G17G20G24G 3
    797668.966 5    604426.20825  24262833.789
   -206850.069 7   -162218.52227  21730933.680
  -3947706.054 5  -3085122.01825  23853497.990
  13790518.666 8    378485.67129  20783325.133
   4199335.844 7   3836471.12325  23099390.485
   4189487.049 7  -2956043.11525  22633044.232
 92  9  3 19 30 30.0010000  0  6G25G16G17G20G24G 3
    831982.590 5    631163.97825  24269362.996
   -217778.989 7   -170734.54627  21728853.600
  -4033819.115 6  -3152223.00425  23837111.289
  13821087.157 8    402305.25129  20789142.515
   4295701.464 6   3911561.16925  23117728.301
   4136959.502 7  -2996973.63825  22623048.717
 92  9  3 19 31  0.0010000  0  6G25G16G17G20G24G 3
    866889.678 5    658364.29625  24276005.480
   -228049.862 7   -178737.79927  21726898.453
  -4119664.478 6  -3219115.38525  23820775.959
  13852330.607 8    426650.78729  20795087.351
   4392269.132 6   3986808.67225  23136105.330
   4084631.215 7  -3037748.92725  22613090.622
 92  9  3 19 31 30.0010000  0  6G25G16G17G20G24G 3
    902389.440 6    686026.48825  24282759.620
   -237660.739 8   -186226.78927  21725070.237
  -4205240.177 6  -3285797.63225  23804490.623
  13884249.408 8    451522.56929  20801161.267
   4489037.814 6   4062212.82025  23154518.343
   4032503.187 7  -3078368.11925  22603170.839
 92  9  3 19 32  0.0010000  0  6G25G16G17G20G24G 3
    938483.277 5    714151.41925  24289628.445
   -246608.348 7   -193198.94827  21723367.287
  -4290542.237 6  -3352266.67625  23788257.930
  13916846.453 8    476922.83729  20807364.152
   4586008.859 6   4137774.63025  23172970.773
   3980578.993 7  -3118828.49825  22593290.171
 92  9  3 19 32 30.0010000  0  6G25G16G17G20G24G 3
    975168.453 5    742737.20225  24296610.871
   -254892.582 7   -199654.17427  21721790.258
  -4375570.612 6  -3418522.41625  23772076.879
  13950119.661 8    502850.00729  20813695.656
   4683179.719 6   4213492.15125  23191462.994
   3928857.644 7  -3159130.83125  22583448.286
 92  9  3 19 33  0.0010000  0  6G25G16G17G20G24G 3
   1012435.400 6    771776.36725  24303702.415
   -262520.636 7   -205598.09227  21720338.852
  -4460332.128 6  -3484570.22725  23755946.930
  13984061.015 8    529297.79929  20820154.608
   4780540.486 6   4289357.69025  23209990.037
   3877331.768 7  -3199280.85925  22573643.155
 92  9  3 19 33 30.0010000  0  6G25G16G17G20G24G 3
   1050277.423 6    801263.59325  24310903.489
   -269496.904 7   -211034.15127  21719011.154
  -4544830.475 6  -3550412.98225  23739869.388
  14018665.457 8    556262.29629  20826739.909
   4878084.652 6   4365366.10325  23228550.865
   3825996.899 7  -3239282.01026  22563874.694
 92  9  3 19 34  0.0010000  0  6G25G16G17G20G24G 3
   1088688.163 5    831194.04225  24318212.217
   -275825.714 7   -215965.67927  21717806.566
  -4629069.453 6  -3616053.60025  23723838.129
  14053927.693 8    583739.34629  20833449.474
   4975806.029 6   4441512.61025  23247146.232
   3774848.922 7  -3279137.55026  22554141.763
 92  9  3 19 34 30.0010000  0  6G25G16G17G20G24G 3
   1127654.451 5    861557.22425  24325626.785
   -281517.431 7   -220400.75627  21716723.685
  -4713059.157 6  -3681500.04025  23707854.197
  14089835.765 8    611719.65129  20840282.712
   5073691.805 6   4517787.19225  23265774.100
   3723876.416 7  -3318856.36826  22544441.098
 92  9  3 19 35  0.0010000  0  6G25G16G17G20G24G 3
   1167168.555 5    892347.41425  24333143.140
   -286576.899 7   -224343.18227  21715760.600
  -4796804.746 6  -3746756.19225  23691918.016
  14126383.012 8    640198.01629  20847237.587
   5171734.105 6   4594183.77225  23284431.163
   3673073.967 7  -3358442.66326  22534774.810
 92  9  3 19 35 30.0010000  0  6G25G16G17G20G24G 3
   1207220.505 5    923556.71325  24340763.475
   -291011.840 7   -227798.97727  21714917.020
  -4880312.581 6  -3811827.12325  23676027.628
  14163560.617 8    669167.55929  20854312.459
   5269923.138 6   4670694.67225  23303116.359
   3622433.966 7  -3397902.37026  22525138.013
 92  9  3 19 36  0.0010000  0  6G25G16G17G20G24G 3
   1247810.827 6    955185.42425  24348488.812
   -294819.162 7   -230765.69927  21714191.950
  -4963579.832 6  -3876710.56925  23660183.280
  14201370.616 8    698629.88929  20861507.609
   5368259.612 6   4747320.44925  23321828.858
   3571959.129 7  -3437233.40726  22515532.420
 92  9  3 19 36 30.0010000  0  6G25G16G17G20G24G 3
   1288941.890 6    987235.61225  24356316.762
   -297993.993 7   -233239.57927  21713587.886
  -5046601.367 6  -3941402.58925  23644384.148
  14239816.534 8    728587.73329  20868823.673
   5466746.618 6   4824063.55225  23340570.652
   3521654.047 7  -3476432.13726  22505960.128
 92  9  3 19 37  0.0010000  0  6G25G16G17G20G24G 3
   1330611.009 6   1019704.99625  24364247.256
   -300537.105 7   -235221.22327  21713104.511
  -5129376.712 6  -4005902.73325  23628632.697
  14278896.659 8    759039.77329  20876260.285
   5565381.235 6   4900921.68925  23359340.109
   3471518.251 7  -3515498.96726  22496419.593
 92  9  3 19 37 30.0010000  0  6G25G16G17G20G24G 3
   1372823.433 6   1052597.72825  24372280.439
   -302440.965 7   -236704.72827  21712742.528
  -5211897.731 6  -4070204.71225  23612928.216
  14318617.601 8    789991.13329  20883819.135
   5664169.380 6   4977899.44125  23378138.166
   3421559.393 7  -3554427.91926  22486912.816
 92  9  3 19 38  0.0010000  0  6G25G16G17G20G24G 3
   1415584.279 6   1085917.88125  24380418.045
   -303697.219 7   -237683.61627  21712503.118
  -5294156.370 6  -4134302.21825  23597275.817
  14358985.693 8    821446.78129  20891500.836
   5763116.417 6   5055000.98925  23396969.476
   3371784.899 7  -3593213.21326  22477440.930
 92  9  3 19 38 30.0010000  0  6G25G16G17G20G24G 3
   1458885.352 5   1119658.91925  24388657.520
   -304311.754 7   -238162.46327  21712385.290
  -5376157.680 6  -4198199.20325  23581671.116
  14399993.891 8    853401.20129  20899304.431
   5862214.520 6   5132220.25625  23415825.886
   3322189.024 7  -3631859.33726  22468003.096
 92  9  3 19 39  0.0010000  0  6G25G16G17G20G24G 3
   1502728.803 6   1153822.54625  24397002.699
   -304280.259 7   -238137.92227  21712391.045
  -5457896.955 6  -4261892.02125  23566117.172
  14441645.734 8    885857.15929  20907230.705
   5961466.090 6   5209559.11325  23434713.002
   3272776.186 7  -3670362.80926  22458599.999
 92  9  3 19 39 30.0010000  0  6G25G16G17G20G24G 3
   1547112.425 6   1188407.16825  24405448.397
   -303602.534 7   -237609.81227  21712520.223
  -5539373.130 6  -4325379.85525  23550612.514
  14483940.175 8    918813.85729  20915279.473
   6060869.275 6   5287016.10425  23453629.073
   3223546.768 7  -3708723.38526  22449231.793
 92  9  3 19 40  0.0010000  0  6G25G16G17G20G24G 3
   1592034.417 6   1223411.27425  24413996.182
   -302278.180 7   -236577.83627  21712772.419
  -5620584.922 6  -4388661.62725  23535157.256
  14526876.430 8    952270.66029  20923450.008
   6160423.067 6   5364590.47025  23472574.088
   3174501.155 7  -3746940.71626  22439898.852
 92  9  3 19 40 30.0010000  0  6G25G16G17G20G24G 3
   1637495.343 6   1258835.29625  24422646.052
   -300303.994 7   -235039.49727  21713148.459
  -5701528.404 6  -4451734.37225  23519755.213
  14570456.303 8    986228.97429  20931742.247
   6260128.547 6   5442283.01825  23491548.292
   3125642.751 7  -3785012.19226  22430601.249
 92  9  3 19 41  0.0010000  0  6G25G16G17G20G24G 3
   1683483.198 6   1294669.96225  24431398.021
   -297689.517 7   -233002.25127  21713645.917
  -5782212.797 6  -4514605.23525  23504402.062
  14614669.131 8   1020680.52029  20940155.742
   6359973.816 6   5520084.54625  23510547.009
   3076961.749 7  -3822945.42526  22421337.802
 92  9  3 19 41 30.0010000  0  6G25G16G17G20G24G 3
   1729993.766 5   1330911.85825  24440248.591
   -294436.617 7   -230467.52027  21714264.738
  -5862639.765 6  -4577275.47925  23489095.408
  14659511.320 8   1055622.45529  20948688.966
   6459955.459 6   5597992.25725  23529572.746
   3028456.524 7  -3860741.67026  22412107.520
 92  9  3 19 42  0.0010000  0  6G25G16G17G20G24G 3
   1777020.102 6   1367555.71925  24449197.260
   -290549.841 7   -227438.82627  21715004.625
  -5942812.685 6  -4639747.79825  23473838.685
  14704977.408 8   1091050.56329  20957341.367
   6560066.750 6   5676000.99525  23548623.199
   2980122.570 7  -3898404.47326  22402910.398
 92  9  3 19 42 30.0010000  0  6G25G16G17G20G24G 3
   1824559.114 6   1404599.01325  24458242.627
   -286029.808 7   -223916.73527  21715865.309
  -6022731.336 6  -4702022.00325  23458630.587
  14751065.539 8   1126963.38029  20966111.415
   6660305.619 6   5754109.23825  23567697.667
   2931959.976 7  -3935933.75926  22393744.982
 92  9  3 19 43  0.0010000  0  6G25G16G17G20G24G 3
   1872604.227 6   1442036.71825  24467387.463
   -280880.575 7   -219904.34227  21716844.740
  -6102399.893 6  -4764101.27225  23443470.830
  14797770.309 8   1163356.68229  20974998.870
   6760665.738 6   5832311.86325  23586794.292
   2883964.178 7  -3973333.06326  22384611.914
 92  9  3 19 43 30.0010000  0  6G25G16G17G20G24G 3
   1921155.626 5   1479868.90125  24476625.894
   -275100.453 7   -215400.35127  21717944.340
  -6181814.758 6  -4825982.87925  23428359.882
  14845093.090 8   1200231.56129  20984004.146
   6861148.124 6   5910609.80125  23605916.879
   2836138.269 7  -4010599.98326  22375510.837
 92  9  3 19 44  0.0010000  0  6G25G16G17G20G24G 3
   1970211.221 6   1518093.93325  24485960.672
   -268688.518 7   -210404.05427  21719165.465
  -6260974.520 6  -4887665.72325  23413295.601
  14893032.822 8   1237587.17229  20993126.520
   6961751.175 6   5989001.75525  23625062.015
   2788482.493 7  -4047734.33626  22366442.717
 92  9  3 19 44 30.0010000  0  6G25G16G17G20G24G 3
   2019764.749 5   1556707.04325  24495390.364
   -261648.171 7   -204918.06127  21720505.606
  -6339882.567 6  -4949152.41525  23398280.040
  14941584.660 8   1275419.76329  21002365.843
   7062469.376 6   6067483.43625  23644226.284
   2740993.621 7  -4084738.63326  22357405.032
 92  9  3 19 45  0.0010000  0  6G25G16G17G20G24G 3
   2069810.889 5   1595703.93125  24504911.182
   -253982.755 7   -198945.02727  21721964.519
  -6418540.918 6  -5010444.52525  23383311.498
  14990744.406 8   1313726.03429  21011720.906
   7163298.555 6   6146051.59825  23663412.882
   2693669.107 7  -4121614.85926  22348399.295
 92  9  3 19 45 30.0010000  0  6G25G16G17G20G24G 3
   2120344.891 5   1635080.98925  24514529.015
   -245695.000 7   -192487.03327  21723540.667
  -6496951.525 6  -5071543.58225  23368391.451
  15040508.131 8   1352502.93929  21021190.722
   7264233.785 6   6224702.38025  23682621.397
   2646506.548 7  -4158364.86826  22339424.645
 92  9  3 19 46  0.0010000  0  6G25G16G17G20G24G 3
   2171355.885 6   1674829.82225  24524236.445
   -236793.571 7   -185550.85827  21725234.512
  -6575122.156 6  -5132455.69025  23353516.041
  15090866.322 8   1391743.06729  21030774.018
   7365265.305 6   6303428.22325  23701845.623
   2599497.984 7  -4194994.90426  22330478.929
 92  9  3 19 46 30.0010000  0  6G25G16G17G20G24G 3
   2222845.096 6   1714951.17425  24534034.296
   -227274.811 7   -178133.65327  21727046.439
  -6653048.311 6  -5193177.23825  23338686.964
  15141821.447 8   1431448.33329  21040469.876
   7466395.347 6   6382230.80025  23721091.015
   2552647.504 7  -4231501.74526  22321563.683
 92  9  3 19 47  0.0010000  0  6G25G16G17G20G24G 3
   2274810.865 6   1755443.97025  24543923.296
   -217137.788 7   -170234.65927  21728975.376
  -6730727.965 6  -5253706.76025  23323904.077
  15193372.782 8   1471618.18129  21050279.862
   7567623.002 6   6461109.44025  23740354.400
   2505956.174 7  -4267884.56026  22312678.214
 92  9  3 19 47 30.0010000  0  6G25G16G17G20G24G 3
   2327249.061 5   1796304.81425  24553902.280
   -206384.563 7   -161855.54027  21731021.237
  -6808162.708 6  -5314045.41225  23309168.437
  15245517.441 8   1512250.35129  21060202.554
   7668944.888 6   6540061.51125  23759634.731
   2459423.010 7  -4304144.15526  22303823.447
 92  9  3 19 48  0.0010000  0  6G25G16G17G20G24G 3
   2380161.833 5   1837535.43825  24563969.701
   -195010.853 7   -152992.91027  21733185.598
  -6885346.923 6  -5374188.87925  23294482.044
  15298257.894 8   1553346.78929  21070239.107
   7770364.068 6   6619089.40325  23778933.418
   2413052.253 7  -4340277.20526  22294998.923
 92  9  3 19 48 30.0010000  0  6G25G16G17G20G24G 3
   2433549.413 5   1879136.18425  24574129.313
   -183013.475 7   -143644.29827  21735469.578
  -6962277.188 6  -5434134.42125  23279841.089
  15351596.072 8   1594908.97829  21080389.128
   7871881.532 6   6698193.88625  23798252.780
   2366847.575 7  -4376280.83526  22286206.639
 92  9  3 19 49  0.0010000  0  6G25G16G17G20G24G 3
   2487407.590 5   1921103.42425  24584378.447
   -170394.865 7   -133811.61927  21737870.438
  -7038954.294 6  -5493882.71025  23265250.923
  15405528.817 8   1636934.45729  21090652.136
   7973494.102 6   6777372.44525  23817589.987
   2320807.745 7  -4412155.98826  22277445.937
 92  9  3 19 49 30.0010000  0  6G25G16G17G20G24G 3
   2541729.687 5   1963432.21425  24594716.712
   -157159.190 7   -123498.10227  21740388.225
  -7115381.556 6  -5553436.33425  23250706.963
  15460050.350 8   1679418.74529  21101026.893
   8075196.242 6   6856620.84125  23836942.400
   2274928.810 7  -4447905.82626  22268715.428
 92  9  3 19 50  0.0010000  0  6G25G16G17G20G24G 3
   2596510.316 5   2006118.43425  24605140.420
   -143309.723 7   -112706.30627  21743023.158
  -7191561.479 6  -5612797.21425  23236210.974
  15515156.548 8   1722358.60229  21111513.790
   8176982.910 6   6935935.09225  23856310.844
   2229208.338 7  -4483532.14726  22260014.960
 92  9  3 19 50 30.0010000  0  6G25G16G17G20G24G 3
   2651745.064 5   2049158.34325  24615653.795
   -128848.709 7   -101437.97328  21745775.062
  -7267495.048 6  -5671966.12925  23221760.559
  15570844.297 8   1765751.62129  21122111.019
   8278851.046 6   7015312.80525  23875695.155
   2183644.848 7  -4519036.13926  22251344.946
 92  9  3 19 51  0.0010000  0  6G25G16G17G20G24G 3
   2707428.848 5   2092548.25625  24626252.048
   -113779.347 7    -89695.62027  21748643.767
  -7343184.134 6  -5730944.54125  23207356.252
  15627109.416 8   1809594.53529  21132817.695
   8380796.463 6   7094750.73125  23895096.169
   2138236.530 7  -4554419.24326  22242703.806
 92  9  3 19 51 30.0010000  0  6G25G16G17G20G24G 3
   2763557.019 5   2136284.39025  24636932.447
    -98104.044 7    -77481.08127  21751627.052
  -7418629.879 6  -5789733.34225  23192999.730
  15683948.291 8   1853884.53429  21143633.705
   8482815.839 6   7174246.30825  23914511.021
   2092981.332 7  -4589683.01926  22234091.909
 92  9  3 19 52  0.0010000  0  6G25G16G17G20G24G 3
   2820130.649 5   2180367.68925  24647697.025
    -81818.603 7    -64791.10528  21754726.418
  -7493828.131 6  -5848329.30825  23178689.799
  15741362.959 8   1898623.20329  21154559.615
   8584911.644 6   7253801.44625  23933939.217
   2047883.512 7  -4624824.14126  22225510.508
 92  9  3 19 52 30.0010000  0  6G25G16G17G20G24G 3
   2877151.626 5   2224799.58425  24658548.131
    -64919.063 7    -51622.61627  21757941.799
  -7568773.217 6  -5906727.98625  23164427.360
  15799356.590 8   1943813.01529  21165595.552
   8687086.195 6   7333417.94325  23953380.887
   2002948.502 7  -4659838.44926  22216959.291
 92  9  3 19 53  0.0010000  0  6G25G16G17G20G24G 3
   2934612.419 5   2269574.05425  24669482.979
    -47411.480 8    -37980.32627  21761273.015
  -7643470.232 6  -5964933.35525  23150212.980
  15857922.195 8   1989448.50629  21176739.990
   8789332.819 6   7413090.62625  23972836.924
   1958171.127 7  -4694729.90226  22208438.992
 92  9  3 19 53 30.0010000  0  6G25G16G17G20G24G 3
   2992508.308 5   2314687.71225  24680498.218
    -29297.654 8    -23865.64927  21764720.697
  -7717919.901 6  -6022945.98925  23136047.255
  15917056.549 8   2035527.18729  21187993.150
   8891648.477 6   7492817.00625  23992307.614
   1913550.386 7  -4729499.28626  22199947.869
 92  9  3 19 54  0.0010000  0  6G25G16G17G20G24G 3
   3050838.235 5   2360139.46825  24691597.290
    -10576.845 7     -9277.98427  21768283.131
  -7792120.204 6  -6080764.32925  23121928.012
  15976759.503 8   2082048.92929  21199353.493
   8994033.011 6   7572597.14625  24011793.861
   1869088.035 7  -4764145.28126  22191487.195
 92  9  3 19 54 30.0010000  0  6G25G16G17G20G24G 3
   3109602.328 5   2405929.63225  24702782.790
      8753.043 7      5784.29627  21771960.915
  -7866067.395 6  -6138385.42925  23107856.177
  16037032.155 8   2129014.60429  21210823.074
   9096487.739 6   7652431.93025  24031287.946
   1824787.742 8  -4798664.96726  22183057.170
 92  9  3 19 55  0.0010000  0  6G25G16G17G20G24G 3
   3168796.598 5   2452054.95225  24714044.381
     28690.258 7     21319.79127  21775753.761
  -7939762.339 6  -6195809.96825  23093831.915
  16097871.640 8   2176421.95929  21222400.648
   9199010.171 6   7732319.52125  24050797.033
   1780648.143 8  -4833059.45726  22174656.886
 92  9  3 19 55 30.0010000  0  6G25G16G17G20G24G 3
   3228421.139 5   2498515.50325  24725390.534
     49237.332 8     37330.51027  21779664.401
  -8013201.719 6  -6253035.37825  23079856.590
  16159279.123 8   2224271.90129  21234085.780
   9301601.536 6   7812260.79425  24070320.203
   1736672.866 8  -4867325.90026  22166289.329
 92  9  3 19 56  0.0010000  0  6G25G16G17G20G24G 3
   3288475.569 5   2545311.05525  24736818.355
     70395.458 7     53817.39527  21783690.178
  -8086382.258 6  -6310059.09025  23065930.377
  16221254.958 8   2272564.72529  21245879.014
   9404262.065 6   7892255.93525  24089856.365
   1692864.502 8  -4901462.29326  22157952.628
 92  9  3 19 56 30.0010000  0  6G25G16G17G20G24G 3
   3348954.709 5   2592437.56425  24748328.663
     92162.077 7     70778.40227  21787832.500
  -8159305.734 6  -6366882.49025  23052053.659
  16283794.979 8   2321297.17529  21257781.013
   9506988.547 6   7972302.52025  24109403.009
   1649221.486 8  -4935469.80926  22149647.370
 92  9  3 19 57  0.0010000  0  6G25G16G17G20G24G 3
   3409855.237 5   2639892.50125  24759917.004
    114536.335 8     88212.90227  21792090.041
  -8231971.801 6  -6423505.33925  23038224.693
  16346896.784 8   2370467.37129  21269788.962
   9609778.617 6   8052398.61225  24128964.842
   1605743.454 8  -4969348.80126  22141374.048
 92  9  3 19 57 30.0010000  0  6G25G16G17G20G24G 3
   3471172.005 5   2687671.65425  24771587.748
    137514.840 8    106118.23427  21796462.631
  -8304383.090 6  -6479929.63625  23024444.827
  16410556.270 8   2420072.13229  21281903.294
   9712628.447 6   8132541.26825  24148537.318
   1562428.689 8  -5003100.56326  22133131.264
 92  9  3 19 58  0.0010000  0  6G25G16G17G20G24G 3
   3532906.978 5   2735776.76825  24783335.467
    161101.238 8    124497.26927  21800951.426
  -8376533.798 6  -6536150.87725  23010715.693
  16474776.408 8   2470113.76029  21294123.655
   9815541.343 6   8212733.10925  24168122.672
   1519282.453 8  -5036720.99826  22124921.283
 92  9  3 19 58 30.0010000  0  6G25G16G17G20G24G 3
   3595057.264 5   2784205.48325  24795164.144
    185295.073 8    143349.62627  21805555.756
  -8448423.272 6  -6592168.60025  22997035.876
  16539555.262 8   2520590.74329  21306450.641
   9918516.058 6   8292973.07925  24187715.796
   1476305.374 8  -5070209.60926  22116742.635
 92  9  3 19 59  0.0010000  0  6G25G16G17G20G24G 3
   3657620.798 5   2832956.15025  24807067.992
    210096.392 8    162675.34227  21810275.771
  -8520050.390 6  -6647981.82125  22983405.040
  16604891.761 8   2571502.26829  21318883.503
  10021551.580 6   8373260.45025  24207323.799
   1433498.227 8  -5103565.83126  22108596.916
 92  9  3 19 59 30.0010000  0  6G25G16G17G20G24G 3
   3720598.822 5   2882029.87125  24819051.018
    235509.030 7    182477.40927  21815111.244
  -8591410.014 6  -6703586.64225  22969825.582
  16670788.211 8   2622850.10929  21331422.704
  10124650.580 6   8453597.29425  24226941.585
   1390866.354 8  -5136785.45426  22100484.164
 92  9  3 20  0  0.0010000  0  6G25G16G17G20G24G 3
   3783985.181 5   2931421.71225  24831115.765
    261527.762 7    202751.75627  21820061.515
  -8662505.135 6  -6758985.38725  22956297.653
  16737239.125 8   2674630.00129  21344067.949
  10227808.212 6   8533979.76625  24246571.326
   1348406.408 8  -5169871.10426  22092404.249
 92  9  3 20  0 30.0010000  0  6G25G16G17G20G24G 3
   3847776.292 5   2981128.98225  24843252.038
    288151.350 7    223497.41927  21825127.188
  -8733336.043 6  -6814178.21025  22942819.474
  16804242.011 8   2726840.00829  21356818.302
  10331022.576 6   8614406.52125  24266212.358
   1306118.538 8  -5202822.69626  22084357.637
 92  9  3 20  1  0.0010000  0  6G25G16G17G20G24G 3
   3911971.936 5   3031151.44225  24855469.080
    315381.710 8    244715.87327  21830309.563
  -8803899.492 6  -6869162.66825  22929390.415
  16871797.122 8   2779480.31629  21369673.883
  10434294.822 6   8694878.39925  24285865.521
   1264005.802 8  -5235637.80826  22076343.747
 92  9  3 20  1 30.0010000  0  6G25G16G17G20G24G 3
   3976574.297 5   3081490.93225  24867759.360
    343223.073 8    266410.44927  21835608.152
  -8874189.556 6  -6923934.06625  22916013.705
  16939907.994 8   2832553.67428  21382635.171
  10537628.587 6   8775398.13525  24305530.223
   1222074.019 8  -5268311.90227  22068364.339
 92  9  3 20  2  0.0010000  0  6G25G16G17G20G24G 3
   4041579.950 5   3132144.63325  24880131.693
    371674.316 7    288580.26327  21841023.064
  -8944206.176 6  -6978492.41625  22902689.969
  17008571.968 8   2886058.03428  21395701.392
  10641021.945 6   8855964.31225  24325204.274
   1180322.945 8  -5300845.19727  22060418.881
 92  9  3 20  2 30.0010000  0  6G25G16G17G20G24G 3
   4106986.510 5   3183110.60124  24892577.884
    400734.727 7    311224.73027  21846552.095
  -9013948.464 6  -7032836.97525  22889418.635
  17077787.780 8   2939992.39128  21408872.515
  10744473.878 6   8936576.18225  24344889.844
   1138753.893 8  -5333236.64027  22052508.286
 92  9  3 20  3  0.0010000  0  6G25G16G17G20G24G 3
   4172790.249 5   3234386.22224  24905097.110
    430402.314 7    334342.31327  21852197.358
  -9083416.511 7  -7086967.85526  22876199.633
  17147552.394 8   2994354.37728  21422148.552
  10847982.351 6   9017232.09825  24364585.211
   1097366.606 8  -5365486.46927  22044632.289
 92  9  3 20  3 30.0010000  0  6G25G16G17G20G24G 3
   4238982.661 5   3285964.53924  24917695.337
    460670.850 8    357928.17527  21857957.662
  -9152616.044 7  -7140889.50326  22863031.462
  17217858.327 8   3049138.17628  21435528.323
  10951540.111 6   9097926.38225  24384291.728
   1056156.202 8  -5397598.47427  22036790.556
 92  9  3 20  4  0.0010000  0  6G25G16G17G20G24G 3
   4305562.718 5   3337845.06824  24930364.684
    491541.394 7    381983.15527  21863832.113
  -9221543.801 6  -7194599.38126  22849915.011
  17288705.074 8   3104343.39328  21449010.149
  11055148.030 6   9178659.77925  24404008.165
   1015124.954 8  -5429570.86427  22028982.331
 92  9  3 20  4 30.0010000  0  6G25G16G17G20G24G 3
   4372523.454 5   3390022.14724  24943108.015
    523008.415 8    406502.87927  21869820.279
  -9290203.356 7  -7248100.29426  22836849.754
  17360086.971 8   3159965.60628  21462592.927
  11158800.543 5   9259427.93825  24423734.626
    974269.762 7  -5461406.07127  22021207.956
 92  9  3 20  5  0.0010000  0  6G25G16G17G20G24G 3
   4439861.447 5   3442493.23424  24955923.692
    555071.333 8    431486.95927  21875921.245
  -9358594.654 7  -7301392.15126  22823835.395
  17432001.359 8   3216002.74428  21476277.631
  11262496.106 5   9340229.60525  24443466.872
    933590.777 8  -5493103.98527  22013467.331
 92  9  3 20  5 30.0010000  0  6G25G16G17G20G24G 3
   4507579.548 6   3495260.48824  24968805.261
    587734.273 8    456938.60327  21882137.570
  -9426711.493 7  -7354470.14726  22810873.062
  17504451.665 8   3272457.47228  21490064.767
  11366239.007 5   9421068.15925  24463208.201
    893094.421 7  -5524659.56327  22005760.650
 92  9  3 20  6  0.0010000  0  6G25G16G17G20G24G 3
   4575677.647 5   3548323.78224  24981764.303
    620999.184 8    482859.31127  21888467.689
  -9494550.612 7  -7407331.73926  22797963.528
  17577438.594 8   3329330.36628  21503954.512
  11470030.581 5   9501944.62425  24482959.262
    852783.868 7  -5556070.37427  21998090.059
 92  9  3 20  6 30.0010000  0  6G25G16G17G20G24G 3
   4644150.176 6   3601679.02323  24994795.882
    654862.670 8    509246.40927  21894911.288
  -9562113.700 7  -7459978.25326  22785106.769
  17650957.822 8   3386618.02028  21517944.839
  11573867.039 5   9582856.13025  24502720.130
    812657.576 7  -5587337.61827  21990454.814
 92  9  3 20  7  0.0010000  0  6G25G16G17G20G24G 3
   4712991.372 6   3655321.25723  25007898.630
    689320.976 8    536097.03327  21901468.731
  -9629403.178 6  -7512411.54926  22772301.838
  17725004.115 8   3444316.37728  21532034.412
  11677744.814 5   9663799.77825  24522486.604
    772713.620 8  -5618462.77427  21982853.525
 92  9  3 20  7 30.0010000  0  6G25G16G17G20G24G 3
   4782191.798 5   3709243.72923  25021068.745
    724365.926 8    563404.78227  21908138.330
  -9696424.804 6  -7564636.16226  22759547.456
  17799568.799 8   3502418.69028  21546223.569
  11781655.640 5   9744769.19725  24542260.808
    732945.991 7  -5649450.53227  21975285.540
 92  9  3 20  8  0.0010000  0  6G25G16G17G20G24G 3
   4851751.919 5   3763446.21323  25034304.093
    759999.375 8    591171.07427  21914918.106
  -9763174.848 6  -7616649.10026  22746845.078
  17874653.201 8   3560925.96528  21560512.036
  11885601.598 5   9825765.94725  24562040.575
    693358.818 7  -5680297.65527  21967752.531
 92  9  3 20  8 30.0010000  0  6G25G16G17G20G24G 3
   4921669.719 5   3817927.59223  25047608.467
    796221.797 8    619396.33127  21921810.910
  -9829651.529 6  -7668449.05826  22734194.744
  17950256.681 8   3619837.72928  21574898.957
  11989582.874 5   9906790.25225  24581827.033
    653954.051 7  -5711002.65427  21960253.991
 92  9  3 20  9  0.0010000  0  6G25G16G17G20G24G 3
   4991946.809 5   3872688.89423  25060979.622
    833036.680 8    648083.23427  21928816.785
  -9895849.875 6  -7720032.12426  22721597.518
  18026381.042 8   3679155.36728  21589385.050
  12093602.698 5   9987844.67325  24601620.578
    614736.784 7  -5741561.54727  21952791.270
 92  9  3 20  9 30.0010000  0  6G25G16G17G20G24G 3
   5062580.104 5   3927727.74823  25074421.155
    870442.687 8    677230.75527  21935934.748
  -9961769.654 6  -7771398.12826  22709054.148
  18103023.785 8   3738876.92928  21603969.453
  12197659.219 5  10068927.57625  24621421.715
    575707.725 8  -5771973.77427  21945364.568
 92  9  3 20 10  0.0010000  0  6G25G16G17G20G24G 3
   5133564.794 5   3983040.48223  25087931.564
    908436.869 8    706836.59127  21943164.734
 -10027411.800 6  -7822547.80126  22696564.467
  18180181.080 8   3798999.44428  21618651.999
  12301749.976 5  10150037.17725  24641229.640
    536866.057 7  -5802240.01527  21937973.309
 92  9  3 20 10 30.0010000  0  5G16G17G20G24G 3
    947018.048 8    736899.83827  21950505.924
 -10092775.505 7  -7873480.49726  22684124.235
  18257851.452 8   3859521.77228  21633432.356
  12405874.110 5  10231172.90625  24661045.150
    498212.719 8  -5832359.48027  21930617.491
 92  9  3 20 11  0.0010000  0  5G16G17G20G24G 3
    986182.966 8    767417.95227  21957959.132
 -10157862.949 6  -7924197.92026  22671738.867
  18336029.624 8   3920439.76628  21648309.219
  12510027.576 5  10312331.33125  24680863.920
    459745.715 8  -5862333.75627  21923297.485
 92  9  3 20 11 30.0010000  0  5G16G17G20G24G 3
   1025935.721 8    798394.09327  21965524.334
 -10222668.020 7  -7974695.33226  22659406.279
  18414718.839 8   3981755.98528  21663283.171
  12614214.779 6  10393516.09225  24700689.845
    421471.424 8  -5892157.88227  21916014.220
 92  9  3 20 12  0.0010000  0  5G16G17G20G24G 3
   1066271.383 8    829824.47127  21973199.248
 -10287193.167 6  -8024974.61826  22647127.412
  18493913.843 8   4043466.33628  21678352.878
  12718431.731 5  10474724.10325  24720520.279
    383387.931 8  -5921833.29627  21908767.625
 92  9  3 20 12 30.0010000  0  5G16G17G20G24G 3
   1107189.636 7    861708.80927  21980985.591
 -10351437.586 7  -8075035.15726  22634902.081
  18573612.790 7   4105569.35128  21693519.319
  12822677.486 5  10555954.55725  24740358.722
    345496.445 8  -5951359.12827  21901557.076
 92  9  3 20 13  0.0010000  0  5G16G17G20G24G 3
   1148690.147 7    894046.83627  21988882.985
 -10415399.517 7  -8124875.55926  22622730.640
  18653814.401 8   4168064.06628  21708781.233
  12926951.867 6  10637207.18425  24760202.119
    307798.578 8  -5980734.07127  21894383.324
 92  9  3 20 13 30.0010000  0  5G16G17G20G24G 3
   1190778.477 7    926842.92927  21996892.669
 -10479071.206 7  -8174489.82426  22610614.647
  18734523.363 8   4230954.11628  21724139.680
  13031260.634 5  10718486.75925  24780049.681
    270302.546 8  -6009951.76427  21887247.992
 92  9  3 20 14  0.0010000  0  5G16G17G20G24G 3
   1233457.732 7    960099.49027  22005014.557
 -10542447.853 7  -8223874.16426  22598553.976
  18815741.935 8   4294241.25328  21739595.491
  13135607.864 6  10799796.21725  24799905.949
    233013.681 8  -6039007.99027  21880152.008
 92  9  3 20 14 30.0010000  0  5G16G17G20G24G 3
   1276724.654 7    993813.94827  22013246.708
 -10605531.626 7  -8273030.32626  22586549.787
  18897465.144 8   4357921.62328  21755147.512
  13239989.476 6  10881132.47725  24819770.386
    195930.208 8  -6067904.18927  21873095.111
 92  9  3 20 15  0.0010000  0  5G16G17G20G24G 3
   1320578.106 7   1027985.45327  22021591.539
 -10668321.341 7  -8321957.32226  22574601.089
  18979691.012 8   4421993.69228  21770794.265
  13344404.910 5  10962495.10925  24839641.417
    159053.630 8  -6096639.17727  21866077.600
 92  9  3 20 15 30.0010000  0  5G16G17G20G24G 3
   1365011.507 7   1062608.87027  22030047.794
 -10730821.305 7  -8370658.54926  22562708.709
  19062412.383 8   4486451.83728  21786535.266
  13448848.191 5  11043879.42725  24859516.128
    122379.897 8  -6125216.09427  21859098.789
 92  9  3 20 16  0.0010000  0  5G16G17G20G24G 3
   1410023.087 8   1097682.84427  22038614.083
 -10793031.794 7  -8419134.17526  22550869.809
  19145626.290 8   4551293.80528  21802370.474
  13553318.019 5  11125284.41525  24879395.145
     85909.461 8  -6153634.59327  21852158.808
 92  9  3 20 16 30.0010000  0  5G16G17G20G24G 3
   1455607.423 7   1133203.08627  22047288.101
 -10854956.110 7  -8467386.86326  22539085.216
  19229326.217 8   4616514.48328  21818298.327
  13657808.530 5  11206705.53625  24899278.648
     49638.820 8  -6181897.42627  21845257.175
 92  9  3 20 17  0.0010000  0  5G16G17G20G24G 3
   1501761.765 7   1169167.50527  22056070.640
 -10916594.654 7  -8515416.83526  22527355.664
  19313509.095 8   4682111.47828  21834317.515
  13762318.091 5  11288141.52125  24919165.023
     13568.255 8  -6210004.33927  21838393.016
 92  9  3 20 17 30.0010000  0  5G16G17G20G24G 3
   1548486.130 7   1205576.10027  22064961.985
 -10977946.026 7  -8563223.04326  22515682.096
  19398173.376 7   4748083.61128  21850429.215
  13866846.568 5  11369592.17225  24939056.415
    -22300.658 8  -6237954.11827  21831566.791
 92  9  3 20 18  0.0010000  0  5G16G17G20G24G 3
   1595781.058 7   1242429.29027  22073961.902
 -11039006.844 7  -8610802.84826  22504062.090
  19483319.844 8   4814431.44728  21866632.067
  13971396.043 5  11451059.23725  24958951.854
    -57963.446 8  -6265743.28927  21824780.162
 92  9  3 20 18 30.0010000  0  5G16G17G20G24G 3
   1643641.454 7   1279723.09327  22083069.389
 -11099780.595 7  -8658158.95326  22492496.749
  19568941.474 8   4881149.55528  21882924.977
  14075961.294 5  11532538.59825  24978853.313
    -93423.685 8  -6293374.62327  21818032.632
 92  9  3 20 19  0.0010000  0  5G16G17G20G24G 3
   1692064.767 8   1317455.53627  22092284.559
 -11160269.117 7  -8705292.82226  22480986.685
  19655033.809 8   4948234.45928  21899308.191
  14180539.225 5  11614027.79925  24998752.502
   -128682.379 8  -6320848.91827  21811323.554
 92  9  3 20 19 30.0010000  0  5G16G17G20G24G 3
   1741053.325 7   1355628.43527  22101606.609
 -11220467.206 7  -8752200.36126  22469530.676
  19741599.231 8   5015687.96528  21915781.450
  14285133.327 5  11695529.62725  25018657.684
   -163733.578 8  -6348161.51927  21804653.424
 92  9  3 20 20  0.0010000  0  5G16G17G20G24G 3
   1790613.275 7   1394246.59427  22111037.490
 -11280365.516 7  -8798874.32226  22458132.739
  19828643.347 8   5083514.49428  21932345.552
  14389751.297 5  11777050.11025  25038563.574
   -198568.278 8  -6375305.43627  21798024.830
 92  9  3 20 20 30.0010000  0  5G16G17G20G24G 3
   1840745.231 7   1433310.44227  22120577.055
 -11339962.553 7  -8845313.49126  22446791.720
  19916165.580 8   5151713.60227  21948999.845
  14494393.393 5  11858589.29625  25058475.771
   -233183.687 8  -6402278.46227  21791437.262
 92  9  3 20 21  0.0010000  0  5G16G17G20G24G 3
   1891444.835 8   1472816.63127  22130225.183
 -11399260.216 7  -8891519.42126  22435507.921
  20004160.668 7   5220281.14427  21965744.132
  14599056.408 5  11940144.76125  25078395.261
   -267581.459 8  -6429081.90427  21784891.641
 92  9  3 20 21 30.0010000  0  5G16G17G20G24G 3
   1942704.423 7   1512759.18227  22139979.451
 -11458264.932 7  -8937497.05726  22424279.327
  20092619.885 8   5289210.36027  21982577.677
  14703732.606 5  12021710.59325  25098312.472
   -301767.095 8  -6455720.06827  21778386.247
 92  9  3 20 22  0.0010000  0  5G16G17G20G24G 3
   1994520.292 8   1553135.17327  22149839.564
 -11516977.454 7  -8983247.01926  22413105.960
  20181538.457 7   5358497.50827  21999498.296
  14808418.954 5  12103284.26725  25118234.108
   -335741.424 8  -6482193.55227  21771921.144
 92  9  3 20 22 30.0010000  0  5G16G17G20G24G 3
   2046892.421 8   1593944.63227  22159805.953
 -11575395.849 7  -9028767.79526  22401989.604
  20270915.253 7   5428141.71827  22016506.251
  14913116.294 5  12184866.61525  25138155.790
   -369501.945 8  -6508500.44127  21765496.729
 92  9  3 20 23  0.0010000  0  5G16G17G20G24G 3
   2099816.032 8   1635183.79827  22169877.043
 -11633522.599 7  -9074061.30026  22390928.999
  20360745.006 7   5498138.88427  22033600.565
  15017820.971 5  12266454.55525  25158079.266
   -403050.466 8  -6534642.12627  21759111.949
 92  9  3 20 23 30.0010000  0  5G16G17G20G24G 3
   2153290.504 7   1676852.24527  22180053.167
 -11691356.216 7  -9119126.41126  22379923.372
  20451026.458 8   5568488.01427  22050780.301
  15122533.181 5  12348048.37825  25178007.974
   -436384.514 8  -6560616.70127  21752768.931
 92  9  3 20 24  0.0010000  0  5G16G17G20G24G 3
   2207319.212 8   1718952.53527  22190334.419
 -11748891.212 7  -9163958.82626  22368975.169
  20541762.177 7   5639191.12027  22068047.131
  15227257.099 5  12429651.39025  25197935.103
   -469498.257 8  -6586419.60627  21746467.574
 92  9  3 20 24 30.0020000  0  5G16G17G20G24G 3
   2261902.586 8   1761485.01927  22200721.182
 -11806129.000 7  -9208559.62726  22358083.108
  20632952.372 7   5710248.38227  22085399.616
  15331995.287 5  12511265.52125  25217868.721
   -502391.701 8  -6612050.84327  21740208.556
 92  9  3 20 25  0.0020000  0  5G16G17G20G24G 3
   2317035.712 7   1804445.89927  22211212.477
 -11863064.064 7  -9252924.56126  22347248.250
  20724589.137 8   5781653.60327  22102837.394
  15436740.552 5  12592885.14824  25237798.607
   -535060.718 8  -6637507.21427  21733991.780
 92  9  3 20 25 30.0020000  0  5G16G17G20G24G 3
   2372715.057 7   1847832.39327  22221808.000
 -11919702.436 7  -9297058.29226  22336469.838
  20816669.219 7   5853404.26627  22120360.373
  15541491.504 6  12674509.26324  25257732.402
   -567509.368 8  -6662791.86127  21727817.685
 92  9  3 20 26  0.0020000  0  5G16G17G20G24G 3
   2428937.306 8   1891641.94127  22232506.726
 -11976044.877 7  -9340961.45426  22325748.305
  20909188.352 7   5925497.05027  22137966.563
  15646245.607 5  12756135.86324  25277663.883
   -599737.905 8  -6687904.98927  21721684.580
 92  9  3 20 26 30.0020000  0  5G16G17G20G24G 3
   2485701.076 7   1935873.43527  22243308.480
 -12032089.969 7  -9384632.89226  22315084.051
  21002145.087 7   5997930.81327  22155656.077
  15751002.982 5  12837764.80824  25297601.304
   -631744.141 8  -6712844.92027  21715593.998
 92  9  3 20 27  0.0020000  0  4G16G17G20G 3
   2543010.087 8   1980529.81127  22254214.128
 -12087832.567 7  -9428068.63426  22304476.557
  21095541.062 7   6070706.85727  22173428.563
   -663522.329 8  -6737607.13427  21709546.814
 92  9  3 20 27 30.0020000  0  4G16G17G20G 3
   2600863.010 7   2025610.02227  22265222.898
 -12143271.847 7  -9471268.01726  22293927.297
  21189374.742 7   6143823.96427  22191283.905
   -695070.528 8  -6762190.13827  21703543.658
 92  9  3 20 28  0.0020000  0  4G16G17G20G 3
   2659258.484 7   2071112.99127  22276334.423
 -12198406.204 7  -9514229.81426  22283435.798
  21283643.964 7   6217280.43827  22209222.526
   -726387.245 8  -6786592.77527  21697583.938
 92  9  3 20 28 30.0020000  0  4G16G17G20G 3
   2718195.718 7   2117038.10127  22287549.968
 -12253234.318 7  -9556952.96026  22273002.144
  21378346.747 7   6291074.78627  22227244.477
   -757470.117 8  -6810813.20227  21691669.000
 92  9  3 20 29  0.0020000  0  4G16G17G20G 3
   2777667.861 7   2163380.02527  22298867.515
 -12307761.544 7  -9599441.67826  22262625.042
  21473475.568 7   6365201.07627  22245346.894
   -788323.203 8  -6834854.56128  21685798.153
 92  9  3 20 29 30.0020000  0  4G16G17G20G 3
   2837664.607 7   2210130.73627  22310283.672
 -12361995.798 7  -9641702.08226  22252304.761
  21569018.683 7   6439650.22027  22263527.361
   -818954.353 8  -6858722.98727  21679968.880
 92  9  3 20 30  0.0020000  0  4G16G17G20G 3
   2898179.663 7   2257285.31227  22321799.589
 -12415940.347 7  -9683736.74926  22242040.094
  21664969.899 7   6514417.34427  22281787.061
   -849365.789 8  -6882420.21528  21674181.896
 92  9  3 20 30 30.0020000  0  4G16G17G20G 3
   2959216.232 7   2304846.26127  22333415.159
 -12469589.874 7  -9725541.54026  22231830.136
  21761331.348 7   6589504.13327  22300123.796
   -879551.736 8  -6905941.71428  21668437.872
 92  9  3 20 31  0.0020000  0  4G16G17G20G 3
   3020774.289 7   2352813.56927  22345128.481
 -12522942.486 7  -9767114.94426  22221677.292
  21858102.111 7   6664909.87827  22318538.977
   -909509.061 8  -6929285.08328  21662737.270
 92  9  3 20 31 30.0020000  0  4G16G17G20G 3
   3082853.149 7   2401186.71227  22356942.448
 -12575995.693 7  -9808455.04726  22211582.200
  21955281.462 7   6740633.98527  22337031.413
   -939234.705 8  -6952447.90928  21657080.117
 92  9  3 20 32  0.0020000  0  4G16G17G20G 3
   3145452.554 7   2449965.44527  22368855.214
 -12628748.237 7  -9849560.89226  22201543.750
  22052867.349 7   6816674.89527  22355601.880
   -968726.368 8  -6975428.41328  21651468.150
 92  9  3 20 32 30.0020000  0  4G16G17G20G 3
   3208580.191 7   2499155.80527  22380867.518
 -12681190.318 7  -9890424.80927  22191564.330
  22150866.253 7   6893037.63627  22374250.948
   -997973.527 8  -6998218.39728  21645902.853
 92  9  3 20 33  0.0020000  0  4G16G17G20G 3
   3272228.174 7   2548751.62927  22392980.081
 -12733326.813 7  -9931050.58527  22181643.736
  22249270.515 7   6969716.21627  22392976.196
  -1026980.361 8  -7020821.12228  21640383.054
 92  9  3 20 33 30.0020000  0  5G26G16G17G20G 3
   -348613.95215   -273890.24732  25278163.416
   3336398.726 7   2598754.65127  22405191.557
 -12785154.059 7  -9971435.42927  22171781.045
  22348080.573 7   7046711.02627  22411778.828
  -1055742.554 8  -7043233.21028  21634909.624
 92  9  3 20 34  0.0020000  0  5G26G16G17G20G 3
   -416033.875 5   -326425.10723  25265335.175
   3401088.394 7   2649162.16627  22417500.706
 -12836672.556 7 -10011579.66127  22161976.920
  22447292.670 7   7124019.08627  22430658.170
  -1084259.288 8  -7065454.03628  21629483.242
 92  9  3 20 34 30.0020000  0  5G26G16G17G20G 3
   -483361.942 5   -378888.31923  25252525.006
   3466290.285 7   2699968.81427  22429907.973
 -12887885.794 7 -10051486.04727  22152231.022
  22546900.249 7   7201635.33327  22449613.295
  -1112533.658 8  -7087486.01428  21624102.747
 92  9  3 20 35  0.0020000  0  5G26G16G17G20G 3
   -550605.692 5   -431285.94123  25239727.922
   3531992.411 7   2751165.26727  22442410.760
 -12938803.947 7 -10091162.48427  22142541.389
  22646889.820 7   7279549.22827  22468640.945
  -1140574.765 8  -7109336.21728  21618766.510
 92  9  3 20 35 30.0020000  0  5G26G16G17G20G 3
   -617764.269 5   -483617.18824  25226947.669
   3598191.607 7   2802749.06427  22455008.740
 -12989429.136 7 -10130610.64127  22132907.620
  22747256.667 7   7357757.09927  22487739.940
  -1168383.565 8  -7131005.38828  21613474.933
 92  9  3 20 36  0.0020000  0  5G26G16G17G20G 3
   -684830.883 5   -535876.70924  25214186.615
   3664888.845 7   2854720.90827  22467700.458
 -13039756.875 7 -10169827.02427  22123330.258
  22848001.507 7   7436259.50427  22506911.339
  -1195955.266 8  -7152489.83728  21608227.986
 92  9  3 20 36 30.0020000  0  4G16G17G20G 3
   3732082.777 8   2907079.79127  22480487.533
 -13089786.034 7 -10208810.74927  22113810.038
  22949122.444 7   7515054.97927  22526154.178
  -1223287.119 8  -7173787.38328  21603026.796
 92  9  3 20 37  0.0020000  0  5G26G16G17G20G 3
    687166.15715    -43943.03531  25188713.269
   3799762.217 7   2959817.01627  22493365.856
 -13139525.122 7 -10247568.43127  22104345.091
  23050607.667 7   7594134.33027  22545466.331
  -1250387.352 8  -7194904.42128  21597869.896
 92  9  3 20 37 30.0020000  0  5G26G16G17G20G 3
    620375.868 5    -95987.22723  25176002.674
   3867924.537 7   3012930.48827  22506336.568
 -13188974.782 7 -10286100.60227  22094935.545
  23152453.334 7   7673494.50927  22564847.151
  -1277255.269 8  -7215840.45528  21592756.633
 92  9  3 20 38  0.0020000  0  5G26G16G17G20G 3
    553685.865 5   -147953.30124  25163314.293
   3936573.530 7   3066423.18627  22519400.154
 -13238129.100 7 -10324402.63027  22085581.580
  23254662.729 7   7753138.12326  22584297.237
  -1303883.817 8  -7236589.96428  21587689.542
 92  9  3 20 38 30.0020000  0  5G26G16G17G20G 3
    487099.474 5   -199838.70825  25150643.507
   4005707.130 7   3120293.50027  22532555.547
 -13286987.117 7 -10362473.78527  22076283.946
  23357233.075 7   7833063.01426  22603814.915
  -1330271.727 8  -7257151.95728  21582668.440
 92  9  3 20 39  0.0020000  0  6G26G16G17G23G20G 3
    420617.392 5   -251642.79725  25137991.752
   4075321.465 7   3174538.43027  22545803.663
 -13335550.514 7 -10400315.36327  22067043.182
   -681010.95315   -176927.55931  24950796.566
  23460159.755 7   7913265.54626  22623401.384
  -1356419.398 8  -7277526.75328  21577692.563
 92  9  3 20 39 30.0020000  0  6G26G16G17G23G20G 3
    354236.621 5   -303368.00725  25125357.715
   4145408.005 7   3229151.29427  22559139.585
 -13383825.348 7 -10437932.08127  22057857.187
   -776883.956 5   -251637.20722  24932554.410
  23563433.558 7   7993738.59026  22643053.920
  -1382331.813 8  -7297718.25428  21572761.628
 92  9  3 20 40  0.0020000  0  6G26G16G17G23G20G 3
    287959.386 5   -355012.43125  25112745.750
   4215963.843 7   3284129.84627  22572565.630
 -13431811.552 7 -10475323.88627  22048725.288
   -872682.586 5   -326285.24923  24914326.223
  23667051.120 7   8074479.47726  22662771.910
  -1408008.007 8  -7317725.66528  21567875.740
 92  9  3 20 40 30.0020000  0  6G26G16G17G23G20G 3
    221791.226 5   -406571.93425  25100152.918
   4286989.487 7   3339474.48827  22586082.148
 -13479506.241 7 -10512488.54427  22039648.730
   -968402.204 5   -400871.66724  24896107.446
  23771012.179 7   8155488.02926  22682555.052
  -1433444.013 8  -7337545.91928  21563035.684
 92  9  3 20 41  0.0020000  0  6G26G16G17G23G20G 3
    155729.229 5   -458048.65925  25087581.936
   4358476.707 7   3395178.80827  22599685.674
 -13526915.165 7 -10549430.53127  22030627.333
  -1064046.583 5   -475399.49024  24877909.109
  23875307.455 7   8236757.01226  22702401.406
  -1458644.891 8  -7357182.96328  21558239.642
 92  9  3 20 41 30.0020000  0  6G26G16G17G23G20G 3
     89771.933 5   -509443.89725  25075033.174
   4430419.904 7   3451238.40827  22613375.931
 -13574042.286 7 -10586152.94527  22021659.371
  -1159617.521 5   -549870.01224  24859722.653
  23979930.486 7   8318281.38526  22722311.170
  -1483612.873 8  -7376638.52428  21553488.498
 92  9  3 20 42  0.0020000  0  6G26G16G17G23G20G 3
     23922.781 5   -560754.77225  25062502.163
   4502816.488 7   3507651.31927  22627153.244
 -13620887.226 7 -10622655.45527  22012745.492
  -1255112.907 5   -624281.78424  24841548.372
  24084877.892 7   8400058.50026  22742281.885
  -1508347.073 8  -7395911.91728  21548782.109
 92  9  3 20 42 30.0020000  0  6G26G16G17G23G20G 3
    -41821.649 5   -611984.05625  25049990.122
   4575658.645 7   3564411.43327  22641014.783
 -13667455.411 7 -10658942.33027  22003883.957
  -1350536.388 5   -698637.47725  24823391.564
  24190141.310 7   8482081.87826  22762312.651
  -1532851.843 8  -7415006.54428  21544118.587
 92  9  3 20 43  0.0020000  0  6G26G16G17G23G20G 3
   -107457.963 5   -663129.10725  25037500.993
   4648944.105 7   3621516.96727  22654960.808
 -13713746.162 7 -10695013.01127  21995074.798
  -1445885.640 5   -772935.33125  24805247.094
  24295717.882 7   8564349.26826  22782403.441
  -1557125.454 8  -7433921.03728  21539499.492
 92  9  3 20 43 30.0020000  0  6G26G16G17G23G20G 3
   -172981.875 5   -714186.59125  25025034.432
   4722671.873 7   3678967.14927  22668990.504
 -13759758.253 7 -10730866.55227  21986318.848
  -1541157.431 5   -847172.79925  24787115.084
  24401606.225 7   8646859.58026  22802553.022
  -1581165.177 8  -7452653.28628  21534924.851
 92  9  3 20 44  0.0020000  0  6G26G16G17G23G20G 3
   -238393.586 5   -765156.57625  25012583.913
   4796836.536 7   3736757.79327  22683104.734
 -13805494.378 7 -10766505.05427  21977615.260
  -1636352.328 5   -921350.39125  24769000.581
  24507800.222 7   8729608.07626  22822761.111
  -1604973.435 8  -7471205.16828  21530394.667
 92  9  3 20 44 30.0020000  0  6G26G16G17G23G20G 3
   -303691.704 5   -816038.12525  25000157.791
   4871434.145 7   3794885.79527  22697299.626
 -13850955.846 7 -10801929.54227  21968963.972
  -1731470.306 5   -995467.99825  24750900.534
  24614295.201 7   8812591.11726  22843026.759
  -1628549.950 8  -7489576.47328  21525908.512
 92  9  3 20 45  0.0020000  0  6G26G16G17G23G20G 3
   -368876.828 5   -866831.55825  24987754.436
   4946460.009 7   3853347.50227  22711576.393
 -13896145.440 7 -10837142.17427  21960364.795
  -1826511.658 5  -1069525.94225  24732814.659
  24721085.275 7   8895804.08326  22863348.693
  -1651896.535 8  -7507768.60928  21521465.720
 92  9  3 20 45 30.0020000  0  6G26G16G17G23G20G 3
   -433944.323 5   -917533.33325  24975371.899
   5021913.042 7   3912142.05427  22725934.202
 -13941061.732 8 -10872141.84427  21951817.872
  -1921473.658 5  -1143522.08325  24714744.327
  24828168.631 7   8979245.58026  22883725.745
  -1675010.431 8  -7525779.41928  21517067.105
 92  9  3 20 46  0.0020000  0  6G26G16G17G23G20G 3
   -498892.959 6   -968142.49025  24963012.806
   5097788.763 7   3971265.98526  22740372.900
 -13985705.761 7 -10906929.36827  21943321.994
  -2016354.975 5  -1217455.32925  24696689.558
  24935540.756 7   9062912.10926  22904158.501
  -1697891.589 8  -7543608.89128  21512712.510
 92  9  3 20 46 30.0020000  0  6G26G16G17G23G20G 3
   -563721.285 6  -1018657.90925  24950674.725
   5174083.302 7   4030716.27726  22754890.377
 -14030079.301 8 -10941506.11428  21934878.048
  -2111155.380 5  -1291325.55825  24678649.731
  25043197.216 7   9146800.17826  22924644.378
  -1720540.886 8  -7561257.67428  21508402.003
 92  9  3 20 47  0.0020000  0  6G26G16G17G23G20G 3
   -628423.904 6  -1069075.41425  24938363.661
   5250796.645 7   4090492.90826  22769488.973
 -14074179.523 8 -10975869.89128  21926485.998
  -2205870.433 5  -1365129.30625  24660624.686
  25151137.229 7   9230909.21226  22945185.558
  -1742954.232 8  -7578722.60628  21504137.306
 92  9  3 20 47 30.0020000  0  6G26G16G17G23G20G 3
   -692996.836 5  -1119391.81725  24926075.877
   5327928.389 7   4150595.55226  22784167.148
 -14118004.307 8 -11010019.03128  21918146.672
  -2300496.554 5  -1438863.67125  24642618.340
  25259359.387 7   9315238.08426  22965778.579
  -1765128.831 8  -7596001.51228  21499917.489
 92  9  3 20 48  0.0020000  0  6G26G16G17G23G20G 3
   -757441.202 5  -1169608.08125  24913811.118
   5405471.557 7   4211018.80026  22798922.724
 -14161558.500 8 -11043957.34028  21909858.461
  -2395036.029 5  -1512530.59025  24624626.765
  25367856.363 7   9399781.10926  22986425.640
  -1787067.752 8  -7613096.76628  21495742.748
 92  9  3 20 48 30.0020000  0  6G26G16G17G23G20G 3
   -821755.710 6  -1219723.13925  24901572.623
   5483422.496 7   4271759.80126  22813757.314
 -14204843.072 8 -11077685.54528  21901621.514
  -2489487.742 5  -1586129.11125  24606652.360
  25476623.875 7   9484534.95026  23007123.391
  -1808770.756 8  -7630008.18528  21491613.246
 92  9  3 20 49  0.0020000  0  6G26G16G17G23G20G 3
   -885945.503 5  -1269741.05225  24889358.457
   5561771.055 7   4332810.64126  22828666.106
 -14247865.708 8 -11111209.65628  21893434.691
  -2583858.072 5  -1659664.19825  24588695.363
  25585650.887 7   9569490.97326  23027870.867
  -1830244.878 8  -7646741.25728  21487526.235
 92  9  3 20 49 30.0020000  0  6G26G16G17G23G20G 3
   -950006.679 5  -1319658.76525  24877166.479
   5640515.731 7   4394170.11726  22843650.190
 -14290625.604 8 -11144529.01128  21885297.742
  -2678143.757 5  -1733133.36825  24570752.548
  25694935.044 7   9654647.39826  23048667.018
  -1851487.710 8  -7663294.11628  21483483.893
 92  9  3 20 50  0.0020000  0  6G26G16G17G23G20G 3
  -1013934.703 5  -1369472.73225  24865000.788
   5719654.658 7   4455836.80326  22858710.036
 -14333120.961 8 -11177642.25428  21877211.210
  -2772341.286 5  -1806533.84125  24552828.449
  25804474.896 7   9740003.04226  23069512.640
  -1872496.596 8  -7679664.66728  21479486.522
 92  9  3 20 50 30.0020000  0  6G26G16G17G23G20G 3
  -1077726.482 5  -1419180.43525  24852863.249
   5799186.192 7   4517809.42926  22873845.204
 -14375350.882 8 -11210548.65328  21869174.843
  -2866448.022 5  -1879863.54725  24534921.548
  25914267.977 7   9825555.99826  23090405.355
  -1893269.268 8  -7695851.15128  21475533.878
 92  9  3 20 51  0.0020000  0  6G26G16G17G23G20G 3
  -1141377.677 5  -1468778.70625  24840749.488
   5879109.561 7   4580087.36326  22889053.150
 -14417313.948 8 -11243247.11928  21861189.743
  -2960460.817 6  -1953120.06225  24517030.820
  26024312.251 7   9911304.73426  23111346.272
  -1913803.007 8  -7711851.45828  21471626.380
 92  9  3 20 51 30.0020000  0  6G26G16G17G23G20G 3
  -1204883.887 5  -1518263.91425  24828661.959
   5959423.418 7   4642669.58026  22904335.929
 -14459008.864 8 -11275736.64128  21853255.555
  -3054375.764 6  -2026300.35225  24499159.921
  26134606.069 7   9997247.89326  23132334.610
  -1934095.402 8  -7727663.71128  21467764.407
 92  9  3 20 52  0.0020000  0  6G26G16G17G23G20G 3
  -1268243.413 5  -1567634.84825  24816607.478
   6040124.885 7   4705553.83226  22919693.333
 -14500436.221 8 -11308017.67328  21845371.824
  -3148191.899 5  -2099403.65825  24481306.436
  26245145.650 6  10083382.54826  23153368.917
  -1954145.904 8  -7743287.45928  21463949.336
 92  9  3 20 52 30.0020000  0  6G26G16G17G23G20G 3
  -1331448.266 5  -1616885.26125  24804580.128
   6121216.289 7   4768741.91826  22935124.237
 -14541590.638 8 -11340086.02128  21837540.326
  -3241902.069 6  -2172424.40625  24463472.670
  26355932.911 7  10169710.20226  23174451.190
  -1973948.066 8  -7758717.71928  21460180.756
 92  9  3 20 53  0.0020000  0  6G26G16G17G23G20G 3
  -1394495.594 5  -1666012.93525  24792584.287
   6202695.332 7   4832232.08026  22950629.766
 -14582472.271 8 -11371941.81628  21829761.112
  -3335504.478 5  -2245361.15825  24445660.566
  26466964.569 6  10256228.28726  23195579.375
  -1993500.475 8  -7773953.34428  21456459.959
 92  9  3 20 53 30.0020000  0  6G26G16G17G23G20G 3
  -1457381.701 5  -1715015.03425  24780617.826
   6284560.106 7   4896022.81726  22966208.750
 -14623080.417 8 -11403584.49428  21822033.400
  -3428996.151 6  -2318211.62625  24427868.818
  26578238.385 6  10342935.07426  23216754.206
  -2012800.951 8  -7788992.66028  21452787.048
 92  9  3 20 54  0.0020000  0  6G26G16G17G23G20G 3
  -1520099.049 5  -1763885.58225  24768681.004
   6366812.694 7   4960115.71726  22981860.218
 -14663410.201 8 -11435010.26728  21814358.860
  -3522370.052 6  -2390970.37425  24410100.696
  26689756.138 6  10429831.96926  23237974.403
  -2031843.495 8  -7803830.98628  21449163.443
 92  9  3 20 54 30.0020000  0  6G26G16G17G23G20G 3
  -1582640.097 5  -1812618.72325  24756777.634
   6449455.443 7   5024512.63426  22997586.347
 -14703456.207 8 -11466214.92328  21806738.758
  -3615619.416 6  -2463632.00225  24392356.396
  26801519.712 7  10516920.37526  23259242.881
  -2050621.770 8  -7818463.41428  21445590.138
 92  9  3 20 55  0.0020000  0  6G26G16G17G23G20G 3
  -1645005.254 5  -1861214.81725  24744910.080
   6532482.764 7   5089209.25226  23013386.166
 -14743222.378 8 -11497201.52428  21799171.586
  -3708745.723 6  -2536197.82625  24374634.610
  26913522.223 7  10604194.98026  23280555.825
  -2069137.977 8  -7832891.61928  21442067.307
 92  9  3 20 55 30.0020000  0  6G26G16G17G23G20G 3
  -1707200.005 5  -1909678.13325  24733074.641
   6615883.339 7   5154196.68326  23029256.538
 -14782716.077 8 -11527975.79428  21791656.420
  -3801755.071 6  -2608672.47125  24356936.802
  27025752.615 7  10691647.16226  23301913.659
  -2087398.900 8  -7847120.90528  21438592.190
 92  9  3 20 56  0.0020000  0  6G26G16G17G23G20G 3
  -1769218.292 5  -1958003.93625  24721272.910
   6699657.563 7   5219475.27426  23045198.651
 -14821934.558 8 -11558535.62428  21784193.497
  -3894643.010 6  -2681052.55125  24339259.255
  27138210.144 6  10779276.32126  23323313.416
  -2105400.396 8  -7861148.04728  21435166.625
 92  9  3 20 56 30.0020000  0  6G26G16G17G23G20G 3
  -1831063.844 5  -2006195.09425  24709505.016
   6783797.363 7   5285038.74726  23061209.875
 -14860884.273 8 -11588886.02128  21776781.867
  -3987412.805 6  -2753340.51725  24321604.712
  27250885.799 6  10867075.45526  23344754.612
  -2123147.090 8  -7874976.62428  21431789.182
 92  9  3 20 57  0.0020000  0  6G26G16G17G23G20G 3
  -1892737.671 5  -2054252.53825  24697768.951
   6868295.819 7   5350881.67426  23077288.145
 -14899569.279 8 -11619030.15528  21769420.574
  -4080066.942 6  -2825538.39025  24303973.926
  27363772.466 6  10955039.00926  23366237.149
  -2140641.896 8  -7888608.93528  21428460.205
 92  9  3 20 57 30.0020000  0  6G26G16G17G23G20G 3
  -1954238.722 5  -2102175.28325  24686064.385
   6953148.581 7   5417000.68026  23093435.807
 -14937990.842 8 -11648969.01528  21762108.536
  -4172604.632 6  -2897645.59125  24286365.439
  27476865.378 6  11043163.26926  23387757.342
  -2157884.865 8  -7902045.00928  21425178.781
 92  9  3 20 58  0.0020000  0  6G26G16G17G23G20G 3
  -2015564.469 5  -2149961.44025  24674392.841
   7038352.455 7   5483393.27626  23109649.780
 -14976149.898 8 -11678703.31428  21754846.903
  -4265025.014 6  -2969661.32925  24268777.789
  27590160.698 6  11131445.26026  23409316.788
  -2174875.289 8  -7915284.29228  21421945.355
 92  9  3 20 58 30.0020000  0  6G26G16G17G23G20G 3
  -2076710.799 5  -2197607.82225  24662758.200
   7123906.694 7   5550058.88926  23125930.195
 -15014043.777 8 -11708230.99728  21747635.837
  -4357323.904 6  -3041582.36225  24251213.784
  27703657.344 6  11219884.14026  23430914.795
  -2191609.892 8  -7928324.23328  21418761.261
 92  9  3 20 59  0.0020000  0  6G26G16G17G23G20G 3
  -2137671.922 5  -2245109.87225  24651158.479
   7209811.276 7   5616997.50226  23142277.364
 -15051670.144 8 -11737550.21429  21740475.342
  -4449496.816 6  -3113405.31425  24233673.190
  27817354.828 6  11308479.49626  23452550.980
  -2208084.754 8  -7941161.77628  21415626.121
 92  9  3 20 59 30.0020000  0  6G26G16G17G23G20G 3
  -2198439.603 5  -2292461.21225  24639593.720
   7296068.881 7   5684211.18726  23158692.510
 -15089024.137 8 -11766657.20429  21733366.656
  -4541536.214 6  -3185124.16025  24216158.003
  27931255.244 6  11397232.98526  23474225.613
  -2224292.808 8  -7953791.43228  21412542.215
 92  9  3 21  0  0.0020000  0  6G26G16G17G23G20G 3
  -2259008.422 5  -2339657.54625  24628068.085
   7382679.909 7   5751700.27126  23175173.959
 -15126102.327 8 -11795549.27029  21726311.037
  -4633437.531 6  -3256735.45825  24198669.722
  28045358.247 6  11486144.35126  23495939.031
  -2240230.269 8  -7966210.21128  21409509.384
 92  9  3 21  0 30.0020000  0  6G26G16G17G23G20G 3
  -2319375.953 5  -2386697.04725  24616580.401
   7469641.208 7   5819462.30226  23191721.635
 -15162905.162 8 -11824226.79029  21719307.514
  -4725199.215 6  -3328237.94825  24181208.238
  28159660.262 6  11575210.77426  23517689.110
  -2255895.774 8  -7978417.08528  21406528.480
 92  9  3 21  1  0.0020000  0  6G26G16G17G23G20G 3
  -2379534.934 5  -2433574.00425  24605134.726
   7556954.910 7   5887498.92626  23208336.901
 -15199428.775 8 -11852686.72429  21712357.619
  -4816814.920 6  -3399626.65525  24163774.377
  28274162.525 6  11664433.24226  23539478.639
  -2271284.192 8  -7990408.06528  21403599.834
 92  9  3 21  1 30.0020000  0  6G26G16G17G23G20G 3
  -2439483.498 6  -2480287.04025  24593727.902
   7644617.359 7   5955807.29526  23225019.268
 -15235672.601 8 -11880928.63629  21705460.586
  -4908282.779 6  -3470900.20825  24146369.205
  28388861.370 6  11753808.88626  23561304.409
  -2286394.019 8  -8002181.94828  21400724.466
 92  9  3 21  2  0.0020000  0  6G26G16G17G23G20G 3
  -2499220.095 6  -2526834.91625  24582359.427
   7732624.476 7   6024384.24626  23241765.662
 -15271638.603 8 -11908954.08329  21698616.939
  -4999602.679 6  -3542058.41425  24128991.969
  28503751.957 6  11843333.92325  23583167.751
  -2301225.748 8  -8013739.12328  21397901.583
 92  9  3 21  2 30.0020000  0  6G26G16G17G23G20G 3
  -2558749.757 6  -2573221.57225  24571030.688
   7820966.222 7   6093221.94126  23258576.741
 -15307334.587 8 -11936769.10729  21691824.354
  -5090780.049 6  -3613105.59825  24111641.327
  28618823.675 6  11933000.11525  23605065.373
  -2315785.492 8  -8025084.38028  21395131.198
 92  9  3 21  3  0.0020000  0  6G26G16G17G23G20G 3
  -2618069.662 5  -2619444.75825  24559741.751
   7909639.605 7   6162318.05526  23275450.988
 -15342760.707 8 -11964373.84929  21685083.051
  -5181813.310 6  -3684040.48625  24094316.728
  28734072.959 6  12022804.65925  23626997.182
  -2330072.255 8  -8036216.92428  21392412.679
 92  9  3 21  3 30.0020000  0  6G26G16G17G23G20G 3
  -2677179.360 5  -2665504.09325  24548492.644
   7998640.269 7   6231669.18826  23292387.588
 -15377919.313 8 -11991770.13629  21678392.142
  -5272702.785 6  -3754863.36725  24077020.698
  28849494.556 6  12112743.49625  23648960.998
  -2344086.609 8  -8047137.19428  21389745.988
 92  9  3 21  4  0.0020000  0  6G26G16G17G23G20G 3
  -2736073.575 6  -2711395.58225  24537284.381
   8087967.372 7   6301274.69126  23309385.778
 -15412807.599 8 -12018955.79029  21671753.418
  -5363443.686 6  -3825570.40525  24059752.652
  28965087.650 6  12202815.96225  23670957.208
  -2357824.964 8  -8057842.40629  21387131.391
 92  9  3 21  4 30.0020000  0  6G26G16G17G23G20G 3
  -2794746.444 6  -2757114.59025  24526119.698
   8177622.123 7   6371135.49526  23326446.917
 -15447422.308 8 -12045928.26629  21665166.096
  -5454030.848 6  -3896157.69025  24042514.513
  29080852.793 6  12293022.46125  23692986.810
  -2371282.249 8  -8068328.60929  21384570.569
 92  9  3 21  5  0.0020000  0  6G26G16G17G23G20G 3
  -2853192.759 6  -2802657.05025  24514998.462
   8267604.119 7   6441251.33426  23343569.322
 -15481761.126 8 -12072685.76629  21658631.911
  -5544459.713 6  -3966621.62825  24025306.587
  29196789.034 6  12383362.31525  23715048.300
  -2384454.581 8  -8078592.75729  21382064.014
 92  9  3 21  5 30.0020000  0  6G26G16G17G23G20G 3
  -2911407.115 6  -2848018.79325  24503920.399
   8357912.400 7   6511621.37326  23360754.918
 -15515821.752 8 -12099226.49329  21652149.818
  -5634726.446 6  -4036959.18925  24008129.406
  29312895.436 6  12473834.76625  23737144.398
  -2397338.564 8  -8088632.21929  21379612.182
 92  9  3 21  6  0.0020000  0  6G26G16G17G23G20G 3
  -2969388.714 6  -2893199.13825  24492887.084
   8448542.860 7   6582242.49626  23378001.537
 -15549605.975 8 -12125551.83529  21645721.278
  -5724830.348 6  -4107169.90625  23990983.069
  29429166.892 6  12564435.78325  23759269.201
  -2409934.385 8  -8098447.14529  21377215.610
 92  9  3 21  6 30.0020000  0  6G26G16G17G23G20G 3
  -3027132.065 5  -2938193.83725  24481896.589
   8539495.614 7   6653114.73126  23395308.825
 -15583110.624 8 -12151659.33529  21639345.583
  -5814767.281 6  -4177250.51825  23973868.204
  29545603.340 6  12655165.40225  23781427.468
  -2422237.800 8  -8108034.21229  21374874.122
 92  9  3 21  7  0.0020000  0  6G26G16G17G23G20G 3
  -3084635.694 6  -2983001.73925  24470954.540
   8630767.357 7   6724235.54126  23412676.999
 -15616337.218 8 -12177550.17429  21633022.093
  -5904536.162 6  -4247200.16925  23956786.282
  29662200.486 6  12746020.25725  23803614.700
  -2434248.669 8  -8117393.32529  21372588.504
 92  9  3 21  7 30.0020000  0  6G26G16G17G23G20G 3
  -3141897.906 6  -3027621.59025  24460058.793
   8722354.026 7   6795601.73826  23430104.465
 -15649287.400 8 -12203225.61629  21626751.602
  -5994136.378 6  -4317018.40825  23939736.573
  29778953.588 6  12836996.59025  23825831.391
  -2445966.862 8  -8126524.37028  21370358.180
 92  9  3 21  8  0.0020000  0  6G26G16G17G23G20G 3
  -3198914.933 6  -3072050.36425  24449210.112
   8814254.274 7   6867212.28226  23447595.046
 -15681959.335 8 -12228684.24629  21620534.803
  -6083564.261 6  -4386702.35325  23922719.787
  29895861.052 6  12928093.24825  23848078.401
  -2457389.873 8  -8135425.41628  21368184.745
 92  9  3 21  8 30.0020000  0  6G26G16G17G23G20G 3
  -3255686.052 6  -3116287.46125  24438406.545
   8906462.977 7   6939063.18926  23465141.350
 -15714355.248 8 -12253927.79829  21614369.591
  -6172820.578 6  -4456252.59525  23905735.175
  30012917.168 6  13019305.75325  23870352.502
  -2468518.393 8  -8144096.98429  21366066.501
 92  9  3 21  9  0.0020000  0  6G26G16G17G23G20G 3
  -3312204.352 6  -3160327.63125  24427650.354
   8998981.791 6   7011155.74526  23482746.156
 -15746470.898 8 -12278952.96029  21608258.493
  -6261898.484 6  -4525663.80625  23888784.247
  30130123.738 6  13110635.44325  23892657.118
  -2479346.279 8  -8152534.27829  21364006.067
 92  9  3 21  9 30.0020000  0  6G26G16G17G23G20G 3
  -3368467.249 6  -3204168.77125  24416944.450
   9091807.659 7   7083487.55526  23500409.265
 -15778306.610 8 -12303759.99229  21602200.719
  -6350796.719 6  -4594935.04625  23871866.962
  30247477.302 6  13202079.70025  23914988.411
  -2489872.612 8  -8160736.62929  21362003.142
 92  9  3 21 10  0.0020000  0  6G26G16G17G23G20G 3
  -3424466.363 6  -3247804.35625  24406289.131
   9184943.938 6   7156061.24226  23518132.175
 -15809856.741 8 -12328344.49729  21596197.124
  -6439507.684 6  -4664060.32825  23854985.298
  30364980.052 6  13293640.16725  23937348.976
  -2500090.444 8  -8168698.56529  21360058.798
 92  9  3 21 10 30.0020000  0  6G26G16G17G23G20G 3
  -3480203.371 6  -3291235.69125  24395683.090
   9278383.249 7   7228871.06526  23535914.151
 -15841125.529 8 -12352709.77029  21590246.894
  -6528033.638 6  -4733041.47925  23838139.589
  30482624.145 6  13385310.85625  23959737.071
  -2510002.263 8  -8176422.06129  21358172.575
 92  9  3 21 11  0.0020000  0  6G26G16G17G23G20G 3
  -3535675.740 6  -3334460.86225  24385125.297
   9372123.292 7   7301915.22326  23553752.635
 -15872113.273 8 -12376856.04229  21584350.325
  -6616372.700 6  -4801876.97925  23821329.107
  30600406.823 6  13477089.47525  23982148.857
  -2519607.052 8  -8183906.31329  21356344.661
 92  9  3 21 11 30.0020000  0  6G26G16G17G23G20G 3
  -3590871.720 6  -3377470.58625  24374621.684
   9466169.986 7   7375198.35626  23571648.107
 -15902810.922 8 -12400776.27129  21578508.730
  -6704514.134 6  -4870558.51525  23804555.902
  30718333.968 6  13568980.64625  24004590.099
  -2528894.674 8  -8191143.42129  21354577.054
 92  9  3 21 12  0.0020000  0  6G26G16G17G23G20G 3
  -3645791.757 6  -3420265.36125  24364171.701
   9560517.632 7   7448715.95026  23589602.584
 -15933221.812 8 -12424473.05229  21572721.884
  -6792459.050 6  -4939086.89325  23787820.276
  30836399.120 6  13660979.37825  24027056.922
  -2537866.493 8  -8198134.45129  21352869.774
 92  9  3 21 12 30.0020000  0  6G26G16G17G23G20G 3
  -3700436.376 6  -3462845.47225  24353772.885
   9655160.931 7   7522463.96226  23607614.230
 -15963348.495 8 -12447948.36729  21566988.783
  -6880208.283 6  -5007462.77525  23771122.354
  30954596.481 6  13753081.16225  24049549.804
  -2546523.986 8  -8204880.54829  21351222.726
 92  9  3 21 13  0.0020000  0  6G26G16G17G23G20G 3
  -3754805.510 6  -3505210.94425  24343427.233
   9750094.087 7   7596437.80426  23625678.793
 -15993194.384 8 -12471204.89529  21561309.435
  -6967763.359 6  -5075687.38725  23754460.929
  31072919.588 6  13845280.87825  24072066.102
  -2554868.578 8  -8211382.82329  21349635.064
 92  9  3 21 13 30.0020000  0  6G26G16G17G23G20G 3
  -3808892.371 6  -3547356.49025  24333135.702
   9845318.536 7   7670638.65926  23643798.627
 -16022755.205 8 -12494239.28129  21555683.881
  -7055117.714 6  -5143755.59825  23737838.200
  31191369.621 6  13937579.53525  24094606.850
  -2562895.323 8  -8217637.43929  21348107.503
 92  9  3 21 14  0.0020000  0  6G26G16G17G23G20G 3
  -3862692.527 6  -3589278.62025  24322895.483
   9940833.023 7   7745065.52326  23661974.375
 -16052029.485 8 -12517050.40029  21550113.288
  -7142267.866 6  -5211664.71025  23721254.067
  31309944.982 6  14029975.81925  24117171.391
  -2570600.072 8  -8223641.14529  21346641.527
 92  9  3 21 14 30.0020000  0  6G26G16G17G23G20G 3
  -3916199.656 6  -3630972.36325  24312715.877
  10036639.071 7   7819719.52926  23680205.256
 -16081012.728 8 -12539634.72729  21544597.394
  -7229207.877 6  -5279410.09425  23704711.048
  31428646.742 6  14122470.65025  24139758.745
  -2577978.184 8  -8229390.32229  21345237.660
 92  9  3 21 15  0.0020000  0  6G26G16G17G23G20G 3
  -3969408.638 6  -3672433.84225  24302588.179
  10132735.931 6   7894600.19126  23698492.687
 -16109703.347 8 -12561991.04629  21539137.485
  -7315934.016 6  -5346988.78525  23688206.730
  31547473.969 6  14215063.20425  24162370.386
  -2585026.212 8  -8234882.29829  21343896.729
 92  9  3 21 15 30.0020000  0  6G26G16G17G23G20G 3
  -4022316.918 6  -3713660.97825  24292520.549
  10229121.092 7   7969705.46726  23716834.559
 -16138100.945 8 -12584119.03429  21533733.625
  -7402443.993 6  -5414399.06125  23671744.181
  31666423.677 6  14307751.19125  24185006.653
  -2591741.988 8  -8240115.37029  21342618.745
 92  9  3 21 16  0.0020000  0  6G26G16G17G23G20G 3
  -4074923.752 6  -3754653.27325  24282509.005
  10325790.319 6   8045032.11226  23735230.104
 -16166207.193 8 -12606019.98829  21528385.490
  -7488737.671 6  -5481640.78925  23655323.280
  31785491.270 6  14400531.03725  24207664.362
  -2598126.066 8  -8245089.98729  21341403.804
 92  9  3 21 16 30.0020000  0  6G26G16G17G23G20G 3
  -4127226.215 6  -3795408.36725  24272557.571
  10422740.941 6   8120578.03026  23753679.379
 -16194022.891 8 -12627694.54329  21523092.196
  -7574813.644 6  -5548712.86825  23638943.641
  31904672.948 6  14493399.80325  24230343.816
  -2604177.172 8  -8249805.12629  21340252.673
 92  9  3 21 17  0.0020000  0  6G26G16G17G23G20G 3
  -4179219.529 6  -3835922.53825  24262663.940
  10519972.883 6   8196343.14526  23772180.767
 -16221545.251 8 -12649140.52129  21517854.860
  -7660667.192 6  -5615611.64425  23622606.271
  32023967.940 6  14586356.84125  24253043.340
  -2609891.710 8  -8254258.01229  21339165.063
 92  9  3 21 17 30.0020000  0  6G26G16G17G23G20G 3
  -4230905.509 6  -3876197.28325  24252826.585
  10617479.112 6   8272321.97926  23790735.573
 -16248778.764 8 -12670361.41729  21512672.916
  -7746300.804 6  -5682339.09725  23606310.323
  32143369.242 6  14679396.73725  24275763.918
  -2615272.342 8  -8258450.70929  21338141.511
 92  9  3 21 18  0.0020000  0  6G26G16G17G23G20G 3
  -4282282.402 6  -3916231.11925  24243052.712
  10715255.116 6   8348511.04426  23809343.160
 -16275724.689 8 -12691358.22629  21507544.807
  -7831713.940 6  -5748894.65425  23590056.046
  32262872.172 6  14772515.82025  24298506.368
  -2620318.825 8  -8262383.03629  21337181.048
 92  9  3 21 18 30.0020000  0  6G26G16G17G23G20G 3
  -4333346.660 6  -3956021.35325  24233333.209
  10813299.736 6   8424909.41825  23827999.435
 -16302381.761 8 -12712129.96829  21502472.617
  -7916903.476 6  -5815276.00225  23573845.917
  32382474.975 6  14865712.70825  24321266.369
  -2625028.473 8  -8266052.89229  21336284.290
 92  9  3 21 19  0.0020000  0  6G26G16G17G23G20G 3
  -4384097.645 6  -3995567.56825  24223676.139
  10911608.351 6   8501513.47925  23846706.567
 -16328751.893 8 -12732678.10229  21497454.803
  -8001869.446 6  -5881483.18225  23557676.577
  32502172.951 6  14958983.78825  24344042.993
  -2629401.837 8  -8269460.70929  21335451.622
 92  9  3 21 19 30.0020000  0  6G26G16G17G23G20G 3
  -4434525.917 6  -4034862.25425  24214079.015
  11010184.838 6   8578326.30625  23865465.287
 -16354828.735 8 -12752997.70729  21492492.777
  -8086603.282 6  -5947509.45425  23541551.992
  32621969.403 6  15052331.58025  24366839.328
  -2633430.908 8  -8272600.24929  21334685.025
 92  9  3 21 20  0.0020000  0  6G26G16G17G23G20G 3
  -4484629.261 6  -4073903.77425  24204542.651
  11109026.567 6   8655345.79125  23884274.579
 -16380612.534 8 -12773088.96429  21487586.311
  -8171103.524 6  -6013353.69025  23525473.363
  32741861.253 6  15145753.70325  24389655.030
  -2637114.668 8  -8275470.70728  21333983.972
 92  9  3 21 20 30.0020000  0  6G26G16G17G23G20G 3
  -4534406.926 6  -4112691.47025  24195073.078
  11208129.200 6   8732568.58625  23903134.685
 -16406105.166 8 -12792953.33129  21482734.923
  -8255370.047 6  -6079015.85125  23509437.788
  32861843.186 6  15239246.04825  24412487.320
  -2640453.292 8  -8278072.24528  21333348.847
 92  9  3 21 21  0.0020000  0  6G26G16G17G23G20G 3
  -4583852.749 6  -4151220.64225  24185663.273
  11307493.562 6   8809995.34825  23922042.985
 -16431303.023 8 -12812588.00129  21477940.039
  -8339397.396 6  -6144491.60525  23493446.636
  32981915.794 6  15332809.00825  24435336.320
  -2643441.893 8  -8280401.02228  21332780.045
 92  9  3 21 21 30.0020000  0  6G26G16G17G23G20G 3
  -4632960.167 6  -4189486.11725  24176318.600
  11407121.445 6   8887627.40425  23941002.781
 -16456201.818 8 -12831989.64929  21473201.883
  -8423179.537 6  -6209776.31126  23477503.532
  33102080.067 6  15426443.42925  24458202.838
  -2646074.308 8  -8282452.25928  21332279.219
 92  9  3 21 22  0.0020000  0  6G26G16G17G23G20G 3
  -4681714.889 6  -4227476.70225  24167041.733
  11507021.151 6   8965471.29525  23960009.338
 -16480790.578 8 -12851149.70929  21468522.521
  -8506703.375 6  -6274859.69026  23461609.404
  33222344.517 6  15520155.95425  24481087.366
  -2648338.359 8  -8284216.45028  21331848.327
 92  9  3 21 22 30.0020000  0  6G26G16G17G23G20G 3
  -4730115.228 6  -4265191.19525  24157829.235
  11607189.217 6   9043524.30925  23979072.138
 -16505069.694 8 -12870068.48929  21463902.400
  -8589967.791 6  -6339741.00526  23445764.589
  33342705.591 6  15613943.64725  24503991.259
  -2650232.981 8  -8285692.77528  21331487.820
 92  9  3 21 23  0.0020000  0  6G26G16G17G23G20G 3
  -4778160.142 6  -4302628.72925  24148687.579
  11707621.726 6   9121783.36625  23998184.860
 -16529040.266 8 -12888746.84629  21459340.936
  -8672971.927 6  -6404419.45526  23429968.309
  33463158.850 6  15707803.26025  24526912.411
  -2651758.761 8  -8286881.70028  21331197.311
 92  9  3 21 23 30.0020000  0  6G26G16G17G23G20G 3
  -4825851.148 6  -4339790.47325  24139613.032
  11808312.534 6   9200243.71125  24017345.078
 -16552707.492 8 -12907188.82529  21454836.775
  -8755718.503 6  -6468897.20126  23414223.641
  33583696.699 6  15801728.74525  24549851.334
  -2652917.864 8  -8287784.89328  21330976.761
 92  9  3 21 24  0.0020000  0  6G26G16G17G23G20G 3
  -4873187.419 6  -4376675.86225  24130603.104
  11909257.683 6   9278902.21825  24036553.492
 -16576072.295 8 -12925395.14729  21450390.664
  -8838206.922 6  -6533173.80926  23398526.079
  33704314.941 6  15895716.87825  24572805.288
  -2653710.127 8  -8288402.25928  21330825.787
 92  9  3 21 24 30.0020000  0  6G26G16G17G23G20G 3
  -4920167.964 6  -4413284.00925  24121664.517
  12010451.834 6   9357754.77025  24055808.900
 -16599136.494 8 -12943367.23729  21446001.703
  -8920437.287 6  -6597249.31526  23382876.652
  33825008.627 6  15989763.85325  24595771.581
  -2654136.065 8  -8288734.14528  21330744.994
 92  9  3 21 25  0.0020000  0  6G26G16G17G23G20G 3
  -4966792.405 6  -4449614.67625  24112793.210
  12111891.189 6   9436798.40225  24075112.238
 -16621901.967 8 -12961106.56029  21441669.540
  -9002409.641 6  -6661123.81026  23367277.980
  33945773.053 6  16083865.87225  24618752.204
  -2654196.638 8  -8288781.34428  21330733.343
 92  9  3 21 25 30.0020000  0  6G26G16G17G23G20G 3
  -5013060.872 6  -4485667.99725  24103986.819
  12213570.329 6   9516028.85825  24094460.808
 -16644371.735 8 -12978615.44929  21437393.754
  -9084124.924 7  -6724797.97426  23351727.744
  34066602.124 6  16178018.32425  24641745.804
  -2653892.817 8  -8288544.60728  21330790.850
 92  9  3 21 26  0.0020000  0  6G26G16G17G23G20G 3
  -5058972.746 6  -4521443.41725  24095250.906
  12315484.773 6   9595442.68825  24113856.583
 -16666547.666 8 -12995895.38329  21433173.625
  -9165582.836 6  -6788271.58726  23336226.816
  34187491.704 6  16272217.94225  24664750.511
  -2653224.643 8  -8288023.95128  21330918.333
 92  9  3 21 26 30.0020000  0  6G26G16G17G23G20G 3
  -5104523.332 6  -4556937.33925  24086582.119
  12417633.387 6   9675038.96825  24133294.648
 -16688427.694 8 -13012944.74329  21429009.977
  -9246779.944 6  -6851541.96826  23320776.031
  34308440.259 6  16366463.39725  24687767.468
  -2652189.156 8  -8287217.07328  21331115.225
 92  9  3 21 27  0.0020000  0  6G26G16G17G23G20G 3
  -5149707.918 6  -4592146.07725  24077983.683
  12520015.969 6   9754817.57925  24152776.104
 -16710009.575 8 -13029761.77929  21424902.198
  -9327711.832 6  -6914605.71326  23305375.146
  34429447.090 6  16460754.38525  24710793.174
  -2650782.320 8  -8286120.83028  21331383.180
 92  9  3 21 27 30.0020000  0  6G26G16G17G23G20G 3
  -5194524.764 6  -4627068.23625  24069456.772
  12622629.887 6   9834776.43025  24172304.929
 -16731293.815 8 -13046346.88529  21420852.190
  -9408377.177 7  -6977461.72926  23290026.041
  34550508.740 6  16555088.01625  24733829.669
  -2649003.688 8  -8284734.88628  21331721.700
 92  9  3 21 28  0.0030000  0  6G26G16G17G23G20G 3
  -5238970.575 6  -4661701.29725  24060998.188
  12725477.722 6   9914917.56025  24191879.110
 -16752279.086 8 -13062699.03029  21416859.436
  -9488775.208 7  -7040109.48426  23274726.630
  34671628.061 6  16649466.60025  24756878.261
  -2646849.249 8  -8283056.10028  21332131.283
 92  9  3 21 28 30.0030000  0  6G26G16G17G23G20G 3
  -5283037.497 6  -4696039.13525  24052610.952
  12828552.700 6   9995235.71825  24211489.746
 -16772961.409 8 -13078815.11129  21412923.601
  -9568895.939 7  -7102541.13626  23259480.079
  34792796.910 5  16743883.80425  24779935.379
  -2644315.324 8  -8281081.59928  21332613.752
 92  9  3 21 29  0.0030000  0  6G26G16G17G23G20G 3
  -5326724.147 6  -4730080.60025  24044299.107
  12931856.529 6  10075732.15325  24231144.485
 -16793341.108 8 -13094695.37529  21409045.528
  -9648740.050 7  -7164757.23326  23244284.868
  34914016.923 6  16838340.81525  24803003.248
  -2641399.825 8  -8278809.78228  21333168.543
 92  9  3 21 29 30.0030000  0  6G26G16G17G23G20G 3
  -5370021.518 6  -4763818.77325  24036060.049
  13035392.701 6  10156409.63425  24250850.092
 -16813411.997 8 -13110335.01629  21405226.221
  -9728298.927 7  -7226751.09326  23229144.837
  35035291.372 5  16932840.28725  24826081.558
  -2638095.118 8  -8276234.69028  21333797.508
 92  9  3 21 30  0.0030000  0  6G26G16G17G23G20G 3
  -5412927.421 6  -4797251.88025  24027894.319
  13139158.773 6  10237266.29425  24270598.853
 -16833174.352 8 -13125734.24629  21401465.565
  -9807571.075 7  -7288521.54026  23214060.830
  35156617.351 6  17027379.90125  24849171.157
  -2634399.828 8  -8273355.24628  21334500.234
 92  9  3 21 30 30.0030000  0  6G26G16G17G23G20G 3
  -5455437.172 6  -4830376.31925  24019802.495
  13243155.092 6  10318302.33925  24290385.266
 -16852625.084 8 -13140890.64829  21397764.314
  -9886552.175 7  -7350065.18726  23199031.997
  35277994.855 5  17121959.63525  24872268.137
  -2630309.750 8  -8270168.15528  21335278.784
 92  9  3 21 31  0.0030000  0  6G26G16G17G23G20G 3
  -5497542.977 6  -4863185.96725  24011792.413
  13347383.908 6  10399519.53225  24310219.857
 -16871758.957 8 -13155800.14329  21394123.267
  -9965235.102 7  -7411376.46326  23184057.759
  35399425.752 5  17216581.04025  24895374.092
  -2625818.575 8  -8266668.54828  21336133.869
 92  9  3 21 31 30.0030000  0  6G26G16G17G23G20G 3
  -5539241.832 6  -4895678.50225  24003859.848
  13451842.291 6  10480915.63625  24330099.901
 -16890576.001 8 -13170462.74829  21390542.558
 -10043617.934 7  -7472453.91126  23169142.237
  35520907.321 5  17311241.85025  24918490.842
  -2620924.488 8  -8262854.96828  21337065.268
 92  9  3 21 32  0.0030000  0  6G26G16G17G23G20G 3
  -5580529.412 6  -4927850.61625  23996002.386
  13556530.488 6  10562490.79825  24350021.174
 -16909074.126 8 -13184876.86629  21387022.512
 -10121696.375 7  -7533294.20226  23154284.302
  35642439.081 5  17405941.85925  24941617.305
  -2615623.828 8  -8258724.58028  21338073.930
 92  9  3 21 32 30.0030000  0  6G26G16G17G23G20G 3
  -5621402.764 6  -4959699.91825  23988223.874
  13661447.045 6  10644243.93025  24369985.969
 -16927252.828 8 -13199042.07429  21383562.898
 -10199468.484 7  -7593895.78026  23139484.291
  35764018.417 5  17500678.79225  24964755.284
  -2609914.599 8  -8254275.84428  21339160.438
 92  9  3 21 33  0.0030000  0  6G26G16G17G23G20G 3
  -5661857.124 6  -4991222.77125  23980526.066
  13766591.416 6  10726174.54625  24389994.890
 -16945109.256 8 -13212956.15629  21380165.058
 -10276930.310 7  -7654255.55226  23124744.472
  35885644.712 5  17595452.46525  24987900.774
  -2603793.485 8  -8249506.14828  21340325.679
 92  9  3 21 33 30.0030000  0  6G26G16G17G23G20G 3
  -5701892.817 6  -5022419.35325  23972905.985
  13871958.423 6  10808278.67525  24410044.228
 -16962646.932 8 -13226621.86429  21376827.650
 -10354082.762 7  -7714374.27026  23110063.949
  36007312.158 5  17690258.07525  25011053.744
  -2597261.501 8  -8244416.29628  21341568.452
 92  9  3 21 34  0.0030000  0  6G26G16G17G23G20G 3
  -5741500.942 6  -5053282.79025  23965368.813
  13977552.681 6  10890559.87425  24430137.546
 -16979858.763 8 -13240033.66529  21373552.598
 -10430916.729 7  -7774244.83726  23095442.061
  36129025.317 5  17785099.38725  25034213.121
  -2590309.877 8  -8238999.44928  21342891.609
 92  9  3 21 34 30.0030000  0  6G26G16G17G23G20G 3
  -5780678.954 6  -5083811.09725  23957911.597
  14083371.568 6  10973016.11825  24450273.522
 -16996744.473 8 -13253191.35029  21370339.522
 -10507430.488 7  -7833865.87926  23080881.489
  36250781.405 5  17879974.12125  25057382.301
  -2582937.749 8  -8233254.94028  21344294.721
 92  9  3 21 35  0.0030000  0  6G26G16G17G23G20G 3
  -5819424.140 6  -5114002.09425  23950538.907
  14189413.476 6  11055646.08625  24470453.651
 -17013303.573 8 -13266094.53429  21367188.173
 -10583621.977 7  -7893235.79026  23066382.923
  36372577.649 5  17974880.16925  25080559.409
  -2575142.766 8  -8227180.93028  21345777.755
 92  9  3 21 35 30.0030000  0  6G26G16G17G23G20G 3
  -5857733.770 6  -5143853.74725  23943248.891
  14295675.260 6  11138447.47825  24490675.769
 -17029536.304 8 -13278743.40229  21364098.804
 -10659489.454 7  -7952353.24026  23051945.464
  36494411.329 5  18069815.35125  25103742.696
  -2566924.129 8  -8220776.78928  21347341.666
 92  9  3 21 36  0.0030000  0  6G26G16G17G23G20G 3
  -5895604.396 6  -5173363.30825  23936044.847
  14402155.833 6  11221419.26025  24510938.552
 -17045441.315 8 -13291136.90329  21361071.948
 -10735030.221 7  -8011216.09326  23037570.560
  36616280.862 5  18164778.50925  25126934.676
  -2558278.394 8  -8214039.85828  21348986.835
 92  9  3 21 36 30.0030000  0  6G26G16G17G23G20G 3
  -5933034.267 6  -5202529.41125  23928921.503
  14508852.523 5  11304559.49225  24531240.665
 -17061018.422 8 -13303274.89029  21358107.579
 -10810242.410 7  -8069822.93226  23023258.191
  36738183.333 5  18259767.26525  25150134.624
  -2549205.185 8  -8206969.82728  21350713.412
 92  9  3 21 37  0.0030000  0  6G26G16G17G23G20G 3
  -5970019.116 6  -5231348.73825  23921883.087
  14615764.831 6  11387867.76525  24551584.606
 -17076266.198 8 -13315156.26229  21355205.897
 -10885122.548 7  -8128171.03826  23009009.113
  36860117.642 5  18354780.90025  25173338.483
  -2539701.083 8  -8199564.03228  21352521.378
 92  9  3 21 37 30.0030000  0  6G26G16G17G23G20G 3
  -6006556.788 6  -5259819.62825  23914930.624
  14722890.332 6  11471342.14825  24571967.165
 -17091184.725 8 -13326781.08229  21352367.394
 -10959669.071 7  -8186259.16826  22994822.744
  36982081.112 5  18449817.25525  25196545.684
  -2529764.718 8  -8191821.41828  21354412.467
 92  9  3 21 38  0.0030000  0  6G26G16G17G23G20G 3
  -6042648.200 6  -5287942.76925  23908063.274
  14830223.674 5  11554978.45725  24592392.872
 -17105776.886 8 -13338151.58129  21349589.887
 -11033883.332 7  -8244088.39726  22980700.092
  37104067.641 5  18544871.54025  25219757.641
  -2519397.606 8  -8183743.15328  21356385.131
 92  9  3 21 38 30.0030000  0  6G26G16G17G23G20G 3
  -6078287.784 6  -5315713.85425  23901281.706
  14937765.860 6  11638777.52025  24612858.190
 -17120039.427 8 -13349265.24029  21346876.347
 -11107760.152 7  -8301654.69126  22966641.813
  37226077.772 5  18639944.22025  25242974.973
  -2508595.274 8  -8175325.75828  21358441.298
 92  9  3 21 39  0.0030000  0  6G26G16G17G23G20G 3
  -6113469.866 6  -5343128.42025  23894585.838
  15045517.632 6  11722739.90125  24633363.485
 -17133969.323 8 -13360119.69829  21344225.708
 -11181294.712 7  -8358954.28326  22952648.651
  37348111.917 5  18735035.60925  25266198.185
  -2497353.018 8  -8166565.54928  21360580.446
 92  9  3 21 39 30.0030000  0  6G26G16G17G23G20G 3
  -6148193.124 6  -5370185.51425  23887978.131
  15153475.209 6  11806862.61625  24653907.592
 -17147567.529 8 -13370715.68629  21341638.294
 -11254485.939 7  -8415986.35127  22938721.026
  37470166.315 5  18830142.88325  25289422.366
  -2485670.354 8  -8157462.18928  21362803.179
 92  9  3 21 40  0.0030000  0  6G26G16G17G23G20G 3
  -6182462.437 6  -5396888.86625  23881456.346
  15261629.597 6  11891138.71425  24674492.443
 -17160840.922 8 -13381058.58829  21339112.288
 -11327339.695 7  -8472755.45127  22924857.760
  37592231.322 5  18925258.22125  25312652.540
  -2473552.983 8  -8148020.06728  21365109.223
 92  9  3 21 40 30.0030000  0  6G26G16G17G23G20G 3
  -6216279.481 6  -5423239.78125  23875020.746
  15369974.456 6  11975563.22025  24695108.404
 -17173793.510 8 -13391151.48629  21336647.537
 -11399858.033 7  -8529263.17727  22911057.695
  37714300.157 5  19020376.69225  25335881.964
  -2461003.790 8  -8138241.47628  21367497.349
 92  9  3 21 41  0.0030000  0  6G26G16G17G23G20G 3
  -6249639.417 6  -5449234.50025  23868673.446
  15478510.911 6  12060137.03825  24715762.536
 -17186421.997 8 -13400991.86329  21334244.290
 -11472035.841 7  -8585505.58627  22897322.681
  37836373.605 5  19115498.68525  25359111.847
  -2448017.925 8  -8128122.61728  21369968.369
 92  9  3 21 41 30.0030000  0  6G26G16G17G23G20G 3
  -6282537.947 6  -5474869.69825  23862413.097
  15587237.827 6  12144859.23325  24736452.603
 -17198724.523 8 -13410578.23829  21331903.299
 -11543869.872 7  -8641480.09827  22883654.055
  37958450.413 5  19210623.32625  25382342.278
  -2434592.283 8  -8117661.09428  21372523.160
 92  9  3 21 42  0.0030000  0  6G26G16G17G23G20G 3
  -6314974.964 6  -5500145.27825  23856240.129
  15696150.761 6  12229726.43125  24757176.514
 -17210703.033 8 -13419912.12329  21329623.630
 -11615360.414 7  -8697186.95627  22870048.804
  38080525.888 5  19305746.89425  25405572.025
  -2420727.521 8  -8106857.38828  21375161.154
 92  9  3 21 42 30.0030000  0  6G26G16G17G23G20G 3
  -6346947.264 6  -5525058.74825  23850156.083
  15805249.030 6  12314737.99925  24777936.082
 -17222356.701 8 -13428992.89829  21327406.313
 -11686504.910 7  -8752624.18527  22856510.720
  38202598.244 5  19400868.06425  25428801.894
  -2406421.578 8  -8095709.89928  21377883.519
 92  9  3 21 43  0.0030000  0  6G26G16G17G23G20G 3
  -6378446.590 6  -5549603.66525  23844161.804
  15914536.162 6  12399896.73425  24798733.529
 -17233679.131 8 -13437815.56329  21325251.857
 -11757295.478 7  -8807785.60227  22843039.608
  38324670.782 5  19495989.33425  25452032.039
  -2391666.908 8  -8084212.76828  21380691.595
 92  9  3 21 43 30.0030000  0  6G26G16G17G23G20G 3
  -6409472.421 6  -5573779.61525  23838257.009
  16024007.258 6  12485198.83525  24819562.717
 -17244672.499 8 -13446381.81529  21323159.727
 -11827732.738 7  -8862671.74927  22829635.371
  38446738.675 5  19591107.02425  25475262.948
  -2376463.918 8  -8072366.27028  21383584.739
 92  9  3 21 44  0.0030000  0  6G26G16G17G23G20G 3
  -6440026.190 6  -5597587.72225  23832443.333
  16133657.152 6  12570640.25125  24840428.224
 -17255340.076 8 -13454694.20029  21321129.097
 -11897817.696 7  -8917283.35627  22816298.635
  38568796.469 5  19686216.77325  25498485.654
  -2360814.417 8  -8060171.85428  21386562.970
 92  9  3 21 44 30.0030000  0  6G26G16G17G23G20G 3
  -6470104.973 6  -5621025.74725  23826721.025
  16243484.971 6  12656220.30025  24861328.938
 -17265680.785 8 -13462751.89629  21319161.291
 -11967548.140 7  -8971618.71127  22803030.046
  38690842.451 5  19781317.35825  25521713.371
  -2344716.431 8  -8047627.97928  21389626.410
 92  9  3 21 45  0.0030000  0  6G26G16G17G23G20G 3
  -6499706.653 6  -5644091.94725  23821088.226
  16353487.995 6  12741936.89125  24882261.491
 -17275694.598 8 -13470554.85829  21317255.739
 -12036922.144 7  -9025676.33927  22789828.192
  38812874.253 5  19876406.90825  25544933.471
  -2328168.186 8  -8034733.25128  21392775.401
 92  9  3 21 45 30.0030000  0  6G26G16G17G23G20G 3
  -6528818.526 6  -5666776.47925  23815548.225
  16463674.639 6  12827796.58225  24903231.435
 -17285370.565 8 -13478094.56629  21315414.825
 -12105927.742 7  -9079446.90027  22776697.160
  38934899.283 5  19971491.17225  25568151.778
  -2311158.330 8  -8021478.81228  21396011.618
 92  9  3 21 46  0.0030000  0  6G26G16G17G23G20G 3
  -6557441.554 6  -5689080.12225  23810101.667
  16574039.796 6  12913795.27425  24924233.974
 -17294711.806 8 -13485373.44829  21313637.463
 -12174566.045 7  -9132931.23927  22763636.066
  39056912.156 5  20066565.98525  25591370.677
  -2293688.001 8  -8007865.60428  21399336.187
 92  9  3 21 46 30.0030000  0  6G26G16G17G23G20G 3
  -6585570.180 6  -5710998.54025  23804748.607
  16684584.002 5  12999933.62725  24945268.505
 -17303714.922 8 -13492388.85229  21311924.121
 -12242832.425 7  -9186125.78527  22750645.356
  39178913.149 5  20161631.49925  25614588.080
  -2275753.078 8  -7993890.31428  21402748.776
 92  9  3 21 47  0.0030000  0  6G26G16G17G23G20G 3
  -6613204.366 6  -5732531.66125  23799489.687
  16795303.709 5  13086208.62525  24966340.515
 -17312381.606 8 -13499142.10729  21310275.003
 -12310726.982 7  -9239030.58927  22737724.746
  39300898.013 5  20256684.52025  25637801.826
  -2257353.872 8  -7979553.28028  21406250.149
 92  9  3 21 47 30.0030000  0  6G26G16G17G23G20G 3
  -6640344.693 6  -5753679.94825  23794324.993
  16906194.150 5  13172616.65825  24987442.704
 -17320714.010 8 -13505634.89029  21308689.341
 -12378250.079 7  -9291645.93627  22724875.127
  39422862.057 5  20351721.22225  25661012.559
  -2238491.352 8  -7964855.20828  21409839.575
 92  9  3 21 48  0.0030000  0  6G26G16G17G23G20G 3
  -6666983.026 6  -5774437.06625  23789254.952
  17017258.782 5  13259160.50425  25008573.904
 -17328706.802 8 -13511863.03729  21307168.163
 -12445394.755 7  -9343966.40927  22712098.352
  39544807.913 5  20446743.84025  25684217.585
  -2219158.772 8  -7949790.87128  21413518.171
 92  9  3 21 48 30.0030000  0  6G26G16G17G23G20G 3
  -6693123.140 6  -5794805.97025  23784280.776
  17128489.692 5  13345833.87425  25029739.946
 -17336365.733 8 -13517831.03129  21305710.883
 -12512165.454 7  -9395995.48827  22699392.381
  39666727.639 5  20541746.03025  25707418.742
  -2199360.603 8  -7934363.72528  21417285.713
 92  9  3 21 49  0.0030000  0  6G26G16G17G23G20G 3
  -6718758.377 6  -5814781.47825  23779402.662
  17239890.222 5  13432639.41125  25050939.465
 -17343685.647 8 -13523534.84529  21304318.077
 -12578555.365 7  -9447727.84927  22686758.873
  39788623.581 5  20636729.77025  25730614.655
  -2179090.454 8  -7918568.81828  21421143.140
 92  9  3 21 49 30.0030000  0  6G26G16G17G23G21G 3
  -6743882.912 6  -5834359.02225  23774622.580
  17351460.936 6  13519577.57225  25072170.834
 -17350662.999 8 -13528971.75629  21302990.477
 -12644559.228 7  -9499159.39627  22674198.398
   -213080.84215   -177546.89831  25943800.000
  -2158343.397 8  -7902402.29128  21425091.129
 92  9  3 21 50  0.0030000  0  6G26G16G17G23G21G 3
  -6768490.538 6  -5853533.82025  23769939.285
  17463204.350 6  13606650.31925  25093435.963
 -17357292.238 8 -13534137.37729  21301728.778
 -12710170.820 7  -9550285.24927  22661712.743
   -311277.423 5   -254063.04721  25925111.775
  -2137113.882 8  -7885859.81728  21429131.283
 92  9  3 21 50 30.0030000  0  6G26G16G17G23G21G 3
  -6792580.101 6  -5872304.85825  23765355.319
  17575117.962 6  13693855.62425  25114731.795
 -17363574.613 8 -13539032.73629  21300533.398
 -12775389.254 7  -9601104.78727  22649301.634
   -409376.329 5   -330503.63621  25906441.411
  -2115400.840 8  -7868940.57028  21433262.573
 92  9  3 21 51  0.0030000  0  6G26G16G17G23G21G 3
  -6816155.257 6  -5890675.09925  23760868.402
  17687193.501 6  13781187.16825  25136056.301
 -17369516.168 8 -13543662.51529  21299402.659
 -12840219.308 7  -9651621.66427  22636965.005
   -507381.867 5   -406871.23321  25887793.313
  -2093209.646 8  -7851648.73528  21437485.774
 92  9  3 21 51 30.0030000  0  6G26G16G17G23G21G 3
  -6839213.124 6  -5908642.27625  23756480.547
  17799429.875 6  13868644.06425  25157413.031
 -17375115.971 8 -13548025.99129  21298337.309
 -12904658.422 7  -9701833.91527  22624702.203
   -605291.108 5   -483164.16721  25869158.889
  -2070537.775 8  -7833982.36028  21441800.470
 92  9  3 21 52  0.0030000  0  6G26G16G17G23G21G 3
  -6861752.662 6  -5926205.55225  23752193.083
  17911824.490 6  13956224.17425  25178803.083
 -17380373.982 8 -13552123.13529  21297336.151
 -12968705.596 7  -9751740.76627  22612515.124
   -703102.510 5   -559381.41321  25850544.723
  -2047384.215 8  -7815940.61328  21446207.001
 92  9  3 21 52 30.0030000  0  6G26G16G17G23G21G 3
  -6883769.647 6  -5943361.62825  23748001.891
  18024377.373 6  14043927.67025  25200223.120
 -17385287.541 8 -13555951.87729  21296401.469
 -13032356.414 7  -9801338.76127  22600402.631
   -800812.155 5   -635519.84021  25831952.741
  -2023745.812 8  -7797521.09128  21450705.029
 92  9  3 21 53  0.0030000  0  6G26G16G17G23G21G 3
  -6905263.838 6  -5960110.33325  23743910.577
  18137084.633 6  14131751.44225  25221669.319
 -17389859.110 8 -13559514.14129  21295531.890
 -13095611.282 7  -9850628.22127  22588365.182
   -898420.011 5   -711577.49221  25813381.506
  -1999623.154 8  -7778724.22828  21455295.069
 92  9  3 21 53 30.0030000  0  6G26G16G17G23G21G 3
  -6926233.851 6  -5976450.59525  23739919.263
  18249943.765 6  14219693.56725  25243145.423
 -17394088.454 8 -13562809.71729  21294726.915
 -13158469.079 7  -9899608.28127  22576403.642
   -995924.330 5   -787554.61622  25794823.502
  -1975015.092 8  -7759549.11828  21459977.957
 92  9  3 21 54  0.0030000  0  6G26G16G17G23G21G 3
  -6946675.253 6  -5992378.97825  23736030.411
  18362955.505 6  14307754.65525  25264652.550
 -17397973.047 8 -13565836.68129  21293988.059
 -13220925.702 7  -9948275.74827  22564518.380
  -1093320.977 5   -863447.97022  25776288.652
  -1949917.968 8  -7739992.91327  21464753.360
 92  9  3 21 54 30.0030000  0  6G26G16G17G23G21G 3
  -6966584.181 6  -6007892.40425  23732241.865
  18476119.337 6  14395934.14125  25286185.537
 -17401511.165 8 -13568593.65029  21293314.954
 -13282978.185 8  -9996628.29227  22552711.130
  -1190606.460 5   -939254.55122  25757775.348
  -1924328.876 8  -7720053.37927  21469622.829
 92  9  3 21 55  0.0030000  0  6G26G16G17G23G21G 3
  -6985958.387 6  -6022989.17825  23728554.683
  18589433.650 5  14484230.94825  25307747.217
 -17404701.904 8 -13571079.93629  21292708.034
 -13344624.125 7 -10044664.05827  22540980.094
  -1287777.806 5  -1014972.33622  25739287.904
  -1898245.846 8  -7699728.94527  21474585.875
 92  9  3 21 55 30.0030000  0  5G26G16G17G23G 3
  -7004798.783 6  -6037669.98825  23724969.637
  18702893.878 5  14572641.43925  25329337.305
 -17407547.940 8 -13573297.62629  21292166.050
 -13405864.356 7 -10092383.67927  22529325.612
  -1871670.421 8  -7679020.82227  21479643.503
 92  9  3 21 56  0.0030000  0  5G26G16G17G23G 3
  -7023102.285 6  -6051932.45825  23721486.982
  18816499.698 5  14661165.38025  25350956.850
 -17410047.528 8 -13575245.36429  21291690.758
 -13466696.418 7 -10139785.25227  22517750.146
  -1844600.181 8  -7657927.12827  21484794.975
 92  9  3 21 56 30.0030000  0  5G26G16G17G23G 3
  -7040866.439 6  -6065774.65025  23718106.705
  18930249.442 5  14749801.44825  25372605.459
 -17412199.998 8 -13576922.60229  21291281.433
 -13527118.330 8 -10186867.21728  22506252.696
  -1817033.232 8  -7636446.41627  21490040.752
 92  9  3 21 57  0.0030000  0  5G26G16G17G23G 3
  -7058089.770 6  -6079195.40625  23714829.912
  19044140.970 5  14838548.02525  25394272.047
 -17414005.302 8 -13578329.33629  21290937.601
 -13587128.261 7 -10233628.15528  22494833.043
  -1788968.474 8  -7614577.77427  21495381.616
 92  9  3 21 57 30.0030000  0  5G26G16G17G23G 3
  -7074773.852 6  -6092195.97125  23711655.613
  19158168.997 5  14927400.92725  25415967.776
 -17415466.792 8 -13579468.15829  21290659.634
 -13646728.310 7 -10280069.72228  22483491.081
  -1760408.080 8  -7592322.92627  21500816.177
 92  9  3 21 58  0.0030000  0  6G26G16G17G23G21G 3
  -7090912.156 6  -6104771.26725  23708584.064
  19272336.368 5  15016362.40025  25437693.662
 -17416579.534 8 -13580335.22829  21290447.977
 -13705912.258 7 -10326187.04328  22472229.100
    -75528.44015    -72662.00231  25628803.298
  -1731346.336 8  -7569677.42127  21506346.766
 92  9  3 21 58 30.0030000  0  6G26G16G17G23G21G 3
  -7106506.674 6  -6116922.83125  23705615.976
  19386636.873 5  15105427.67025  25459447.040
 -17417346.900 8 -13580933.17529  21290301.620
 -13764682.553 7 -10371982.04128  22461045.113
   -171863.215 5   -147727.78622  25610475.164
  -1701785.779 8  -7546643.25627  21511971.960
 92  9  3 21 59  0.0030000  0  5G26G17G23G21G 3
  -7121553.099 6  -6128647.28725  23702752.286
 -17417765.916 8 -13581259.67929  21290221.806
 -13823034.755 7 -10417451.25028  22449941.099
   -268069.544 5   -222693.61924  25592170.599
  -1671722.445 8  -7523217.30527  21517692.854
 92  9  3 21 59 30.0030000  0  6G26G16G17G23G21G 3
  -7136051.488 6  -6139944.70325  23699994.401
     38206.00715     41675.94831  25503043.299
 -17417838.448 8 -13581316.19029  21290208.167
 -13880969.186 8 -10462594.94428  22438916.739
   -364147.385 5   -297559.34525  25573886.352
  -1641156.848 8  -7499399.94427  21523509.175
 92  9  3 22  0  0.0030000  0  6G26G16G17G23G21G 3
  -7150002.427 6  -6150815.56125  23697338.533
    152898.565 5    131050.11521  25524867.414
 -17417566.631 8 -13581104.37229  21290259.993
 -13938486.770 7 -10507413.77528  22427971.827
   -460097.006 5   -372325.15925  25555624.771
  -1610090.110 8  -7475192.10827  21529420.742
 92  9  3 22  0 30.0030000  0  6G26G16G17G23G21G 3
  -7163395.952 6  -6161252.07225  23694791.518
    267724.144 5    220524.54823  25546714.364
 -17416941.632 8 -13580617.36629  21290378.397
 -13995577.361 7 -10551899.91428  22417107.661
   -555907.944 5   -446982.90725  25537392.293
  -1578512.814 8  -7450586.44627  21535429.810
 92  9  3 22  1  0.0030000  0  6G26G16G17G23G21G 3
  -7176234.664 6  -6171256.21425  23692346.890
    382676.289 6    310097.51824  25568587.389
 -17415968.011 8 -13579858.70029  21290563.810
 -14052244.275 7 -10596055.91728  22406324.406
   -651583.164 6   -521534.86625  25519185.482
  -1546428.544 8  -7425585.71927  21541535.145
 92  9  3 22  1 30.0030000  0  6G26G16G17G23G21G 3
  -7188516.746 6  -6180826.62825  23690010.467
    497753.637 6    399768.09824  25590485.816
 -17414644.652 8 -13578827.50729  21290816.033
 -14108485.160 7 -10639879.95228  22395621.693
   -747119.968 6   -595979.00025  25501005.751
  -1513835.153 8  -7400188.28727  21547737.922
 92  9  3 22  2  0.0030000  0  6G26G16G17G23G21G 3
  -7200247.286 6  -6189967.31925  23687778.236
    612947.566 6    489529.52524  25612402.906
 -17412978.271 8 -13577529.02729  21291133.258
 -14164305.528 8 -10683376.30628  22384999.708
   -842523.444 5   -670319.26225  25482850.390
  -1480738.842 7  -7374398.96427  21554035.472
 92  9  3 22  2 30.0030000  0  6G26G16G17G23G21G 3
  -7211424.525 6  -6198676.84425  23685651.903
    728256.453 6    579380.53724  25634345.289
 -17410968.826 8 -13575963.21429  21291515.089
 -14219703.725 8 -10726543.68628  22374457.675
   -937791.452 6   -744553.97925  25464722.214
  -1447137.876 7  -7348216.40427  21560429.205
 92  9  3 22  3  0.0030000  0  6G26G16G17G23G21G 3
  -7222048.642 6  -6206955.36025  23683630.164
    843676.605 6    669318.26424  25656311.291
 -17408617.962 8 -13574131.38529  21291962.196
 -14274680.216 8 -10769382.48228  22363995.997
  -1032923.761 5   -818682.93925  25446620.356
  -1413033.258 7  -7321641.36827  21566918.912
 92  9  3 22  3 30.0030000  0  6G26G16G17G23G21G 3
  -7232123.177 6  -6214805.62025  23681712.780
    959201.180 6    759337.31224  25678295.011
 -17405930.250 8 -13572037.05829  21292473.827
 -14329239.193 8 -10811895.92728  22353613.825
  -1127923.904 5   -892708.89025  25428542.819
  -1378428.900 7  -7294676.94627  21573504.162
 92  9  3 22  4  0.0030000  0  6G26G16G17G23G21G 3
  -7241647.941 6  -6222227.51425  23679899.772
   1074827.136 6    849435.42424  25700293.799
 -17402906.979 8 -13569681.27129  21293049.731
 -14383379.727 8 -10854083.32928  22343310.410
  -1222791.023 5   -966631.15025  25410489.947
  -1343325.268 7  -7267323.46627  21580183.990
 92  9  3 22  4 30.0030000  0  6G26G16G17G23G21G 3
  -7250625.008 6  -6229222.61325  23678191.245
   1190548.853 6    939608.07124  25722313.126
 -17399551.312 8 -13567066.46229  21293688.285
 -14437104.555 8 -10895946.79728  22333086.838
  -1317526.914 5  -1040451.20725  25392463.678
  -1307724.907 7  -7239582.94427  21586958.801
 92  9  3 22  5  0.0030000  0  6G26G16G17G23G21G 3
  -7259046.548 6  -6235784.80825  23676587.910
   1306371.257 6   1029859.21324  25744354.129
 -17395856.339 8 -13564187.26629  21294391.378
 -14490405.652 8 -10937480.08828  22322944.508
  -1412123.154 5  -1114162.38725  25374461.699
  -1271620.293 7  -7211449.47527  21593829.444
 92  9  3 22  5 30.0030000  0  4G17G23G21G 3
 -17391826.945 9 -13561047.50029  21295158.298
 -14543286.469 8 -10978685.88628  22312881.605
  -1506582.451 5  -1187766.91025  25356483.951
  -1235014.803 7  -7182925.74627  21600794.782
 92  9  3 22  6  0.0030000  0  5G26G17G23G21G 3
     -2370.54416     -1935.84031  23673701.169
 -17387450.012 8 -13557636.87329  21295991.092
 -14595732.822 8 -11019553.13128  22302901.443
  -1600890.215 5  -1261253.27924  25338538.558
  -1197894.596 7  -7154000.90027  21607858.669
 92  9  3 22  6 30.0030000  0  5G26G17G23G21G 3
     -9101.792 6     -7183.66321  23672418.634
 -17382721.990 8 -13553952.70929  21296890.382
 -14647740.080 8 -11060078.23428  22293004.655
  -1695041.326 5  -1334617.83423  25320623.393
  -1160255.782 7  -7124671.97427  21615021.233
 92  9  3 22  7  0.0030000  0  5G26G17G23G21G 3
    -15263.808 6    -11985.34124  23671247.544
 -17377646.306 8 -13549997.63729  21297855.790
 -14699310.119 8 -11100262.64128  22283190.916
  -1789037.094 5  -1407861.09323  25302734.524
  -1122100.678 8  -7094940.73227  21622282.084
 92  9  3 22  7 30.0030000  0  5G26G17G23G21G 3
    -20851.272 6    -16339.21125  23670184.337
 -17372218.111 8 -13545767.86829  21298888.505
 -14750437.603 8 -11140102.20828  22273461.664
  -1882871.562 5  -1480978.72924  25284877.857
  -1083423.981 7  -7064803.05527  21629641.814
 92  9  3 22  8  0.0030000  0  5G26G17G23G21G 3
    -25867.732 6    -20248.14125  23669230.621
 -17366443.111 8 -13541267.87429  21299987.157
 -14801127.143 8 -11179600.50828  22263815.493
  -1976548.689 5  -1553973.68725  25267054.030
  -1044230.720 7  -7034262.85727  21637100.108
 92  9  3 22  8 30.0030000  0  6G28G26G17G23G21G 3
   -400741.32215   -320590.34534  25755653.353
    -30308.939 6    -23708.80425  23668385.179
 -17360317.409 8 -13536494.59429  21301153.029
 -14851373.475 8 -11218753.48128  22254254.103
  -2070062.810 5  -1626841.71125  25249259.883
  -1004516.171 8  -7003316.47527  21644657.390
 92  9  3 22  9  0.0030000  0  6G28G26G17G23G21G 3
   -498280.514 5   -396594.83825  25737091.623
    -34165.783 6    -26714.12425  23667652.191
 -17353833.512 8 -13531442.19629  21302386.925
 -14901167.764 8 -11257554.18628  22244779.042
  -2163404.506 5  -1699575.37325  25231496.501
   -964271.759 8  -6971957.21927  21652315.854
 92  9  3 22  9 30.0030000  0  6G28G26G17G23G21G 3
   -595727.604 6   -472527.55425  25718547.351
    -37434.507 6    -29261.18125  23667029.656
 -17346988.646 8 -13526108.53329  21303689.561
 -14950506.416 8 -11295999.85428  22235389.299
  -2256569.171 5  -1772171.12725  25213767.447
   -923493.970 8  -6940182.31827  21660075.940
 92  9  3 22 10  0.0030000  0  6G28G26G17G23G21G 3
   -693074.889 5   -548382.71624  25700023.663
    -40109.079 6    -31345.25625  23666520.736
 -17339777.551 8 -13520489.50229  21305061.813
 -14999383.242 8 -11334085.67028  22226088.189
  -2349550.382 5  -1844623.96125  25196073.081
   -882177.294 8  -6907987.51227  21667937.997
 92  9  3 22 10 30.0030000  0  6G28G26G17G23G21G 3
   -790319.010 5   -624157.22024  25681519.001
    -42187.016 7    -32964.45225  23666125.151
 -17332198.718 8 -13514583.90329  21306503.984
 -15047795.663 8 -11371809.59628  22216875.896
  -2442344.922 5  -1916931.27225  25178414.332
   -840319.623 8  -6875371.17327  21675902.774
 92  9  3 22 11  0.0030000  0  6G28G26G17G23G21G 3
   -887462.524 5   -699853.39024  25663035.470
    -43671.904 6    -34121.48725  23665842.218
 -17324256.467 8 -13508395.14329  21308015.669
 -15095747.297 8 -11409174.47528  22207751.232
  -2534955.623 6  -1989095.32325  25160791.486
   -797924.727 8  -6842336.20227  21683970.979
 92  9  3 22 11 30.0030000  0  6G28G26G17G23G21G 3
   -984500.934 5   -775467.85424  25644567.630
    -44560.670 6    -34814.02025  23665673.868
 -17315949.133 8 -13501921.89829  21309596.463
 -15143235.205 8 -11446178.01128  22198714.518
  -2627378.761 5  -2061113.24825  25143201.252
   -754990.025 8  -6808880.60027  21692141.633
 92  9  3 22 12  0.0030000  0  6G28G26G17G23G21G 3
  -1081432.684 5   -850998.97824  25626122.847
    -44852.927 6    -35041.73826  23665617.615
 -17307277.784 8 -13495164.98929  21311246.331
 -15190259.056 8 -11482819.93528  22189766.016
  -2719613.634 6  -2132984.44725  25125650.975
   -711515.910 7  -6775004.66227  21700413.795
 92  9  3 22 12 30.0030000  0  6G28G26G17G23G21G 3
  -1178255.269 5   -926445.11025  25607695.842
    -44547.386 6    -34803.62426  23665675.923
 -17298241.512 8 -13488123.74929  21312965.840
 -15236817.502 8 -11519099.20728  22180906.458
  -2811657.966 5  -2204707.26725  25108135.441
   -667501.079 7  -6740707.42127  21708789.727
 92  9  3 22 13  0.0030000  0  6G28G26G17G23G21G 3
  -1274967.285 5  -1001805.13624  25589293.071
    -43644.425 6    -34099.98826  23665847.013
 -17288841.330 8 -13480798.92429  21314754.794
 -15282910.524 8 -11555015.82028  22172135.129
  -2903511.188 5  -2276281.11225  25090656.400
   -622945.939 7  -6705989.13527  21717268.388
 92  9  3 22 13 30.0030000  0  6G28G26G17G23G21G 3
  -1371573.021 5  -1077082.20725  25570908.731
    -42149.252 7    -32934.93526  23666132.166
 -17279083.740 8 -13473195.62029  21316611.408
 -15328543.868 8 -11590574.23528  22163451.690
  -2995178.123 5  -2347709.80625  25073212.146
   -577856.485 8  -6670854.50927  21725848.547
 92  9  3 22 14  0.0030000  0  6G28G26G17G23G21G 3
  -1468070.039 5  -1152274.63525  25552545.902
    -40061.213 6    -31307.90226  23666529.774
 -17268968.738 8 -13465313.79329  21318536.435
 -15373715.796 8 -11625773.10228  22154855.294
  -3086656.831 5  -2418991.76825  25055803.957
   -532231.652 8  -6635302.70227  21734530.947
 92  9  3 22 14 30.0030000  0  6G28G26G17G23G21G 3
  -1564454.494 5  -1227379.38025  25534205.384
    -37377.709 7    -29216.83026  23667040.219
 -17258494.476 8 -13457152.03329  21320529.263
 -15418424.584 8 -11660611.08628  22146347.584
  -3177944.277 5  -2490124.74425  25038432.139
   -486069.603 7  -6599332.29327  21743315.496
 92  9  3 22 15  0.0030000  0  6G28G26G17G23G21G 3
  -1660726.099 5  -1302396.19325  25515887.687
    -34099.734 6    -26662.57926  23667664.460
 -17247662.876 8 -13448711.84429  21322590.550
 -15462671.117 8 -11695088.88028  22137927.561
  -3269040.723 5  -2561108.88425  25021097.986
   -439371.981 7  -6562944.54727  21752201.336
 92  9  3 22 15 30.0030000  0  6G28G26G17G23G21G 3
  -1756881.092 5  -1377322.05225  25497590.474
    -30224.964 6    -23643.23326  23668400.756
 -17236472.637 8 -13439992.15729  21324719.902
 -15506452.679 8 -11729204.33028  22129596.328
  -3359942.902 5  -2631941.63725  25003800.263
   -392136.644 7  -6526137.80527  21761190.031
 92  9  3 22 16  0.0030000  0  6G28G26G17G23G21G 3
  -1852918.119 5  -1452156.06425  25479315.530
    -25754.108 7    -20159.43726  23669251.930
 -17224925.130 8 -13430994.09729  21326917.321
 -15549769.800 8 -11762957.89829  22121353.828
  -3450650.446 5  -2702622.70525  24986539.546
   -344364.242 7  -6488912.58327  21770280.608
 92  9  3 22 16 30.0030000  0  6G28G26G17G23G21G 3
  -1948840.556 5  -1526900.81025  25461058.993
    -20691.793 7    -16214.77126  23670215.132
 -17213025.340 8 -13421721.53929  21329181.924
 -15592626.974 8 -11796353.06229  22113198.142
  -3541167.187 5  -2773155.14625  24969313.149
   -296059.793 7  -6451272.75927  21779472.694
 92  9  3 22 17  0.0030000  0  6G28G26G17G23G21G 3
  -2044646.545 5  -1601554.72425  25442826.677
    -15038.178 7    -11809.33626  23671291.764
 -17200774.259 8 -13412175.23729  21331513.241
 -15635023.680 8 -11829389.42529  22105130.130
  -3631492.148 5  -2843538.09225  24952126.344
   -247223.334 8  -6413218.38327  21788766.100
 92  9  3 22 17 30.0030000  0  6G28G26G17G23G21G 3
  -2140330.419 5  -1676113.50825  25424617.495
     -8788.388 6     -6939.38926  23672480.707
 -17188167.756 8 -13402351.99229  21333912.160
 -15676955.583 8 -11862063.60529  22097150.530
  -3721619.803 5  -2913767.29225  24934972.351
   -197850.745 7  -6374746.25727  21798161.267
 92  9  3 22 18  0.0030000  0  6G28G26G17G23G21G 3
  -2235890.945 6  -1750576.23525  25406436.095
     -1943.485 7     -1605.65626  23673782.971
 -17175208.101 8 -13392253.55729  21336378.524
 -15718423.651 8 -11894376.35329  22089259.632
  -3811550.371 5  -2983842.90525  24917859.144
   -147943.297 7  -6335857.35627  21807658.513
 92  9  3 22 18 30.0030000  0  6G28G26G17G23G21G 3
  -2331330.822 5  -1824944.95425  25388276.018
      5492.485 6      4188.59026  23675198.133
 -17161899.644 8 -13381883.34429  21338910.680
 -15759431.837 8 -11926330.75729  22081456.048
  -3901286.914 5  -3053767.34625  24900782.018
    -97505.288 7  -6296555.03927  21817256.639
 92  9  3 22 19  0.0030000  0  6G28G26G17G23G21G 3
  -2426650.831 6  -1899220.21025  25370137.523
     13517.031 7     10441.48126  23676725.405
 -17148245.153 8 -13371243.46729  21341509.259
 -15799982.208 8 -11957928.40429  22073739.588
  -3990830.886 6  -3123541.77225  24883742.246
    -46539.598 7  -6256841.51627  21826955.277
 92  9  3 22 19 30.0030000  0  6G28G26G17G23G21G 3
  -2521848.385 6  -1973400.12625  25352019.456
     22130.524 7     17153.31926  23678363.851
 -17134244.824 8 -13360334.11529  21344173.555
 -15840074.047 8 -11989168.77129  22066110.229
  -4080180.942 6  -3193165.12925  24866739.653
      4954.386 7  -6216716.34627  21836753.570
 92  9  3 22 20  0.0030000  0  6G28G26G17G23G21G 3
  -2616923.951 6  -2047484.95325  25333925.728
     31331.138 7     24322.60126  23680115.417
 -17119901.639 8 -13349157.61429  21346902.748
 -15879709.089 8 -12020053.18929  22058567.802
  -4169338.010 6  -3262638.03825  24849772.899
     56974.208 7  -6176181.44127  21846653.126
 92  9  3 22 20 30.0030000  0  6G28G26G17G23G21G 3
  -2711873.766 6  -2121471.75725  25315857.370
     41120.337 7     31950.55726  23681977.659
 -17105214.442 8 -13337713.04429  21349697.582
 -15918885.814 8 -12050580.48129  22051113.071
  -4258299.260 6  -3331958.37025  24832845.356
    109521.376 7  -6135235.60427  21856652.464
 92  9  3 22 21  0.0030000  0  6G28G26G17G23G21G 3
  -2806694.447 6  -2195357.94525  25297812.994
     51500.330 6     40038.86426  23683952.321
 -17090181.689 8 -13325999.20329  21352558.001
 -15957601.971 8 -12080748.87929  22043745.984
  -4347061.871 6  -3401123.92925  24815954.990
    162597.812 7  -6093877.36827  21866752.633
 92  9  3 22 21 30.0030000  0  6G28G26G17G23G21G 3
  -2901385.208 6  -2269142.98325  25279795.246
     62469.607 6     48586.35726  23686039.862
 -17074804.725 8 -13314017.15929  21355484.645
 -15995858.505 8 -12110559.14929  22036465.593
  -4435625.782 6  -3470134.62825  24799101.101
    216201.623 7  -6052108.17427  21876953.312
 92  9  3 22 22  0.0030000  0  6G28G26G17G23G21G 3
  -2995947.130 6  -2342827.53825  25261799.829
     74025.264 7     57590.75826  23688239.132
 -17059087.396 8 -13301769.90029  21358475.255
 -16033658.227 8 -12140013.45229  22029273.029
  -4523993.108 6  -3538992.20325  24782287.665
    270329.869 7  -6009930.34027  21887253.110
 92  9  3 22 22 30.0030000  0  6G28G26G17G23G21G 3
  -3090377.563 6  -2416409.63425  25243832.651
     86167.811 6     67052.48026  23690550.070
 -17043029.637 8 -13289257.35629  21361531.330
 -16071000.539 8 -12169111.32729  22022166.390
  -4612162.103 6  -3607695.18825  24765510.292
    324982.836 7  -5967343.63427  21897652.929
 92  9  3 22 23  0.0030000  0  6G28G26G17G23G21G 3
  -3184670.240 5  -2489884.44525  25225890.238
     98901.602 6     76974.92426  23692972.787
 -17026627.335 8 -13276476.34429  21364652.417
 -16107880.513 8 -12197848.95129  22015148.320
  -4700127.238 6  -3676239.37625  24748771.360
    380164.878 7  -5924344.66627  21908153.910
 92  9  3 22 23 30.0030000  0  6G28G26G17G23G21G 3
  -3278821.127 5  -2563248.74525  25207974.122
    112228.739 7     87359.70926  23695508.280
 -17009879.428 8 -13263426.02929  21367839.392
 -16144296.023 8 -12226224.63729  22008218.915
  -4787885.436 6  -3744622.29225  24732072.102
    435877.595 7  -5880932.16927  21918756.084
 92  9  3 22 24  0.0030000  0  6G28G26G17G23G21G 3
  -3372824.748 5  -2636498.22325  25190085.771
    126152.902 7     98209.69926  23698159.294
 -16992782.132 8 -13250103.46229  21371092.850
 -16180243.118 8 -12254235.34929  22001378.303
  -4875432.064 6  -3812840.30525  24715410.858
    492123.979 7  -5837103.83927  21929459.142
 92  9  3 22 24 30.0030000  0  6G28G26G17G23G21G 3
  -3466671.395 5  -2709625.44725  25172225.441
    140681.025 7    109530.31826  23700924.729
 -16975328.632 8 -13236503.31629  21374414.193
 -16215714.489 8 -12281875.34429  21994628.397
  -4962758.466 6  -3880886.72125  24698792.914
    548911.894 7  -5792853.53227  21940265.330
 92  9  3 22 25  0.0030000  0  6G28G26G17G23G21G 3
  -3560355.937 5  -2782626.36225  25154395.572
    155816.492 7    121324.18226  23703805.118
 -16957516.189 8 -13222623.50029  21377803.845
 -16250706.402 8 -12309141.75029  21987969.237
  -5049860.370 6  -3948758.24025  24682217.348
    606244.163 7  -5748179.04627  21951175.569
 92  9  3 22 25 30.0030000  0  6G28G26G17G23G21G 3
  -3653879.605 5  -2855501.88525  25136598.492
    171555.976 7    133588.70426  23706800.567
 -16939348.586 8 -13208466.91929  21381261.211
 -16285221.861 8 -12336036.89129  21981400.933
  -5136739.828 6  -4016456.40825  24665684.232
    664117.261 7  -5703083.14126  21962188.315
 92  9  3 22 26  0.0030000  0  6G28G26G17G23G21G 3
  -3747243.112 5  -2928252.62825  25118833.975
    187896.117 7    146321.29626  23709909.233
 -16920829.136 8 -13194036.17429  21384785.333
 -16319263.838 8 -12362563.07829  21974923.328
  -5223398.684 6  -4083982.66025  24649194.923
    722527.605 7  -5657568.60626  21973303.788
 92  9  3 22 26 30.0030000  0  6G28G26G17G23G21G 3
  -3840449.540 6  -3000880.98425  25101095.971
    204832.305 7    159518.33626  23713130.844
 -16901962.817 8 -13179335.13829  21388375.066
 -16352837.085 8 -12388724.03029  21968534.260
  -5309840.673 6  -4151339.94825  24632745.394
    781470.381 7  -5611639.19826  21984520.471
 92  9  3 22 27  0.0030000  0  6G28G26G17G23G21G 3
  -3933498.893 5  -3073386.89325  25083390.428
    222361.932 7    173177.76726  23716466.416
 -16882752.712 8 -13164366.21429  21392030.853
 -16385943.620 8 -12414521.29429  21962234.870
  -5396067.080 6  -4218529.25425  24616334.958
    840942.856 7  -5565297.00526  21995837.906
 92  9  3 22 27 30.0030000  0  6G28G26G17G23G21G 3
  -4026386.845 6  -3145767.07825  25065714.301
    240486.749 7    187300.99926  23719915.394
 -16863196.985 8 -13149127.99629  21395752.089
 -16418580.580 8 -12439952.68229  21956023.851
  -5482074.427 6  -4285547.82225  24599969.072
    900947.056 7  -5518540.52126  22007256.025
 92  9  3 22 28  0.0030000  0  6G28G26G17G23G21G 3
  -4119110.638 6  -3218019.37725  25048071.939
    259207.902 6    201888.91726  23723477.951
 -16843294.968 8 -13133619.93429  21399539.667
 -16450747.728 8 -12465017.96329  21949903.046
  -5567860.858 6  -4352394.30225  24583645.032
    961483.490 7  -5471369.29726  22018775.539
 92  9  3 22 28 30.0030000  0  6G28G26G17G23G21G 3
  -4211671.208 6  -3290144.45425  25030459.293
    278521.611 7    216938.56026  23727152.859
 -16823050.137 8 -13117844.73729  21403392.361
 -16482447.598 8 -12489719.15029  21943870.146
  -5653428.395 6  -4419070.15925  24567363.579
   1022548.571 7  -5423786.12826  22030395.925
 92  9  3 22 29  0.0030000  0  6G28G26G17G23G21G 3
  -4304069.806 6  -3362143.27925  25012876.566
    298424.442 6    232447.27426  23730941.074
 -16802466.555 8 -13101805.59029  21407308.818
 -16513683.726 8 -12514058.96229  21937925.872
  -5738779.150 6  -4485577.12225  24551120.124
   1084138.393 7  -5375794.08226  22042116.092
 92  9  3 22 29 30.0030000  0  6G28G26G17G23G21G 3
  -4396310.363 6  -3434018.97025  24995322.650
    318909.472 6    248409.61326  23734838.695
 -16781550.984 8 -13085507.74629  21411289.074
 -16544462.318 8 -12538042.25929  21932069.194
  -5823918.233 6  -4551919.18625  24534917.064
   1146246.662 7  -5327398.03826  22053935.067
 92  9  3 22 30  0.0030000  0  6G28G26G17G23G21G 3
  -4488387.973 6  -3505767.74925  24977801.127
    339979.893 7    264828.14426  23738847.657
 -16760300.283 8 -13068948.75529  21415332.944
 -16574780.010 8 -12561666.41129  21926300.068
  -5908841.204 6  -4618092.85525  24518757.358
   1208876.024 7  -5278595.96726  22065853.326
 92  9  3 22 30 30.0030000  0  6G28G26G17G23G21G 3
  -4580297.121 6  -3577385.22925  24960311.315
    361638.303 7    281704.80926  23742968.856
 -16738712.019 8 -13052126.73729  21419441.000
 -16604633.906 8 -12584929.16729  21920618.481
  -5993544.179 6  -4684095.03625  24502638.519
   1272029.059 7  -5229385.83726  22077870.830
 92  9  3 22 31  0.0030000  0  6G28G26G17G23G21G 3
  -4672038.721 6  -3648872.11525  24942854.052
    383881.631 7    299037.28826  23747202.122
 -16716789.671 8 -13035044.39529  21423613.001
 -16634026.439 8 -12607832.42429  21915025.315
  -6078029.228 6  -4749927.45325  24486562.773
   1335702.322 7  -5179770.32826  22089987.293
 92  9  3 22 31 30.0030000  0  6G28G26G17G23G21G 3
  -4763608.010 6  -3720224.77425  24925427.746
    406712.151 7    316827.27426  23751547.728
 -16694530.411 8 -13017699.51729  21427848.221
 -16662955.273 8 -12630374.34129  21909520.536
  -6162292.564 6  -4815587.09925  24470527.484
   1399898.011 7  -5129747.73526  22102203.023
 92  9  3 22 32  0.0030000  0  6G28G26G17G23G21G 3
  -4855001.842 6  -3791440.73825  24908035.579
    430130.628 7    335075.44426  23756004.142
 -16671934.047 8 -13000091.96229  21432148.240
 -16691419.312 8 -12652554.10829  21904104.054
  -6246331.862 6  -4881072.19325  24454536.089
   1464616.781 7  -5079317.56626  22114518.380
 92  9  3 22 32 30.0030000  0  6G28G26G17G23G21G 3
  -4946217.928 6  -3862518.15125  24890676.432
    454136.103 7    353781.00426  23760572.236
 -16649001.254 8 -12982222.26829  21436511.886
 -16719418.487 8 -12674371.61829  21898775.853
  -6330146.179 6  -4946381.98425  24438586.455
   1529857.857 7  -5028480.37326  22126933.491
 92  9  3 22 33  0.0030000  0  6G28G26G17G23G21G 3
  -5037253.404 6  -3933454.85725  24873353.300
    478728.647 6    372944.02926  23765252.051
 -16625730.976 8 -12964089.58729  21440939.537
 -16746951.950 8 -12695826.24929  21893536.400
  -6413733.827 6  -5011515.09025  24422678.005
   1595621.603 7  -4977235.91826  22139447.951
 92  9  3 22 33 30.0030000  0  6G28G26G17G23G21G 3
  -5128106.121 6  -4004249.11925  24856062.049
    503908.099 6    392564.36726  23770043.729
 -16602124.367 8 -12945694.83229  21445431.845
 -16774020.035 8 -12716918.23529  21888385.865
  -6497093.742 6  -5076470.78625  24406815.075
   1661907.451 7  -4925584.65126  22152061.844
 92  9  3 22 34  0.0030000  0  6G28G26G17G23G21G 3
  -5218769.325 6  -4074895.76325  24838809.410
    529678.598 6    412645.27126  23774947.890
 -16578177.148 8 -12927034.65929  21449989.299
 -16800618.214 8 -12737644.06829  21883324.312
  -6580220.141 6  -5141244.51425  24390996.690
   1728719.232 7  -4873523.54826  22164775.853
 92  9  3 22 34 30.0030000  0  6G28G26G17G23G21G 3
  -5309240.186 6  -4145392.48025  24821593.956
    556040.561 6    433187.04426  23779964.588
 -16553888.330 8 -12908108.31829  21454611.371
 -16826745.625 8 -12758003.07529  21878352.141
  -6663110.982 6  -5205834.72925  24375222.844
   1796057.400 7  -4821052.27626  22177589.968
 92  9  3 22 35  0.0030000  0  6G28G26G17G23G21G 3
  -5399518.748 6  -4215739.41125  24804414.712
    582990.532 6    454187.03026  23785091.464
 -16529261.792 8 -12888918.79729  21459297.748
 -16852404.767 8 -12777997.17829  21873469.760
  -6745768.338 6  -5270242.94625  24359493.303
   1863918.719 7  -4768173.36026  22190504.103
 92  9  3 22 35 30.0030000  0  6G28G26G17G23G21G 3
  -5489603.874 6  -4285935.57125  24787271.846
    610526.959 6    475643.98826  23790330.926
 -16504298.485 8 -12869466.87629  21464048.169
 -16877596.548 8 -12797627.13229  21868676.439
  -6828191.823 6  -5334468.96425  24343809.771
   1932301.867 7  -4714887.81626  22203516.725
 92  9  3 22 36  0.0030000  0  6G28G26G17G23G21G 3
  -5579494.512 6  -4355980.17225  24770167.577
    638648.484 6    497556.83726  23795682.703
 -16479000.130 8 -12849753.87229  21468862.406
 -16902322.513 8 -12816894.09729  21863970.749
  -6910381.732 6  -5398512.94825  24328169.778
   2001204.629 7  -4661197.37926  22216628.457
 92  9  3 22 36 30.0040000  0  6G28G26G17G23G21G 3
  -5669190.553 6  -4425873.20425  24753099.438
    667356.524 6    519926.74226  23801145.370
 -16453365.150 8 -12829778.56329  21473740.350
 -16926582.646 8 -12835798.07829  21859353.905
  -6992338.466 6  -5462375.25125  24312574.983
   2070630.007 7  -4607099.69826  22229839.313
 92  9  3 22 37  0.0040000  0  6G28G26G17G23G21G 3
  -5758685.763 6  -4495609.68925  24736069.126
    696645.809 6    542749.53426  23806720.075
 -16427397.730 8 -12809544.21429  21478682.066
 -16950377.259 8 -12854339.32229  21854825.878
  -7074057.842 6  -5526052.57125  24297024.952
   2140570.566 7  -4552600.61826  22243148.549
 92  9  3 22 37 30.0040000  0  6G28G26G17G23G21G 3
  -5847972.695 6  -4565183.89925  24719078.327
    726524.775 6    566031.85026  23812405.774
 -16401089.413 8 -12789044.22429  21483688.623
 -16973699.685 8 -12872512.62129  21850387.782
  -7155533.816 6  -5589540.27425  24281519.825
   2211035.716 7  -4497692.71926  22256558.304
 92  9  3 22 38  0.0040000  0  6G28G26G17G23G21G 3
  -5937046.657 6  -4634592.13625  24702128.262
    756995.929 6    589775.59826  23818204.821
 -16374437.610 8 -12768276.58929  21488760.121
 -16996547.054 8 -12890315.75029  21846040.341
  -7236762.071 6  -5652834.93925  24266062.042
   2282027.587 7  -4442374.39126  22270068.001
 92  9  3 22 38 30.0040000  0  6G28G26G17G23G21G 3
  -6025898.442 6  -4703827.31025  24685220.458
    788065.078 6    613985.30926  23824118.360
 -16347435.993 8 -12747236.36729  21493898.085
 -17018912.615 8 -12907743.43929  21841784.496
  -7317734.820 6  -5715930.48125  24250653.293
   2353552.370 7  -4386640.83526  22283678.460
 92  9  3 22 39  0.0040000  0  6G28G26G17G23G21G 3
  -6114523.166 6  -4772885.48125  24668354.716
    819734.331 7    638662.63926  23830144.169
 -16320082.537 8 -12725921.99329  21499103.332
 -17040793.716 8 -12924793.63829  21837620.399
  -7398448.685 6  -5778824.32825  24235294.745
   2425612.001 7  -4330490.49126  22297391.045
 92  9  3 22 39 30.0040000  0  6G28G26G17G23G21G 3
  -6202920.916 6  -4841766.81625  24651533.495
    852000.265 7    663804.91426  23836283.886
 -16292380.413 8 -12704335.92229  21504375.292
 -17062193.490 8 -12941468.76729  21833548.427
  -7478905.103 6  -5841517.55625  24219983.433
   2498203.010 7  -4273926.08926  22311204.987
 92  9  3 22 40  0.0040000  0  6G28G26G17G23G21G 3
  -6291087.698 6  -4910468.18525  24634756.062
    884864.086 6    689413.06826  23842536.797
 -16264327.571 8 -12682476.58329  21509713.486
 -17083110.089 8 -12957767.39829  21829567.815
  -7559100.973 6  -5904007.77725  24204721.414
   2571326.780 7  -4216946.54426  22325119.762
 92  9  3 22 40 30.0040000  0  6G28G26G17G23G21G 3
  -6379023.326 6  -4978989.42125  24618022.897
    918322.201 6    715484.33426  23848903.091
 -16235927.016 8 -12660346.28129  21515117.773
 -17103546.352 8 -12973691.75029  21825678.510
  -7639037.877 6  -5966296.17725  24189510.299
   2644979.760 7  -4159554.65226  22339135.445
 92  9  3 22 41  0.0040000  0  6G28G26G17G23G21G 3
  -6466724.628 6  -5047328.04825  24601333.678
    952375.289 6    742019.19926  23855382.782
 -16207177.860 8 -12637944.34829  21520588.666
 -17123501.137 8 -12989240.92929  21821881.247
  -7718713.931 6  -6028381.35325  24174348.126
   2719162.624 7  -4101749.84926  22353251.505
 92  9  3 22 41 30.0040000  0  6G28G26G17G23G21G 3
  -6554190.046 6  -5115482.91825  24584690.705
    987021.860 6    769016.51826  23861976.573
 -16178081.500 8 -12615271.86329  21526125.553
 -17142975.171 8 -13004415.47029  21818175.762
  -7798128.721 6  -6090262.90825  24159236.710
   2793873.871 7  -4043533.30026  22367468.305
 92  9  3 22 42  0.0040000  0  6G28G26G17G23G21G 3
  -6641424.486 6  -5183457.75225  24568090.734
   1022253.733 6    796469.91926  23868681.015
 -16148645.416 8 -12592334.65929  21531727.316
 -17161975.970 8 -13019221.26829  21814560.233
  -7877288.275 6  -6151945.61825  24144172.937
   2869105.371 7  -3984911.39826  22381784.622
 92  9  3 22 42 30.0040000  0  6G28G26G17G23G21G 3
  -6728431.964 6  -5251255.79225  24551532.789
   1058063.586 6    824373.69126  23875496.036
 -16118876.605 8 -12569138.19329  21537392.053
 -17180510.396 8 -13033663.65229  21811033.395
  -7956198.051 6  -6213433.67525  24129156.999
   2944849.777 7  -3925889.81726  22396198.187
 92  9  3 22 43  0.0040000  0  6G28G26G17G23G21G 3
  -6815213.704 6  -5318877.88725  24535019.619
   1094446.514 6    852724.02826  23882419.772
 -16088778.882 8 -12545685.42329  21543119.518
 -17198582.501 8 -13047745.81329  21807593.838
  -8034860.991 6  -6274729.40925  24114187.845
   3021102.772 7  -3866471.92426  22410708.111
 92  9  3 22 43 30.0040000  0  6G28G26G17G23G21G 3
  -6901764.490 6  -5386320.01725  24518548.813
   1131404.766 6    881522.65226  23889452.527
 -16058349.934 8 -12521974.56729  21548910.010
 -17216189.890 8 -13061465.84229  21804243.094
  -8113273.457 6  -6335829.93625  24099266.285
   3097865.746 7  -3806656.65026  22425316.267
 92  9  3 22 44  0.0040000  0  6G28G26G17G23G21G 3
  -6988080.480 6  -5453579.21725  24502122.675
   1168939.092 6    910770.18226  23896594.492
 -16027588.138 8 -12498004.33929  21554763.549
 -17233330.784 8 -13074822.36829  21800981.383
  -8191432.337 6  -6396732.87925  24084392.826
   3175140.041 7  -3746442.94626  22440021.045
 92  9  3 22 44 30.0040000  0  6G28G26G17G23G21G 3
  -7074155.332 6  -5520650.48825  24485743.145
   1207052.791 6    940469.16926  23903846.770
 -15996489.795 8 -12473771.86629  21560681.163
 -17250001.124 8 -13087812.23929  21797809.659
  -8269332.638 6  -6457434.33625  24069568.240
   3252928.763 7  -3685828.37826  22454823.889
 92  9  3 22 45  0.0040000  0  6G28G26G17G23G21G 3
  -7159980.294 6  -5587527.04525  24469411.279
   1245750.988 6    970623.58826  23911210.844
 -15965049.070 8 -12449272.61429  21566664.170
 -17266195.291 8 -13100431.06129  21794727.803
  -8346966.918 6  -6517928.54725  24054794.090
   3331237.237 7  -3624808.81326  22469725.232
 92  9  3 22 45 30.0040000  0  6G28G26G17G23G21G 3
  -7245557.513 6  -5654210.56525  24453126.593
   1285027.886 7   1001228.95126  23918685.418
 -15933271.325 8 -12424510.73929  21572711.601
 -17281918.360 8 -13112682.77929  21791735.845
  -8424339.004 6  -6578218.39225  24040071.194
   3410059.724 7  -3563388.71826  22484725.069
 92  9  3 22 46  0.0040000  0  6G28G26G17G23G21G 3
  -7330878.802 6  -5720694.63825  24436889.164
   1324888.397 6   1032289.08926  23926270.678
 -15901151.034 8 -12399481.94229  21578824.191
 -17297164.663 8 -13124563.00129  21788834.782
  -8501442.384 6  -6638298.86825  24025400.491
   3489401.035 7  -3501564.35626  22499824.207
 92  9  3 22 46 30.0040000  0  6G28G26G17G23G21G 3
  -7415933.759 6  -5786971.17925  24420703.033
   1365339.489 6   1063809.41025  23933968.402
 -15868680.645 8 -12374180.35329  21585003.333
 -17311926.481 8 -13136065.70829  21786025.438
  -8578267.979 6  -6698162.94125  24010780.862
   3569268.320 7  -3439330.12626  22515022.794
 92  9  3 22 47  0.0040000  0  6G28G26G17G23G21G 3
  -7500730.082 6  -5853046.23425  24404567.710
   1406370.417 7   1095781.54626  23941776.352
 -15835870.083 8 -12348613.69929  21591246.709
 -17326214.453 8 -13147199.18429  21783306.660
  -8654824.805 6  -6757817.51725  23996212.477
   3649650.615 7  -3376694.59026  22530318.393
 92  9  3 22 47 30.0040000  0  6G28G26G17G23G21G 3
  -7585276.438 6  -5918926.46525  24388478.737
   1447968.440 6   1128195.58026  23949691.684
 -15802731.247 8 -12322791.23729  21597552.378
 -17340040.005 8 -13157972.31829  21780676.214
  -8731122.889 6  -6817270.50525  23981693.570
   3730535.899 7  -3313667.14226  22545710.319
 92  9  3 22 48  0.0040000  0  6G28G26G17G23G21G 3
  -7669574.394 6  -5984613.17325  24372437.394
   1490128.759 6   1161047.76526  23957714.470
 -15769268.769 8 -12296716.58829  21603920.567
 -17353407.250 8 -13168388.36129  21778132.342
  -8807165.466 6  -6876524.40225  23967221.570
   3811919.051 7  -3250251.74026  22561196.697
 92  9  3 22 48 30.0040000  0  6G28G26G17G23G21G 3
  -7753627.235 6  -6050108.86825  24356442.472
   1532845.002 6   1194333.13326  23965843.842
 -15735487.509 8 -12270393.53329  21610348.886
 -17366322.166 8 -13178451.92429  21775674.794
  -8882957.048 6  -6935582.70025  23952799.739
   3893793.396 7  -3186453.53926  22576777.132
 92  9  3 22 49  0.0040000  0  6G28G26G17G23G21G 3
  -7837424.857 6  -6115405.68525  24340497.495
   1576122.728 6   1228056.02726  23974078.724
 -15701381.188 8 -12243817.18529  21616838.675
 -17378777.878 8 -13188157.65129  21773304.115
  -8958489.336 6  -6994438.96225  23938426.624
   3976165.360 7  -3122267.63526  22592451.839
 92  9  3 22 49 30.0040000  0  6G28G26G17G23G21G 3
  -7920957.834 6  -6180496.27825  24324601.058
   1619968.283 7   1262221.39526  23982423.190
 -15666942.958 8 -12216982.19629  21623391.817
 -17390767.512 8 -13197500.21829  21771022.497
  -9033753.756 6  -7053086.49325  23924104.105
   4059041.169 7  -3057689.12626  22608222.602
 92  9  3 22 50  0.0040000  0  6G28G26G17G23G21G 3
  -8004222.220 6  -6245377.58725  24308757.952
   1664382.297 6   1296829.71326  23990874.823
 -15632171.644 8 -12189887.67729  21630008.696
 -17402289.933 8 -13206478.72629  21768829.853
  -9108748.432 6  -7111523.82925  23909834.037
   4142421.092 7  -2992717.79926  22624088.775
 92  9  3 22 50 30.0040000  0  6G28G26G17G23G21G 3
  -8087219.963 6  -6310051.14225  24292963.971
   1709358.904 6   1331876.40326  23999433.171
 -15597071.954 8 -12162537.27329  21636688.384
 -17413350.162 8 -13215097.07229  21766725.190
  -9183476.693 6  -7169753.59925  23895613.459
   4226299.890 7  -2927357.71426  22640050.658
 92  9  3 22 51  0.0040000  0  6G28G26G17G23G21G 3
  -8169944.186 6  -6374511.55225  24277221.782
   1754901.397 6   1367364.03726  24008099.577
 -15561639.674 8 -12134927.70929  21643431.044
 -17423944.177 8 -13223352.13429  21764709.045
  -9257933.190 6  -7227771.57625  23881444.470
   4310680.520 7  -2861606.60126  22656108.022
 92  9  3 22 51 30.0040000  0  6G28G26G17G23G21G 3
  -8252391.742 6  -6438756.39725  24261532.406
   1801009.343 6   1403292.31526  24016874.193
 -15525874.678 8 -12107058.88629  21650237.064
 -17434071.760 8 -13231243.75429  21762782.049
  -9332116.604 7  -7285576.75725  23867328.813
   4395562.695 7  -2795464.69326  22672260.603
 92  9  3 22 52  0.0040000  0  6G28G26G17G23G21G 3
  -8334561.726 6  -6502784.92025  24245896.206
   1847679.317 6   1439658.52326  24025755.088
 -15489778.982 8 -12078932.37229  21657105.626
 -17443735.034 8 -13238773.56829  21760942.795
  -9406027.348 6  -7343169.47925  23853263.688
   4480943.654 7  -2728934.09526  22688507.885
 92  9  3 22 52 30.0040000  0  6G28G26G17G23G21G 3
  -8416459.600 6  -6566601.44225  24230312.157
   1894902.759 7   1476456.01026  24034741.734
 -15453360.189 8 -12050554.08929  21664035.840
 -17452942.333 8 -13245948.06329  21759190.656
  -9479672.559 6  -7400555.26625  23839249.653
   4566814.305 7  -2662021.95226  22704848.024
 92  9  3 22 53  0.0040000  0  6G28G26G17G23G21G 3
  -8498080.620 6  -6630202.20725  24214779.044
   1942680.302 6   1513685.25026  24043833.391
 -15416617.105 8 -12021923.13029  21671027.751
 -17461691.955 8 -13252765.94629  21757525.657
  -9553049.350 6  -7457731.91925  23825284.890
   4653175.559 7  -2594727.50526  22721281.866
 92  9  3 22 53 30.0040000  0  6G28G26G17G23G21G 3
  -8579415.255 6  -6693579.82225  24199300.896
   1991017.795 6   1551350.83226  24053031.936
 -15379542.900 8 -11993034.14229  21678082.544
 -17469977.080 8 -13259221.87729  21755949.138
  -9626149.299 6  -7514692.84625  23811375.240
   4740033.432 7  -2527046.08526  22737810.142
 92  9  3 22 54  0.0040000  0  6G28G26G17G23G21G 3
  -8660460.033 6  -6756731.58625  24183878.219
   2039914.552 7   1589452.19525  24062336.539
 -15342136.878 8 -11963886.61129  21685200.908
 -17477797.350 8 -13265315.58529  21754460.790
  -9698970.913 7  -7571436.88225  23797517.663
   4827387.560 7  -2458977.95626  22754433.111
 92  9  3 22 54 30.0040000  0  6G28G26G17G23G21G 3
  -8741211.736 6  -6819654.98025  24168512.604
   2089370.681 7   1627989.39625  24071748.133
 -15304398.823 8 -11934480.34029  21692382.016
 -17485152.271 8 -13271046.67329  21753061.069
  -9771512.156 6  -7627962.45925  23783713.896
   4915237.742 7  -2390523.33026  22771150.591
 92  9  3 22 55  0.0040000  0  6G28G26G17G23G21G 3
  -8821665.970 6  -6882346.55425  24153203.855
   2139386.354 7   1666962.65925  24081266.535
 -15266326.795 8 -11904813.83329  21699627.351
 -17492040.827 8 -13276414.37429  21751750.197
  -9843770.242 6  -7684267.38925  23769962.887
   5003584.685 7  -2321681.58626  22787963.191
 92  9  3 22 55 30.0040000  0  6G28G26G17G23G21G 3
  -8901822.990 6  -6944806.54525  24137949.563
   2189957.206 6   1706368.50125  24090889.194
 -15227924.306 8 -11874889.82229  21706934.231
 -17498466.527 8 -13281421.39729  21750527.474
  -9915747.069 6  -7740353.16225  23756264.880
   5092424.168 7  -2252456.03326  22804868.448
 92  9  3 22 56  0.0040000  0  6G28G26G17G23G21G 3
  -8981682.260 6  -7007034.53325  24122752.987
   2241080.635 7   1746204.91425  24100617.355
 -15189193.079 8 -11844709.65529  21714304.560
 -17504431.493 8 -13286069.40129  21749392.821
  -9987443.845 6  -7796220.71425  23742621.978
   5181752.883 7  -2182849.30926  22821867.530
 92  9  3 22 56 30.0040000  0  6G28G26G17G23G21G 3
  -9061235.198 6  -7069023.79726  24107613.458
   2292760.138 6   1786474.63725  24110451.176
 -15150127.936 8 -11814269.28529  21721738.333
 -17509930.830 8 -13290354.59129  21748346.525
 -10058853.681 6  -7851864.66925  23729033.440
   5271575.543 7  -2112857.64726  22838960.497
 92  9  3 22 57  0.0040000  0  6G28G26G17G23G21G 3
  -9140478.429 6  -7130771.74326  24092534.764
   2344995.857 7   1827177.81925  24120391.367
 -15110727.949 8 -11783568.00629  21729236.184
 -17514963.685 8 -13294276.32329  21747388.714
 -10129974.471 6  -7907283.38925  23715499.777
   5361892.001 7  -2042481.21126  22856146.527
 92  9  3 22 57 30.0040000  0  6G28G26G17G23G21G 3
  -9219406.697 6  -7192274.28026  24077514.852
   2397789.030 6   1868315.33625  24130437.613
 -15070991.278 8 -11752604.37929  21736797.487
 -17519527.861 8 -13297832.77629  21746519.857
 -10200803.158 6  -7962474.51025  23702020.815
   5452703.696 7  -1971718.90325  22873427.702
 92  9  3 22 58  0.0040000  0  6G28G26G17G23G21G 3
  -9298016.993 6  -7253529.02726  24062556.859
   2451138.693 6   1909886.46125  24140589.787
 -15030917.333 8 -11721377.93129  21744423.048
 -17523623.470 8 -13301024.15329  21745740.686
 -10271338.039 6  -8017436.68825  23688597.906
   5544009.609 7  -1900571.49225  22890803.263
 92  9  3 22 58 30.0040000  0  6G28G26G17G23G21G 3
  -9376309.729 6  -7314536.31426  24047657.585
   2505040.055 6   1951887.53925  24150846.940
 -14990509.349 8 -11689891.19929  21752112.944
 -17527254.503 8 -13303853.52629  21745049.516
 -10341581.225 7  -8072171.56725  23675232.256
   5635805.327 7  -1829042.40625  22908271.296
 92  9  3 22 59  0.0040000  0  6G28G26G17G23G21G 3
  -9454289.609 6  -7375299.85726  24032818.804
   2559484.684 6   1994311.92825  24161207.065
 -14949774.941 8 -11658150.09729  21759864.619
 -17530428.601 8 -13306326.83729  21744445.765
 -10411539.203 6  -8126684.22025  23661919.423
   5728082.539 7  -1757138.12025  22925831.178
 92  9  3 22 59 30.0040000  0  6G28G26G17G23G21G 3
  -9531962.451 6  -7435824.09926  24018038.680
   2614462.929 6   2037152.09926  24171669.580
 -14908723.053 8 -11626161.61629  21767677.040
 -17533154.317 8 -13308450.75829  21743927.240
 -10481219.481 6  -8180980.47125  23648659.568
   5820831.164 7  -1684866.53125  22943480.587
 92  9  3 23  0  0.0040000  0  6G28G26G17G23G21G 3
  -9609320.861 6  -7496103.33226  24003317.204
   2669977.947 6   2080410.53726  24182233.747
 -14867348.955 8 -11593922.05929  21775550.319
 -17535427.805 8 -13310222.30729  21743494.571
 -10550616.310 7  -8235055.84526  23635453.647
   5914055.247 7  -1612224.44125  22961220.301
 92  9  3 23  0 30.0040000  0  6G28G26G17G23G21G 3
  -9686362.673 6  -7556135.90226  23988656.699
   2726027.481 6   2124085.51626  24192899.703
 -14825653.566 8 -11561432.14929  21783484.496
 -17537250.264 8 -13311642.38929  21743147.644
 -10619729.166 7  -8288909.95726  23622301.493
   6007752.586 7  -1539213.53625  22979049.900
 92  9  3 23  1  0.0040000  0  6G28G26G17G23G21G 3
  -9763083.969 6  -7615918.71526  23974057.037
   2782611.480 6   2168176.94126  24203666.880
 -14783635.206 8 -11528690.57129  21791480.334
 -17538620.613 8 -13312710.18829  21742886.903
 -10688556.070 7  -8342541.23726  23609205.026
   6101923.120 7  -1465833.96725  22996969.482
 92  9  3 23  1 30.0040000  0  6G28G26G17G23G21G 3
  -9839479.970 7  -7675448.01926  23959519.788
   2839731.058 6   2212685.68626  24214536.088
 -14741292.510 7 -11495696.27029  21799537.834
 -17539537.470 8 -13313424.61029  21742712.271
 -10757093.860 7  -8395947.26226  23596162.207
   6196567.770 7  -1392084.92425  23014981.426
 92  9  3 23  2  0.0040000  0  6G28G26G17G23G21G 3
  -9915552.729 7  -7734725.47726  23945043.175
   2897379.587 6   2257606.59226  24225505.956
 -14698630.307 7 -11462453.00929  21807655.827
 -17540006.042 8 -13313789.72129  21742623.174
 -10825346.191 7  -8449130.82226  23583173.688
   6291680.276 6  -1317971.32925  23033080.759
 92  9  3 23  2 30.0040000  0  6G28G26G17G23G21G 3
  -9991294.866 7  -7793745.32226  23930629.228
   2955560.078 6   2302942.05326  24236579.295
 -14655644.716 8 -11428957.73629  21815834.993
 -17540022.711 8 -13313802.71429  21742620.025
 -10893307.914 7  -8502087.93626  23570241.490
   6387263.730 7  -1243490.75625  23051269.076
 92  9  3 23  3  0.0040000  0  6G28G26G17G23G21G 3
 -10066697.507 7  -7852500.58826  23916281.603
   3014277.055 6   2348695.49826  24247752.063
 -14612329.131 8 -11395205.35829  21824077.407
 -17539581.489 8 -13313458.89429  21742704.599
 -10960971.578 7  -8554812.83526  23557366.155
   6483323.323 7  -1168639.19325  23069548.503
 92  9  3 23  3 30.0040000  0  6G28G26G17G23G21G 3
 -10141752.073 7  -7910984.65426  23901998.142
   3073535.512 6   2394870.90425  24259029.075
 -14568677.580 8 -11361191.16329  21832384.143
 -17538676.848 8 -13312753.97129  21742875.791
 -11028330.015 7  -8607299.84226  23544547.701
   6579863.932 7  -1093412.77725  23087920.063
 92  9  3 23  4  0.0040000  0  6G28G26G17G23G21G 3
 -10216463.824 7  -7969201.58226  23887781.539
   3133325.408 6   2441460.41125  24270406.381
 -14524698.699 8 -11326921.91029  21840753.500
 -17537317.395 8 -13311694.64229  21743134.821
 -11095390.715 7  -8659554.88226  23531786.522
   6676875.524 7  -1017819.37725  23106380.907
 92  9  3 23  4 30.0040000  0  6G28G26G17G23G21G 3
 -10290836.003 6  -8027153.90926  23873628.989
   3193639.425 6   2488458.34125  24281883.344
 -14480398.413 8 -11292402.20429  21849183.428
 -17535509.862 8 -13310286.17729  21743478.621
 -11162158.351 7  -8711581.55626  23519080.642
   6774351.458 7   -941864.17425  23124929.494
 92  9  3 23  5  0.0040000  0  6G28G26G17G23G21G 3
 -10364872.092 6  -8084844.34726  23859539.354
   3254469.915 6   2535858.66925  24293458.478
 -14435783.175 8 -11257637.10229  21857673.554
 -17533261.027 8 -13308533.82129  21743906.269
 -11228638.403 7  -8763384.12826  23506430.286
   6872283.718 7   -865553.36025  23143565.063
 92  9  3 23  5 30.0040000  0  6G28G26G17G23G21G 3
 -10438568.580 6  -8142270.14626  23845515.516
   3315816.016 6   2583660.81525  24305132.119
 -14390851.866 8 -11222625.69629  21866223.900
 -17530570.370 8 -13306437.18729  21744418.062
 -11294828.949 7  -8814961.12526  23493834.586
   6970671.856 7   -788887.33025  23162287.840
 92  9  3 23  6  0.0040000  0  6G28G26G17G23G21G 3
 -10511923.706 7  -8199429.95726  23831557.194
   3377675.479 6   2631862.98825  24316903.586
 -14345606.298 8 -11187369.41229  21874834.488
 -17527439.830 8 -13303997.79729  21745014.139
 -11360730.044 7  -8866312.58526  23481293.588
   7069513.535 7   -711867.91925  23181096.759
 92  9  3 23  6 30.0040000  0  6G28G26G17G23G21G 3
 -10584927.040 6  -8256315.64826  23817665.205
   3440053.712 6   2680469.36125  24328774.372
 -14300038.987 8 -11151862.42429  21883505.654
 -17523862.389 8 -13301210.17329  21745694.930
 -11426333.162 7  -8917431.82526  23468809.529
   7168814.622 7   -634490.48525  23199993.711
 92  9  3 23  7  0.0040000  0  6G28G26G17G23G21G 3
 -10657565.308 6  -8312916.87826  23803841.925
   3502960.058 6   2729487.28825  24340745.300
 -14254139.296 8 -11116096.45529  21892240.518
 -17519828.078 8 -13298066.54329  21746462.778
 -11491626.919 7  -8968310.04226  23456384.584
   7268584.681 7   -556747.60825  23218978.893
 92  9  3 23  7 30.0040000  0  6G28G26G17G23G21G 3
 -10729830.754 7  -8369227.57926  23790090.100
   3566397.771 6   2778919.25725  24352817.127
 -14207902.169 8 -11080067.51829  21901039.207
 -17515332.080 8 -13294563.16529  21747318.334
 -11556605.244 7  -9018942.42726  23444019.293
   7368826.914 7   -478636.87425  23238054.637
 92  9  3 23  8  0.0040000  0  6G28G26G17G23G21G 3
 -10801723.982 6  -8425248.25626  23776409.475
  -3567341.49616     24636.70831  24364988.711
 -14161331.415 8 -11043778.63529  21909901.172
 -17510378.862 8 -13290703.49429  21748260.552
 -11621270.799 7  -9069331.12826  23431713.503
    622694.73017     44528.94231  23257218.873
 92  9  3 23  8 30.0040000  0  6G28G26G17G23G21G 3
 -10873254.840 7  -8480986.56326  23762797.805
  -3502864.633 6     74885.42721  24377257.304
 -14114439.454 8 -11007239.43529  21918823.984
 -17504981.416 8 -13286497.68629  21749287.692
 -11685634.959 7  -9119484.96926  23419465.502
    723858.007 7    123355.74024  23276469.198
 92  9  3 23  9  0.0040000  0  6G28G26G17G23G21G 3
 -10944426.942 7  -8536445.32426  23749255.133
  -3437883.584 6    125518.66324  24389622.763
 -14067232.874 8 -10970455.10629  21927807.105
 -17499146.523 8 -13281951.02229  21750398.163
 -11749703.131 7  -9169408.18026  23407274.181
    825467.145 7    202531.62025  23295805.778
 92  9  3 23  9 30.0040000  0  6G28G26G17G23G21G 3
 -11015244.787 7  -8591628.04426  23735778.824
  -3372406.917 6    176539.42325  24402083.331
 -14019719.075 8 -10933431.36429  21936848.197
 -17492882.356 8 -13277069.83529  21751590.246
 -11813481.791 7  -9219105.76526  23395137.393
    927513.158 7    282047.94625  23315224.705
 92  9  3 23 10  0.0040000  0  6G28G26G17G23G21G 3
 -11085710.146 7  -8646536.07126  23722369.186
  -3306441.874 6    227940.75725  24414636.097
 -13971902.921 8 -10896172.03429  21945947.637
 -17486194.305 8 -13271858.35629  21752862.827
 -11876974.519 7  -9268580.56426  23383054.787
   1029990.010 6    361899.97525  23334724.208
 92  9  3 23 10 30.0040000  0  6G28G26G17G23G21G 3
 -11155825.211 7  -8701171.19226  23709026.915
  -3239994.013 6    279718.28925  24427278.967
 -13923789.205 8 -10858680.83929  21955103.368
 -17479087.731 8 -13266320.75429  21754215.379
 -11940185.133 7  -9317835.52626  23371026.603
   1132891.450 6    442082.86225  23354305.800
 92  9  3 23 11  0.0040000  0  6G28G26G17G23G21G 3
 -11225586.882 7  -8755530.90426  23695751.472
  -3173065.009 6    331870.76525  24440016.220
 -13875377.779 8 -10820957.64929  21964315.793
 -17471562.537 8 -13260456.96829  21755647.210
 -12003112.897 7  -9366870.10726  23359052.155
   1236216.039 6    522595.44225  23373968.402
 92  9  3 23 11 30.0040000  0  6G28G26G17G23G21G 3
 -11294987.503 7  -8809609.29326  23682545.032
  -3105651.706 6    384400.58225  24452845.093
 -13826664.213 8 -10782999.03429  21973585.255
 -17463615.356 8 -13254264.35429  21757159.401
 -12065751.989 7  -9415679.72826  23347132.246
   1339966.965 6    603440.29625  23393710.712
 92  9  3 23 12  0.0040000  0  6G28G26G17G23G21G 3
 -11364014.114 7  -8863396.24126  23669409.588
  -3037745.498 6    437314.53025  24465767.551
 -13777638.008 8 -10744796.80529  21982914.997
 -17455236.510 8 -13247735.36929  21758753.638
 -12128090.731 7  -9464255.32426  23335269.264
   1444153.175 6    684624.29425  23413538.131
 92  9  3 23 12 30.0040000  0  6G28G26G17G23G21G 3
 -11432661.052 7  -8916887.33626  23656345.824
  -2969345.646 6    490613.05925  24478782.730
 -13728296.640 8 -10706349.00529  21992303.994
 -17446423.527 8 -13240868.11929  21760430.766
 -12190125.573 7  -9512594.12726  23323464.123
   1548775.895 6    766148.42025  23433447.224
 92  9  3 23 13  0.0040000  0  6G28G26G17G23G21G 3
 -11500928.218 7  -8970082.51826  23643355.982
  -2900455.867 6    544293.40525  24491892.376
 -13678642.844 8 -10667657.73329  22001752.720
 -17437179.545 8 -13233665.00429  21762189.509
 -12251858.103 7  -9560697.33826  23311717.014
   1653831.120 6    848009.54725  23453438.813
 92  9  3 23 13 30.0040000  0  6G28G26G17G23G21G 3
 -11568813.381 7  -9022980.01826  23630437.620
  -2831078.902 6    598353.36825  24505095.542
 -13628677.093 8 -10628723.39429  22011261.420
 -17427506.191 8 -13226127.31529  21764030.634
 -12313288.149 7  -9608564.87026  23300026.860
   1759316.698 6    930206.05925  23473511.561
 92  9  3 23 14  0.0040000  0  6G28G26G17G23G21G 3
 -11636315.394 7  -9075578.98426  23617592.554
  -2761218.405 6    652790.09525  24518389.488
 -13578401.647 8 -10589547.71929  22020828.109
 -17417405.969 8 -13218257.00329  21765952.363
 -12374416.917 7  -9656197.63026  23288394.999
   1865228.688 6   1012734.81825  23493665.892
 92  9  3 23 14 30.0040000  0  6G28G26G17G23G21G 3
 -11703432.994 7  -9127878.40026  23604819.473
  -2690877.217 6    707601.38925  24531775.608
 -13527817.646 8 -10550131.62829  22030454.156
 -17406880.617 8 -13210055.42829  21767955.319
 -12435244.470 7  -9703595.67026  23276820.254
   1971564.903 6   1095594.16125  23513901.348
 92  9  3 23 15  0.0040000  0  6G28G26G17G23G21G 3
 -11770159.081 7  -9179872.75626  23592121.298
  -2620053.268 6    762788.85525  24545251.929
 -13476921.139 8 -10510472.01429  22040138.891
 -17395926.964 8 -13201520.10529  21770040.225
 -12495765.986 7  -9750755.25026  23265303.294
   2078327.543 6   1178785.77325  23534217.372
 92  9  3 23 15 30.0040000  0  6G28G26G17G23G21G 3
 -11836490.676 7  -9231559.67726  23579498.791
  -2548747.508 6    818351.76925  24558821.313
 -13425711.523 8 -10470568.42929  22049883.882
 -17384544.946 8 -13192650.99129  21772206.155
 -12555979.979 7  -9797675.19526  23253844.488
   2185515.625 7   1262308.86025  23554614.427
 92  9  3 23 16  0.0040000  0  6G28G26G17G23G21G 3
 -11902423.725 7  -9282936.08726  23566953.316
  -2476961.331 6    874289.01825  24572481.505
 -13374188.655 8 -10430420.74229  22059689.114
 -17372734.714 8 -13183448.21129  21774453.881
 -12615884.920 7  -9844354.32726  23242445.500
   2293128.007 6   1346162.60025  23575093.464
 92  9  3 23 16 30.0040000  0  6G28G26G17G23G21G 3
 -11967960.909 7  -9334004.00326  23554480.891
  -2404701.258 6    930595.56125  24586232.019
 -13322357.348 8 -10390032.71829  22069552.856
 -17360501.951 8 -13173916.18929  21776781.285
 -12675484.668 7  -9890795.64826  23231103.900
   2401158.356 6   1430342.06025  23595650.791
 92  9  3 23 17  0.0040000  0  6G28G26G17G23G21G 3
 -12033096.025 7  -9384758.63326  23542086.412
  -2331966.328 6    987272.08625  24600072.824
 -13270214.312 8 -10349401.78729  22079475.618
 -17347844.319 8 -13164053.08329  21779190.199
 -12734775.176 7  -9936995.99526  23219820.904
   2509608.193 6   1514848.33325  23616288.962
 92  9  3 23 17 30.0040000  0  6G28G26G17G23G21G 3
 -12097818.933 7  -9435192.06226  23529770.301
  -2258750.665 6   1044323.22925  24614004.888
 -13217752.706 8 -10308522.61029  22089458.226
 -17334755.319 8 -13153853.86129  21781681.256
 -12793748.281 7  -9982949.01826  23208598.897
   2618482.918 6   1599685.70925  23637005.753
 92  9  3 23 18  0.0040000  0  6G28G26G17G23G21G 3
 -12162126.565 7  -9485301.87526  23517532.730
  -2185055.795 6   1101747.78225  24628030.319
 -13164971.962 8 -10267394.76929  22099501.724
 -17321234.747 8 -13143318.33429  21784253.454
 -12852402.917 7 -10028653.88726  23197436.610
   2727781.637 6   1684853.51225  23657805.381
 92  9  3 23 18 30.0040000  0  6G28G26G17G23G21G 3
 -12226017.761 7  -9535087.20926  23505375.038
  -2110885.569 6   1159542.72925  24642143.627
 -13111873.842 8 -10226019.62029  22109605.948
 -17307285.391 8 -13132448.70929  21786908.181
 -12910739.803 7 -10074111.15826  23186335.770
   2837500.944 6   1770348.98325  23678683.663
 92  9  3 23 19  0.0040000  0  6G28G26G17G23G21G 3
 -12289489.577 7  -9584545.74126  23493296.676
  -2036241.233 6   1217707.13425  24656349.510
 -13058458.279 8 -10184397.10229  22119771.331
 -17292908.035 8 -13121245.56929  21789644.311
 -12968757.770 7 -10119319.92026  23175295.390
   2947638.934 6   1856170.73525  23699642.278
 92  9  3 23 19 30.0040000  0  6G28G26G17G23G21G 3
 -12352538.615 7  -9633674.83426  23481299.644
  -1961124.298 6   1276239.78625  24670642.716
 -13004724.584 8 -10142526.70629  22129995.875
 -17278102.677 8 -13109708.92729  21792461.635
 -13026455.350 7 -10164279.03026  23164315.377
   3058194.820 6   1942318.14825  23720680.573
 92  9  3 23 20  0.0040000  0  6G28G26G17G23G21G 3
 -12415161.720 7  -9682472.04226  23469382.874
  -1885535.917 6   1335139.79625  24685026.260
 -12950672.482 8 -10100408.19229  22140281.391
 -17262869.762 8 -13097839.11329  21795360.048
 -13083831.228 7 -10208987.45526  23153397.029
   3169167.312 6   2028790.13925  23741797.454
 92  9  3 23 20 30.0040000  0  6G28G26G17G23G21G 3
 -12477362.854 7  -9730940.42026  23457545.531
  -1809485.032 6   1394400.20425  24699498.732
 -12896308.924 8 -10058046.97629  22150626.571
 -17247216.419 8 -13085641.69729  21798338.585
 -13140891.603 7 -10253450.03826  23142538.872
   3280547.970 6   2115580.20125  23762992.057
 92  9  3 23 21  0.0040000  0  6G28G26G17G23G21G 3
 -12539144.160 7  -9779081.68826  23445788.260
  -1732978.469 6   1454015.71425  24714057.140
 -12841638.843 8 -10015446.92929  22161030.006
 -17231148.698 8 -13073121.39229  21801396.268
 -13197640.218 7 -10297669.70526  23131739.831
   3392330.198 6   2202683.17825  23784262.499
 92  9  3 23 21 30.0040000  0  6G28G26G17G23G21G 3
 -12600506.835 7  -9826896.73226  23434111.320
  -1656022.216 6   1513981.57925  24728701.806
 -12786667.105 8  -9972611.81629  22171490.978
 -17214671.495 8 -13060281.99529  21804531.466
 -13254080.773 7 -10341649.30826  23120999.396
   3504507.685 6   2290094.14725  23805609.586
 92  9  3 23 22  0.0040000  0  6G28G26G17G23G21G 3
 -12661457.083 7  -9874390.39826  23422513.312
  -1578627.174 6   1574289.41125  24743429.247
 -12731402.155 8  -9929548.23029  22182007.366
 -17197794.419 8 -13047131.03229  21807743.273
 -13310220.739 7 -10385394.68226  23110316.459
   3617070.235 6   2377805.14625  23827030.349
 92  9  3 23 22 30.0040000  0  6G28G26G17G23G21G 3
 -12721993.769 7  -9921561.82726  23410993.587
  -1500796.767 6   1634936.46325  24758238.730
 -12675844.908 8  -9886256.88529  22192579.965
 -17180519.592 8 -13033670.12829  21811030.428
 -13366060.639 7 -10428906.24626  23099690.329
   3730014.933 6   2465813.95725  23848523.470
 92  9  3 23 23  0.0040000  0  6G28G26G17G23G21G 3
 -12782107.387 7  -9968403.58726  23399555.072
  -1422526.153 6   1695926.54425  24773134.414
 -12619989.229 8  -9842732.97829  22203208.659
 -17162841.790 8 -13019895.20329  21814394.879
 -13421593.504 7 -10472178.57126  23089122.582
   3843346.118 6   2554123.88225  23870089.940
 92  9  3 23 23 30.0040000  0  6G28G26G17G23G21G 3
 -12841789.558 7 -10014909.15226  23388197.989
  -1343811.789 6   1757262.37025  24788113.767
 -12563829.402 8  -9798972.08229  22213895.718
 -17144755.762 8 -13005802.20829  21817836.556
 -13476812.797 7 -10515206.56826  23078614.777
   3957067.530 6   2642737.89625  23891731.068
 92  9  3 23 24  0.0040000  0  6G28G26G17G23G21G 3
 -12901044.375 7 -10061081.71126  23376922.303
  -1264662.347 6   1818937.25825  24803175.808
 -12507372.971 8  -9754980.06229  22224639.093
 -17126269.060 8 -12991396.96729  21821354.550
 -13531724.532 7 -10557994.86826  23068165.271
   4071170.659 6   2731649.40125  23913443.559
 92  9  3 23 24 30.0040000  0  6G28G26G17G23G21G 3
 -12959875.690 7 -10106924.27026  23365726.926
  -1185086.650 6   1880944.27525  24818317.465
 -12450626.552 8  -9710762.09129  22235436.998
 -17107389.500 8 -12976685.62129  21824947.204
 -13586334.585 7 -10600548.13426  23057773.357
   4185647.144 6   2820851.76625  23935229.464
 92  9  3 23 25  0.0040000  0  6G28G26G17G23G21G 3
 -13018282.133 7 -10152435.75926  23354611.648
  -1105087.597 6   1943281.19125  24833541.872
 -12393590.945 8  -9666318.75329  22246290.501
 -17088118.657 8 -12961669.36529  21828613.965
 -13640643.168 7 -10642866.46026  23047439.478
   4300494.074 6   2910342.80425  23957084.329
 92  9  3 23 25 30.0040000  0  6G28G26G17G23G21G 3
 -13076264.552 7 -10197616.85426  23343577.039
  -1024671.460 6   2005943.08925  24848844.681
 -12336270.524 8  -9621653.50729  22257198.393
 -17068461.365 8 -12946352.00429  21832354.754
 -13694653.414 7 -10684952.32926  23037161.157
   4415705.621 6   3000117.98725  23979007.560
 92  9  3 23 26  0.0040000  0  6G28G26G17G23G21G 3
 -13133816.852 7 -10242462.77926  23332625.213
   -943836.532 6   2068931.30125  24864226.402
 -12278661.517 8  -9576763.37929  22268160.853
 -17048415.319 8 -12930731.69529  21836169.534
 -13748361.390 7 -10726802.64926  23026940.714
   4531283.119 6   3090178.30225  24001002.085
 92  9  3 23 26 30.0040000  0  6G28G26G17G23G21G 3
 -13190930.908 7 -10286967.21226  23321757.761
   -862578.860 6   2132248.94325  24879687.150
 -12220758.630 7  -9531644.26329  22279179.256
 -17027975.563 8 -12914804.61429  21840059.051
 -13801760.190 7 -10768412.07526  23016778.894
   4647231.088 6   3180527.30225  24023065.120
 92  9  3 23 27  0.0040000  0  6G28G26G17G23G21G 3
 -13247595.849 7 -10331121.69527  23310975.176
   -780893.163 6   2195900.10325  24895231.640
 -12162553.818 7  -9486289.86429  22290255.348
 -17007134.993 8 -12898565.20229  21844024.977
 -13854841.383 7 -10809773.99326  23006678.278
   4763555.040 6   3271169.30425  24045200.443
 92  9  3 23 27 30.0040000  0  6G28G26G17G23G21G 3
 -13303805.976 7 -10374921.78327  23300278.631
   -698777.811 6   2259886.06425  24910859.080
 -12104043.934 7  -9440697.76829  22301389.239
 -16985891.208 8 -12882011.59629  21848067.887
 -13907600.543 7 -10850884.98626  22996638.778
   4880256.444 6   3362105.39725  24067408.228
 92  9  3 23 28  0.0040000  0  6G28G26G17G23G21G 3
 -13359559.247 7 -10418365.86827  23289669.198
   -616235.939 6   2324204.38925  24926567.110
 -12045229.969 8  -9394868.70928  22312581.669
 -16964245.832 8 -12865145.06429  21852186.686
 -13960037.891 7 -10891745.21026  22986660.095
   4997332.535 6   3453333.43825  24089686.918
 92  9  3 23 28 30.0040000  0  6G28G26G17G23G21G 3
 -13414856.130 7 -10461454.33127  23279146.673
   -533273.072 6   2388850.76525  24942354.048
 -11986115.582 8  -9348805.55728  22323830.661
 -16942203.602 8 -12847969.29629  21856381.091
 -14012156.424 7 -10932357.02026  22976742.111
   5114778.146 6   3544849.43225  24112037.315
 92  9  3 23 29  0.0040000  0  6G28G26G17G23G21G 3
 -13469692.330 7 -10504183.82227  23268711.485
   -449889.377 6   2453825.01825  24958222.117
 -11926699.216 8  -9302507.08328  22335137.394
 -16919762.854 8 -12830482.98929  21860651.365
 -14063953.626 7 -10972718.41927  22966885.895
   5232593.070 6   3636653.20425  24134456.464
 92  9  3 23 29 30.0040000  0  6G28G26G17G23G21G 3
 -13524057.909 7 -10546546.59127  23258366.550
   -366078.933 6   2519131.83825  24974169.675
 -11866972.950 8  -9255967.16328  22346502.928
 -16896917.284 8 -12812681.23629  21864998.806
 -14115420.959 7 -11012822.82627  22957091.615
   5350782.924 6   3728749.10125  24156946.466
 92  9  3 23 30  0.0050000  0  6G28G26G17G23G21G 3
 -13577951.639 7 -10588541.67327  23248110.956
   -281841.932 6   2584771.01325  24990199.216
 -11806935.516 8  -9209184.74228  22357927.519
 -16873667.661 8 -12794564.64629  21869423.054
 -14166559.720 7 -11052671.14427  22947360.532
   5469349.754 6   3821138.78825  24179508.514
 92  9  3 23 30 30.0050000  0  6G28G26G17G23G21G 3
 -13631364.374 7 -10630161.98327  23237946.475
   -197182.838 6   2650739.12225  25006310.296
 -11746587.477 8  -9162160.30728  22369411.548
 -16850013.313 8 -12776132.66829  21873924.067
 -14217362.676 7 -11092257.83827  22937693.226
   5588286.459 6   3913816.64625  24202141.426
 92  9  3 23 31  0.0050000  0  6G28G26G17G23G21G 3
 -13684295.932 7 -10671407.32227  23227873.475
   -112101.300 6   2717036.36925  25022499.536
 -11685927.331 8  -9114892.66228  22380955.056
 -16825954.464 8 -12757385.51629  21878502.567
 -14267831.038 7 -11131583.78327  22928088.853
   5707594.812 6   4006784.11625  24224845.476
 92  9  3 23 31 30.0050000  0  6G28G26G17G23G21G 3
 -13736744.968 7 -10712276.68127  23217893.568
    -26600.835 6   2783660.09925  25038770.037
 -11624957.146 7  -9067383.43828  22392556.799
 -16801493.592 8 -12738325.08029  21883157.336
 -14317965.805 7 -11170649.80027  22918548.738
   5827271.378 6   4100038.52725  24247619.213
 92  9  3 23 32  0.0050000  0  6G28G26G17G23G21G 3
 -13788711.596 7 -10752770.14227  23208004.261
     59313.770 6   2850606.53625  25055119.380
 -11563679.568 8  -9019634.67528  22404218.083
 -16776634.231 8 -12718954.15829  21887887.610
 -14367768.976 7 -11209457.44027  22909071.072
   5947311.312 6   4193576.04625  24270463.598
 92  9  3 23 32 30.0050000  0  6G28G26G17G23G21G 3
 -13840185.836 7 -10792879.93227  23198208.455
    145647.903 6   2917879.83925  25071548.161
 -11502087.004 8  -8971640.47928  22415938.577
 -16751369.885 8 -12699267.63529  21892695.123
 -14417232.176 7 -11248000.15927  22899658.655
   6067720.112 6   4287401.00625  24293375.385
 92  9  3 23 33  0.0050000  0  6G28G26G17G23G21G 3
 -13891168.851 7 -10832606.91727  23188506.801
    232395.373 6   2985475.23025  25088056.713
 -11440183.784 8  -8923404.21628  22427718.373
 -16725705.217 8 -12679269.20529  21897578.892
 -14466358.491 7 -11286280.38827  22890310.457
   6188492.423 6   4381509.23125  24316357.482
 92  9  3 23 33 30.0050000  0  6G28G26G17G23G21G 3
 -13941657.372 7 -10871948.62327  23178899.185
    319554.259 6   3053391.24425  25104640.626
 -11377969.332 8  -8874925.42828  22439557.478
 -16699641.078 8 -12658959.47529  21902538.797
 -14515146.895 7 -11324297.27627  22881026.953
   6309626.117 6   4475899.03025  24339408.559
 92  9  3 23 34  0.0050000  0  6G28G26G17G23G21G 3
 -13991656.996 7 -10910909.34327  23169385.247
    407114.812 6   3121620.18025  25121304.600
 -11315451.703 7  -8826210.40328  22451454.314
 -16673186.265 8 -12638345.33129  21907573.300
 -14563604.523 7 -11362056.45527  22871805.787
   6431111.802 6   4570563.11125  24362526.745
 92  9  3 23 34 30.0050000  0  6G28G26G17G23G21G 3
 -14041171.523 7 -10949492.07927  23159962.559
    495068.546 6   3190155.56725  25138040.131
 -11252637.227 8  -8777264.07028  22463406.887
 -16646348.093 8 -12617432.46929  21912680.955
 -14611737.310 7 -11399562.49527  22862645.559
   6552940.509 6   4665494.51525  24385709.637
 92  9  3 23 35  0.0050000  0  6G28G26G17G23G21G 3
 -14090191.485 7 -10987689.43327  23150634.158
    583419.764 6   3259000.60225  25154854.717
 -11189520.040 8  -8728081.84428  22475418.131
 -16619120.778 8 -12596216.36929  21917861.776
 -14659537.943 7 -11436809.70227  22853549.396
   6675117.019 6   4760696.88725  24408958.746
 92  9  3 23 35 30.0050000  0  6G28G26G17G23G21G 3
 -14138707.860 7 -11025494.38927  23141402.284
    672173.461 6   3328159.32525  25171743.359
 -11126092.541 8  -8678657.83228  22487488.455
 -16591498.443 8 -12574692.47229  21923118.110
 -14706998.699 7 -11473792.07127  22844517.650
   6797646.137 6   4856174.03125  24432275.819
 92  9  3 23 36  0.0050000  0  6G28G26G17G23G21G 3
 -14186722.971 7 -11062908.75127  23132264.576
    761321.888 6   3397625.57325  25188708.130
 -11062360.087 8  -8628996.17828  22499616.149
 -16563486.880 8 -12552865.25929  21928448.461
 -14754124.046 7 -11510513.09927  22835550.218
   6920520.981 6   4951920.63225  24455659.810
 92  9  3 23 36 30.0050000  0  6G28G26G17G23G21G 3
 -14234238.630 7 -11099933.92627  23123223.185
    850858.825 6   3467394.61425  25205745.784
 -10998327.289 8  -8579100.51228  22511801.577
 -16535091.890 8 -12530739.30029  21933851.461
 -14800917.882 7 -11546975.79527  22826645.692
   7043734.669 6   5047931.18025  24479105.512
 92  9  3 23 37  0.0050000  0  6G28G26G17G23G21G 3
 -14281258.095 7 -11136572.46927  23114274.601
    940776.028 6   3537459.92225  25222855.772
 -10934000.663 8  -8528975.86228  22524042.252
 -16506320.589 8 -12508320.09329  21939326.639
 -14847385.193 7 -11583184.04927  22817803.105
   7167279.586 6   5144199.84825  24502615.840
 92  9  3 23 37 30.0050000  0  6G28G26G17G23G21G 3
 -14327780.886 7 -11172823.96827  23105421.519
   1031069.458 6   3607818.43025  25240037.819
 -10869381.482 7  -8478623.26528  22536338.269
 -16477175.476 8 -12485609.61729  21944872.581
 -14893527.284 7 -11619138.90227  22809022.512
   7291151.718 6   5240723.56025  24526188.205
 92  9  3 23 38  0.0050000  0  6G28G26G17G23G21G 3
 -14373806.719 7 -11208688.23027  23096664.180
   1121734.547 6   3678466.53925  25257291.246
 -10804472.624 7  -8428044.94528  22548689.928
 -16447659.897 8 -12462610.43229  21950489.321
 -14939345.973 7 -11654841.72527  22800302.960
   7415346.501 6   5337498.59125  24549822.999
 92  9  3 23 38 30.0050000  0  6G28G26G17G23G21G 3
 -14419331.727 7 -11244162.25127  23088000.973
   1212770.678 6   3749403.72825  25274614.509
 -10739272.534 7  -8377239.69128  22561096.876
 -16417773.144 8 -12439322.07829  21956177.084
 -14984839.136 7 -11690290.91927  22791645.432
   7539863.318 6   5434524.60325  24573517.968
 92  9  3 23 39  0.0050000  0  6G28G26G17G23G21G 3
 -14464350.925 7 -11279242.13327  23079434.118
   1304178.127 6   3820630.30225  25292008.496
 -10673778.568 7  -8326205.45028  22573560.288
 -16387514.337 8 -12415743.78629  21961935.249
 -15030003.365 7 -11725483.78827  22783050.983
   7664702.763 6   5531802.03525  24597272.167
 92  9  3 23 39 30.0050000  0  7G28G26G11G17G23G21G 3
 -14508862.477 7 -11313926.43427  23070963.342
   1395953.678 6   3892143.68025  25309472.650
    716843.71616   -412506.74635  26592400.390
 -10607992.103 7  -8274943.28228  22586079.534
 -16356884.635 8 -12391876.47929  21967763.605
 -15074838.673 7 -11760420.35327  22774519.509
   7789862.225 6   5629328.78525  24621090.026
 92  9  3 23 40  0.0050000  0  7G28G26G11G17G23G21G 3
 -14552851.520 7 -11348203.59727  23062592.841
   1488107.695 6   3963951.98125  25327008.338
    621390.301 6   -486886.01325  26574236.430
 -10541900.820 7  -8223443.59128  22598656.077
 -16325872.845 8 -12367711.44529  21973664.898
 -15119332.398 7 -11795090.77527  22766052.969
   7915351.436 6   5727112.50125  24644969.214
 92  9  3 23 40 30.0050000  0  7G28G26G11G17G23G21G 3
 -14596318.307 7 -11382073.81127  23054321.377
   1580635.373 6   4036051.41925  25344616.050
    525939.594 6   -561263.19625  26556074.109
 -10475507.095 8  -8171708.23228  22611290.600
 -16294482.550 8 -12343251.48329  21979638.313
 -15163486.624 7 -11829496.61827  22757650.509
   8041166.063 6   5825149.75225  24668911.126
 92  9  3 23 41  0.0050000  0  7G28G26G11G17G23G21G 3
 -14639258.749 7 -11415533.87827  23046150.050
   1673535.780 6   4108441.35025  25362295.099
    430495.153 6   -635635.41025  26537911.066
 -10408809.726 7  -8119736.26828  22623982.554
 -16262713.208 8 -12318496.14629  21985683.979
 -15207298.875 7 -11863636.00227  22749313.240
   8167305.322 6   5923440.00525  24692914.717
 92  9  3 23 41 30.0050000  0  7G28G26G11G17G23G21G 3
 -14681670.584 7 -11448582.04427  23038079.370
   1766806.575 6   4181119.87125  25380044.518
    335059.299 6   -710000.96624  26519749.113
 -10341809.170 7  -8067528.05428  22636732.605
 -16230566.344 8 -12293446.64929  21991801.092
 -15250768.822 7 -11897508.63927  22741041.093
   8293766.656 6   6021981.23225  24716979.523
 92  9  3 23 42  0.0050000  0  7G28G26G11G17G23G21G 3
 -14723563.278 8 -11481225.70027  23030107.978
   1860433.410 6   4254075.76025  25397862.370
    239622.473 6   -784367.41424  26501588.189
 -10274517.261 7  -8015092.81228  22649537.282
 -16198054.546 8 -12268112.77829  21997988.140
 -15293908.071 7 -11931123.62627  22732831.788
   8420536.670 6   6120762.93325  24741103.119
 92  9  3 23 42 30.0050000  0  7G28G26G11G17G23G21G 3
 -14764930.521 8 -11513459.92327  23022235.788
   1954418.691 6   4327311.00625  25415746.465
    144191.011 5   -858729.51424  26483428.985
 -10206930.200 7  -7962427.58428  22662398.649
 -16165174.683 8 -12242492.11029  22004244.529
 -15336712.095 7 -11964477.36627  22724686.769
   8547616.857 6   6219786.37125  24765285.393
 92  9  3 23 43  0.0050000  0  7G28G26G11G17G23G21G 3
 -14805771.575 8 -11545284.10327  23014464.369
   2048758.413 6   4400822.45325  25433699.064
     48765.741 6   -933086.70324  26465270.304
 -10139049.606 7  -7909533.63528  22675316.273
 -16131929.592 8 -12216586.84529  22010571.070
 -15379181.808 7 -11997570.61727  22716604.993
   8675003.339 6   6319048.48525  24789527.069
 92  9  3 23 43 30.0050000  0  7G28G26G11G17G23G21G 3
 -14846079.715 8 -11576693.04827  23006794.107
   2143453.964 6   4474611.14325  25451719.828
    -46646.787 5  -1007434.26523  26447113.315
 -10070871.717 7  -7856408.03028  22688289.846
 -16098316.260 8 -12190394.64329  22016967.499
 -15421312.209 7 -12030399.47727  22708587.912
   8802698.234 6   6418550.91725  24813826.037
 92  9  3 23 44  0.0050000  0  7G28G26G11G17G23G21G 3
 -14885855.620 7 -11607687.24627  22999224.720
   2238500.173 6   4548673.04325  25469805.145
   -142047.453 5  -1081772.37924  26428957.861
 -10002399.444 7  -7803053.02528  22701319.293
 -16064338.644 8 -12163918.57629  22023433.293
 -15463105.999 7 -12062966.04227  22700634.928
   8930696.542 6   6518289.73725  24838182.563
 92  9  3 23 44 30.0050000  0  7G28G26G11G17G23G21G 3
 -14925108.493 7 -11638273.88727  22991754.639
   2333883.529 6   4622997.76325  25487955.804
   -237444.960 5  -1156108.00724  26410802.192
  -9933644.384 7  -7749477.67428  22714403.143
 -16030009.169 8 -12137168.32429  22029966.182
 -15504573.682 7 -12095278.50127  22692743.541
   9058984.162 6   6618254.00925  24862594.016
 92  9  3 23 45  0.0050000  0  7G28G26G11G17G23G21G 3
 -14963830.504 8 -11668446.88527  22984386.151
   2429607.161 6   4697587.52425  25506172.285
   -332831.494 5  -1230435.18324  26392653.556
  -9864601.266 7  -7695677.86328  22727541.291
 -15995323.460 8 -12110140.51729  22036566.054
 -15545709.549 7 -12127332.39127  22684915.648
   9187564.933 6   6718446.71725  24887062.034
 92  9  3 23 45 30.0050000  0  7G28G26G11G17G23G21G 3
 -15002018.549 8 -11698203.78427  22977119.761
   2525669.896 6   4772441.55225  25524452.238
   -428203.934 5  -1304751.26625  26374504.412
  -9795269.499 7  -7641653.13228  22740734.805
 -15960281.763 8 -12082835.29229  22043234.436
 -15586512.310 7 -12159126.72427  22677150.804
   9316437.020 6   6818866.45725  24911585.857
 92  9  3 23 46  0.0050000  0  7G28G26G11G17G23G21G 3
 -15039669.689 8 -11727542.33327  22969954.989
   2622069.950 6   4847558.46625  25542796.994
   -523559.185 5  -1379053.97125  26356357.510
  -9725648.599 7  -7587403.08228  22753982.785
 -15924884.407 8 -12055252.93929  22049970.216
 -15626980.620 8 -12190660.45727  22669449.965
   9445599.050 6   6919512.05825  24936165.356
 92  9  3 23 46 30.0050000  0  7G28G26G11G17G23G21G 3
 -15076774.582 8 -11756455.24227  22962893.249
   2718811.507 6   4922941.46725  25561205.623
   -618887.965 5  -1453336.09025  26338218.043
  -9655731.715 7  -7532922.41828  22767287.963
 -15889125.503 8 -12027388.86529  22056775.023
 -15667107.174 8 -12221927.88427  22661814.193
   9575055.592 6   7020387.19225  24960802.151
 92  9  3 23 47  0.0050000  0  7G28G26G11G17G23G21G 3
 -15113330.652 8 -11784940.49027  22955936.905
   2815893.093 6   4998589.39125  25579679.949
   -714187.100 5  -1527595.16625  26320081.869
  -9585518.432 7  -7478210.77627  22780648.956
 -15853005.821 8 -11999243.67629  22063648.253
 -15706890.837 8 -12252928.11627  22654243.583
   9704804.818 6   7121490.37525  24985493.132
 92  9  3 23 47 30.0050000  0  7G28G26G11G17G23G21G 3
 -15149338.414 7 -11812998.47627  22949084.763
   2913309.286 6   5074498.12525  25598216.170
   -809457.198 5  -1601831.49725  26301953.466
  -9515011.822 7  -7423270.57327  22794066.123
 -15816529.195 8 -11970820.31229  22070589.598
 -15746333.622 8 -12283662.74127  22646738.588
   9834842.148 6   7222818.09125  25010239.072
 92  9  3 23 48  0.0050000  0  7G28G26G11G17G23G21G 3
 -15184792.647 7 -11840625.13527  22942337.902
   3011060.906 6   5150668.17025  25616817.867
   -904692.566 5  -1676040.78325  26283830.640
  -9444208.876 7  -7368099.45128  22807539.579
 -15779693.788 8 -11942117.41229  22077599.125
 -15785432.410 8 -12314129.30227  22639298.182
   9965167.822 6   7324370.52425  25035038.527
 92  9  3 23 48 30.0050000  0  7G28G26G11G17G23G21G 3
 -15219695.545 7 -11867822.20527  22935695.871
   3109141.445 6   5227094.54325  25635481.926
   -999895.296 5  -1750224.69525  26265714.298
  -9373114.561 7  -7312701.30627  22821068.587
 -15742505.035 8 -11913139.16829  22084676.016
 -15824191.085 8 -12344330.83628  22631922.236
  10095775.510 6   7426142.56825  25059890.154
 92  9  3 23 49  0.0050000  0  7G28G26G11G17G23G21G 3
 -15254038.525 7 -11894582.95928  22929161.071
   3207555.073 6   5303780.43025  25654209.484
  -1095056.292 6  -1824376.06225  26247606.953
  -9301722.712 7  -7257071.29927  22834653.860
 -15704957.352 8 -11883881.22729  22091821.160
 -15862602.550 8 -12374261.83628  22624612.918
  10226669.315 6   7528137.66025  25084799.054
 92  9  3 23 49 30.0050000  0  7G28G26G11G17G23G21G 3
 -15287819.065 7 -11920905.45328  22922733.163
   3306299.620 5   5380724.21725  25673000.208
  -1190172.715 6  -1898492.74225  26229505.817
  -9230032.387 7  -7201208.72928  22848296.336
 -15667051.378 8 -11854344.10829  22099034.416
 -15900665.940 8 -12403921.60328  22617369.788
  10357847.534 6   7630354.38725  25109762.859
 92  9  3 23 50  0.0050000  0  7G28G26G11G17G23G21G 3
 -15321038.693 7 -11946790.86828  22916411.999
   3405368.534 6   5457920.76125  25691852.370
  -1285246.268 6  -1972575.93225  26211415.392
  -9158048.329 7  -7145117.24728  22861994.407
 -15628792.705 8 -11824532.15929  22106314.409
 -15938385.034 8 -12433313.07828  22610192.289
  10489303.380 6   7732787.37925  25134777.535
 92  9  3 23 50 30.0050000  0  7G28G26G11G17G23G21G 3
 -15353701.023 7 -11972242.03328  22910196.609
   3504754.431 6   5535364.28625  25710764.752
  -1380279.673 6  -2046627.96725  26193331.579
  -9085776.182 7  -7088801.33127  22875747.408
 -15590187.849 8 -11794450.45929  22113660.899
 -15975764.904 8 -12462440.24228  22603079.394
  10621029.250 6   7835430.88825  25159843.943
 92  9  3 23 51  0.0050000  0  7G28G26G11G17G23G21G 3
 -15385802.140 7 -11997255.87828  22904088.761
   3604456.858 6   5613054.43325  25729736.824
  -1475268.549 6  -2120645.19325  26175255.506
  -9013214.107 7  -7032259.46727  22889556.128
 -15551235.818 8 -11764098.22229  22121073.361
 -16012802.978 8 -12491301.04228  22596030.956
  10753025.128 6   7938284.65025  25184961.145
 92  9  3 23 51 30.0050000  0  7G28G26G11G17G23G21G 3
 -15417331.610 7 -12021824.28828  22898088.406
   3704481.405 5   5690995.62125  25748772.323
  -1570202.325 6  -2194619.48125  26157190.595
  -8940354.883 7  -6975486.04727  22903421.282
 -15511929.486 8 -11733469.91629  22128552.871
 -16049490.816 8 -12519888.96728  22589049.365
  10885296.515 6   8041353.17625  25210133.147
 92  9  3 23 52  0.0050000  0  7G28G26G11G17G23G21G 3
 -15448284.279 7 -12045943.24028  22892197.514
   3804828.749 6   5769188.28925  25767867.651
  -1665075.258 6  -2268546.42225  26139137.350
  -8867194.782 7  -6918478.18127  22917342.147
 -15472267.200 8 -11702564.24729  22136100.266
 -16085824.962 8 -12548201.25428  22582135.404
  11017844.037 6   8144636.86425  25235355.828
 92  9  3 23 52 30.0050000  0  7G28G26G11G17G23G21G 3
 -15478663.852 7 -12069615.63328  22886416.674
   3905490.942 5   5847626.36825  25787023.389
  -1759890.370 6  -2342428.32825  26121093.576
  -8793740.137 7  -6861240.81127  22931320.325
 -15432255.522 8 -11671386.30829  22143714.406
 -16121810.441 8 -12576241.87528  22575288.013
  11150659.982 6   8248129.71325  25260629.987
 92  9  3 23 53  0.0050000  0  7G28G26G11G17G23G21G 3
 -15508466.323 7 -12092838.32728  22880745.189
   4006467.490 5   5926309.36025  25806238.992
  -1854643.253 6  -2416261.66025  26103062.642
  -8719988.595 7  -6803772.08727  22945354.140
 -15391893.447 8 -11639935.34229  22151395.458
 -16157444.691 8 -12604008.78928  22568506.548
  11283743.917 6   8351831.35625  25285955.468
 92  9  3 23 53 30.0050000  0  7G28G26G11G17G23G21G 3
 -15537695.601 7 -12115614.37628  22875183.629
   4107750.385 5   6005231.05725  25825510.943
  -1949337.007 6  -2490048.94325  26085042.490
  -8645946.502 7  -6746076.95827  22959443.886
 -15351188.497 8 -11608217.20529  22159141.164
 -16192733.456 8 -12631506.51828  22561791.167
  11417087.906 6   8455735.67025  25311329.728
 92  9  3 23 54  0.0050000  0  7G28G26G11G17G23G21G 3
 -15566355.139 7 -12137946.46228  22869729.626
   4209331.322 5   6084384.97425  25844842.773
  -2043974.790 6  -2563792.69725  26067033.317
  -8571620.072 7  -6688160.26727  22973587.877
 -15310146.907 8 -11576236.75029  22166951.307
 -16227682.000 8 -12658739.12328  22555140.121
  11550683.481 6   8559836.00525  25336751.894
 92  9  3 23 54 30.0050000  0  7G28G26G11G17G23G21G 3
 -15594446.968 7 -12159836.20028  22864383.316
   4311204.109 5   6163766.30125  25864228.494
  -2138558.146 6  -2637493.95625  26049034.931
  -8497013.330 7  -6630025.16127  22987785.107
 -15268774.021 8 -11543998.14929  22174824.018
 -16262293.795 8 -12685709.32528  22548554.379
  11684524.693 6   8664127.80525  25362220.038
 92  9  3 23 55  0.0050000  0  7G28G26G11G17G23G21G 3
 -15621966.011 7 -12181279.59928  22859146.560
   4413369.919 5   6243375.94625  25883670.871
  -2233081.036 5  -2711148.06825  26031047.382
  -8422123.523 7  -6571669.48027  23002036.591
 -15227068.070 8 -11511499.98429  22182760.484
 -16296565.526 8 -12712414.54828  22542032.605
  11818611.953 6   8768611.24325  25387738.961
 92  9  3 23 55 30.0050000  0  7G28G26G11G17G23G21G 3
 -15648910.358 7 -12202275.18928  22854019.131
   4515826.436 6   6323212.17225  25903166.751
  -2327540.527 5  -2784752.88725  26013071.259
  -8346950.134 7  -6513092.83427  23016342.358
 -15185029.203 8 -11478742.43229  22190760.356
 -16330496.036 8 -12738853.88828  22535575.497
  11952943.861 5   8873285.35825  25413301.070
 92  9  3 23 56  0.0050000  0  7G28G26G11G17G23G21G 3
 -15675278.781 7 -12222822.01828  22849001.895
   4618569.316 6   6403271.52925  25922719.507
  -2421935.394 5  -2858307.29825  25995109.270
  -8271494.688 7  -6454296.40127  23030700.827
 -15142660.290 8 -11445727.69829  22198822.675
 -16364086.363 8 -12765028.14828  22529183.851
  12087516.017 5   8978146.66225  25438908.839
 92  9  3 23 56 30.0050000  0  7G28G26G11G17G23G21G 3
 -15701071.424 7 -12242920.15728  22844093.713
   4721594.903 5   6483551.22225  25942324.159
  -2516265.028 6  -2931810.79225  25977159.698
  -8195760.214 7  -6395282.52527  23045112.491
 -15099964.425 8 -11412458.20129  22206947.671
 -16397338.479 8 -12790938.85428  22522855.822
  12222324.548 5   9083192.10425  25464561.839
 92  9  3 23 57  0.0050000  0  7G28G26G11G17G23G21G 3
 -15726286.985 7 -12262568.66128  22839295.504
   4824900.717 6   6564049.16025  25961981.140
  -2610526.700 6  -3005261.38825  25959224.051
  -8119746.037 7  -6336050.74727  23059577.255
 -15056942.786 8 -11378934.83029  22215134.040
 -16430251.810 8 -12816585.59328  22516592.341
  12357366.680 5   9188419.69525  25490259.519
 92  9  3 23 57 30.0050000  0  7G28G26G11G17G23G21G 3
 -15750923.695 8 -12281766.07628  22834607.200
   4928483.885 6   6644763.24525  25981693.708
  -2704718.112 6  -3078657.30025  25941300.132
  -8043453.347 7  -6276601.89827  23074095.442
 -15013597.003 8 -11345158.90929  22223382.892
 -16462826.186 7 -12841968.19528  22510393.630
  12492639.994 5   9293827.33525  25516001.717
 92  9  3 23 58  0.0050000  0  7G28G26G11G17G23G21G 3
 -15774986.254 8 -12300516.12328  22830028.101
   5032335.626 6   6725686.67725  26001455.493
  -2798843.128 6  -3152001.41525  25923388.287
  -7966888.966 7  -6216941.34827  23088665.038
 -14969934.339 8 -11311136.04229  22231691.490
 -16495068.073 8 -12867091.72728  22504258.885
  12628135.551 5   9399408.18825  25541785.589
 92  9  3 23 58 30.0050000  0  7G28G26G11G17G23G21G 3
 -15798467.987 8 -12318813.58128  22825559.494
   5136458.389 6   6806821.25325  26021269.724
  -2892894.141 6  -3225287.85025  25905490.183
  -7890048.213 7  -6157065.48727  23103287.266
 -14925951.620 8 -11276863.80429  22240060.895
 -16526972.224 7 -12891952.08628  22498187.010
  12763855.634 5   9505163.97025  25567612.417
 92  9  3 23 59  0.0050000  0  7G28G26G11G17G23G21G 3
 -15821359.406 8 -12336651.03728  22821203.629
   5240857.226 6   6888170.95225  26041138.089
  -2986860.996 6  -3298508.75125  25887608.206
  -7812923.668 7  -6096968.44027  23117963.038
 -14881642.321 8 -11242337.07729  22248492.850
 -16558530.671 8 -12916543.06928  22492181.614
  12899805.586 5   9611098.86525  25593483.123
 92  9  3 23 59 30.0050000  0  7G28G26G11G17G23G21G 3
 -15843662.236 8 -12354029.84728  22816959.507
   5345526.362 6   6969731.29025  26061055.409
  -3080744.382 6  -3371664.61325  25869742.041
  -7735518.959 7  -6036653.08727  23132692.561
 -14837010.846 8 -11207559.30129  22256986.269
 -16589746.628 8 -12940867.16128  22486241.668
  13035979.292 5   9717208.16025  25619395.507
 92  9  4  0  0  0.0050000  0  7G28G26G11G17G23G21G 3
 -15865389.836 8 -12370960.45328  22812825.020
   5450448.384 6   7051488.67225  26081021.017
  -3174556.411 6  -3444764.80425  25851890.798
  -7657849.565 7  -5976131.50127  23147472.250
 -14792073.186 8 -11172542.94629  22265536.978
 -16620634.528 8 -12964935.64128  22480364.137
  13172359.963 5   9823478.66725  25645349.014
 92  9  4  0  0 30.0050000  0  7G28G26G11G17G23G21G 3
 -15886549.197 8 -12387448.25228  22808799.125
   5555611.769 6   7133434.10525  26101032.514
  -3268303.721 6  -3517814.64025  25834051.749
  -7579925.035 7  -5915411.11127  23162300.693
 -14746839.931 8 -11137296.24429  22274145.256
 -16651203.528 8 -12988755.62628  22474546.894
  13308935.360 5   9929900.98925  25671339.679
 92  9  4  0  1  0.0050000  0  7G28G26G11G17G23G21G 3
 -15907138.739 8 -12403492.04928  22804881.109
   5661014.368 6   7215565.97225  26121088.807
  -3361983.243 6  -3590811.65525  25816224.971
  -7501745.369 7  -5854491.90027  23177177.834
 -14701311.773 8 -11101819.78129  22282809.038
 -16681452.890 8 -13012326.55928  22468790.640
  13445703.491 5  10036473.41525  25697364.609
 92  9  4  0  1 30.0050000  0  7G28G26G11G17G23G21G 3
 -15927155.373 8 -12419089.41128  22801071.775
   5766655.530 6   7297883.75025  26141192.788
  -3455590.835 6  -3663752.56425  25798411.289
  -7423309.184 7  -5793372.79727  23192104.390
 -14655488.606 8 -11066113.40029  22291528.957
 -16711381.037 7 -13035647.16328  22463095.067
  13582663.412 5  10143195.33724  25723428.017
 92  9  4  0  2  0.0050000  0  7G28G26G11G17G23G21G 3
 -15946598.274 8 -12434239.71228  22797371.976
   5872531.713 6   7380384.63925  26161340.409
  -3549124.351 6  -3736635.73925  25780611.824
  -7344617.173 7  -5732054.37926  23207079.263
 -14609372.330 8 -11030178.64529  22300304.563
 -16740988.150 8 -13058717.64128  22457460.992
  13719812.124 5  10250064.39824  25749525.177
 92  9  4  0  2 30.0050000  0  7G28G26G11G17G23G21G 3
 -15965470.873 8 -12448945.62028  22793780.465
   5978635.344 6   7463062.78225  26181530.745
  -3642586.218 6  -3809463.18625  25762826.591
  -7265675.355 7  -5670541.28626  23222101.223
 -14562969.383 8 -10994020.49829  22309134.626
 -16770279.207 8 -13081541.81828  22451887.121
  13857141.484 5  10357074.11424  25775657.750
 92  9  4  0  3  0.0050000  0  7G28G26G11G17G23G21G 3
 -15983770.380 8 -12463204.96428  22790298.394
   6084964.942 5   7545916.96525  26201765.073
  -3735972.887 6  -3882231.96825  25745056.334
  -7186482.968 7  -5608832.94626  23237171.411
 -14516279.932 8 -10957639.12029  22318019.167
 -16799253.283 8 -13104119.00728  22446373.576
  13994650.606 5  10464224.00824  25801824.867
 92  9  4  0  3 30.0050000  0  7G28G26G11G17G23G21G 3
 -16001490.679 8 -12477012.97928  22786926.210
   6191522.785 5   7628949.02425  26222042.013
  -3829276.669 6  -3954936.14825  25727301.998
  -7107035.512 7  -5546925.84526  23252289.358
 -14469300.341 8 -10921031.65529  22326959.187
 -16827904.944 8 -13126444.97928  22440921.491
  14132341.316 5  10571515.49124  25828026.882
 92  9  4  0  4  0.0050000  0  7G28G26G11G17G23G21G 3
 -16018629.193 8 -12490367.64928  22783665.068
   6298307.971 5   7712158.24425  26242361.163
  -3922493.788 6  -4027572.82125  25709564.011
  -7027332.479 7  -5484819.61326  23267456.313
 -14422030.706 8 -10884198.17729  22335954.162
 -16856232.922 8 -13148518.70128  22435530.955
  14270212.556 5  10678947.31423  25854262.897
 92  9  4  0  4 30.0050000  0  7G28G26G11G17G23G21G 3
 -16035186.012 8 -12503269.05828  22780514.528
   6405316.674 5   7795541.58725  26262724.293
  -4015622.936 6  -4100140.95425  25691842.137
  -6947375.571 7  -5422515.54226  23282671.483
 -14374473.719 8 -10847140.81529  22345004.125
 -16884238.488 8 -13170341.21228  22430201.726
  14408260.316 5  10786516.97824  25880533.532
 92  9  4  0  5  0.0050000  0  7G28G26G11G17G23G21G 3
 -16051158.851 8 -12515715.41528  22777474.133
   6512546.160 5   7879097.03825  26283127.596
  -4108660.955 6  -4172638.04925  25674137.681
  -6867164.910 7  -5360013.76326  23297935.133
 -14326630.148 8 -10809860.09129  22354108.292
 -16911921.303 8 -13191912.21229  22424933.811
  14546482.117 5  10894222.15623  25906836.244
 92  9  4  0  5 30.0050000  0  7G28G26G11G17G23G21G 3
 -16066548.504 8 -12527707.35428  22774545.269
   6619992.303 5   7962821.26625  26303573.221
  -4201607.128 6  -4245063.63125  25656450.619
  -6786702.817 7  -5297316.04826  23313246.736
 -14278503.454 8 -10772358.78429  22363266.391
 -16939283.225 7 -13213233.18229  22419726.757
  14684873.917 5  11002059.77924  25933169.059
 92  9  4  0  6  0.0050000  0  7G28G26G11G17G23G21G 3
 -16081357.193 8 -12539246.58228  22771727.362
   6727649.047 5   8046709.56625  26324060.384
  -4294462.283 6  -4317418.26425  25638780.629
  -6705993.365 7  -5234425.57726  23328605.685
 -14230098.383 8 -10734640.54929  22372477.665
 -16966327.503 8 -13234306.63329  22414580.297
  14823429.315 5  11110024.88724  25959535.648
 92  9  4  0  6 30.0050000  0  7G28G26G11G17G23G21G 3
 -16095582.745 8 -12550331.42328  22769019.937
   6835515.003 5   8130760.93225  26344585.966
  -4387222.605 6  -4389698.97425  25621128.501
  -6625035.948 7  -5171341.89026  23344011.359
 -14181415.037 8 -10696705.48529  22381742.100
 -16993052.854 7 -13255131.56529  22409494.669
  14962146.689 5  11218116.22524  25985933.320
 92  9  4  0  7  0.0050000  0  7G28G26G11G17G23G21G 3
 -16109220.310 8 -12560958.10528  22766424.861
   6943590.545 5   8214975.62725  26365153.781
  -4479881.894 6  -4461900.97825  25603496.815
  -6543826.975 7  -5108062.20026  23359465.074
 -14132451.289 8 -10658551.92929  22391059.712
 -17019456.017 8 -13275705.44529  22404471.107
  15101026.894 5  11326334.51924  26012361.887
 92  9  4  0  7 30.0050000  0  7G28G26G11G17G23G21G 3
 -16122268.037 8 -12571125.14728  22763941.699
   7051874.463 5   8299352.65725  26385759.356
  -4572436.963 6  -4534021.77525  25585883.940
  -6462366.680 7  -5044586.67926  23374966.815
 -14083208.304 8 -10620180.76529  22400430.377
 -17045536.435 8 -13296027.83229  22399507.753
  15240068.001 5  11434678.01324  26038820.540
 92  9  4  0  8  0.0050000  0  7G28G26G11G17G23G21G 3
 -16134723.778 8 -12580830.92528  22761571.781
   7160364.882 5   8383890.63725  26406407.921
  -4664884.174 6  -4606058.52425  25568291.413
  -6380655.351 7  -4980915.51926  23390516.392
 -14033686.020 8 -10581591.98629  22409854.282
 -17071293.076 7 -13316097.93929  22394606.137
  15379267.952 5  11543145.45924  26065310.519
 92  9  4  0  8 30.0050000  0  7G28G26G11G17G23G21G 3
 -16146582.000 8 -12590071.09328  22759315.414
   7269063.414 5   8468590.72625  26427091.771
  -4757216.321 6  -4678005.60025  25550720.256
  -6298688.371 7  -4917045.17626  23406113.974
 -13983881.191 8 -10542783.03729  22419331.910
 -17096721.146 7 -13335911.99529  22389767.404
  15518629.150 5  11651738.43124  26091830.144
 92  9  4  0  9  0.0050000  0  7G28G26G11G17G23G21G 3
 -16157841.975 8 -12598845.09228  22757173.137
   7377966.754 5   8553450.45325  26447813.478
  -4849431.215 6  -4749861.32425  25533172.530
  -6216467.457 7  -4852976.95726  23421759.106
 -13933796.457 7 -10503755.97729  22428862.634
 -17121821.369 8 -13355470.59629  22384991.032
  15658147.712 5  11760454.05124  26118379.378
 92  9  4  0  9 30.0050000  0  7G28G26G11G17G23G21G 3
 -16168512.247 8 -12607159.60328  22755142.581
   7487062.890 5   8638460.45525  26468574.621
  -4941535.985 6  -4821631.25325  25515644.595
  -6134002.417 7  -4788718.51226  23437451.484
 -13883442.619 8 -10464519.23329  22438444.340
 -17146603.323 7 -13374781.20429  22380275.240
  15797811.457 5  11869282.81324  26144955.581
 92  9  4  0 10  0.0050000  0  7G28G26G11G17G23G21G 3
 -16178598.562 8 -12615019.06628  22753223.330
   7596342.505 5   8723613.33025  26489371.299
  -5033534.533 6  -4893318.36925  25498137.899
  -6051300.270 7  -4724275.27726  23453189.209
 -13832827.706 8 -10425079.03829  22448075.572
 -17171073.615 8 -13393848.95129  22375618.843
  15937611.294 5  11978217.59524  26171558.156
 92  9  4  0 10 30.0050000  0  7G28G26G11G17G23G21G 3
 -16188104.488 8 -12622426.27428  22751414.263
   7705798.461 5   8808903.67325  26510199.746
  -5125428.588 6  -4964924.10125  25480650.602
  -5968366.543 7  -4659651.64526  23468971.698
 -13781957.464 7 -10385439.90529  22457755.745
 -17195237.177 8 -13412677.67729  22371020.433
  16077539.628 5  12087252.46324  26198187.008
 92  9  4  0 11  0.0050000  0  7G28G26G11G17G23G21G 3
 -16197027.666 8 -12629379.39128  22749716.890
   7815429.482 5   8894330.41125  26531062.467
  -5217214.374 6  -5036445.46825  25463183.944
  -5885200.807 7  -4594847.18326  23484797.503
 -13730832.050 7 -10345601.93429  22467484.824
 -17219092.742 8 -13431266.41229  22366481.406
  16217594.929 5  12196386.36124  26224838.688
 92  9  4  0 11 30.0050000  0  7G28G26G11G17G23G21G 3
 -16205363.466 8 -12635874.83128  22748130.568
   7925236.787 5   8979894.58425  26551957.208
  -5308885.526 6  -5107877.48825  25445740.078
  -5801799.836 7  -4529859.42826  23500667.677
 -13679449.280 7 -10305563.41329  22477262.665
 -17242636.644 8 -13449612.31229  22362001.309
  16357778.389 5  12305620.12724  26251514.332
 92  9  4  0 12  0.0050000  0  7G28G26G11G17G23G21G 3
 -16213109.230 8 -12641910.48928  22746655.827
   8035218.931 5   9065594.87625  26572889.319
  -5400437.532 6  -5179216.67925  25428318.324
  -5718162.257 7  -4464687.32726  23516583.059
 -13627808.977 7 -10265324.22529  22487089.481
 -17265867.387 8 -13467714.17829  22357580.639
  16498088.738 5  12414952.65824  26278213.905
 92  9  4  0 12 30.0050000  0  7G28G26G11G17G23G21G 3
 -16220267.237 8 -12647488.16528  22745294.210
   8145370.276 5   9151426.99925  26593848.865
  -5491870.737 6  -5250463.29125  25410918.828
  -5634291.940 7  -4399333.85526  23532543.012
 -13575915.658 7 -10224887.88429  22496964.536
 -17288788.027 8 -13485574.39729  22353218.598
  16638520.406 5  12524379.83024  26304937.058
 92  9  4  0 13  0.0050000  0  7G28G26G11G17G23G21G 3
 -16226833.850 8 -12652604.99828  22744044.686
   8255691.202 5   9237391.32425  26614840.966
  -5583179.957 6  -5321613.30525  25393543.605
  -5550187.106 7  -4333797.64726  23548547.452
 -13523768.088 7 -10184253.43229  22506887.807
 -17311396.150 8 -13503191.10029  22348916.289
  16779073.080 5  12633901.14924  26331683.384
 92  9  4  0 13 30.0050000  0  7G28G26G11G17G23G21G 3
 -16232809.946 8 -12657261.71228  22742907.170
   8366177.287 5   9323484.30325  26635864.903
  -5674363.835 6  -5392665.62125  25376190.968
  -5465850.045 7  -4268080.48326  23564597.248
 -13471368.923 7 -10143422.91829  22516859.073
 -17333693.158 8 -13520565.39129  22344673.052
  16919742.606 5  12743513.73624  26358454.550
 92  9  4  0 14  0.0050000  0  7G28G26G11G17G23G21G 3
 -16238192.800 8 -12661456.13828  22741883.103
   8476827.822 5   9409705.55625  26656920.875
  -5765418.015 6  -5463616.89525  25358865.190
  -5381279.226 7  -4202181.15226  23580690.206
 -13418718.115 7 -10102396.32329  22526878.589
 -17355677.416 8 -13537695.97229  22340489.638
  17060527.744 5  12853216.24824  26385245.344
 92  9  4  0 14 30.0050000  0  7G28G26G11G17G23G21G 3
 -16242982.836 8 -12665188.63328  22740972.612
   8587639.378 5   9496052.23625  26678006.932
  -5856340.681 6  -5534465.70925  25341562.899
  -5296476.565 7  -4136101.17226  23596828.684
 -13365818.201 7 -10061175.62829  22536944.538
 -17377350.249 8 -13554583.88129  22336365.574
  17201424.784 5  12963005.97924  26412055.017
 92  9  4  0 15  0.0050000  0  6G28G11G17G23G21G 3
 -16247176.991 8 -12668456.80028  22740173.967
  -5947126.999 6  -5605208.21125  25324286.523
  -5211440.586 7  -4069839.40226  23613009.664
 -13312668.698 8 -10019760.42629  22547058.126
 -17398709.712 8 -13571227.60129  22332300.937
  17342433.207 5  13072882.49724  26438888.540
 92  9  4  0 15 30.0050000  0  6G28G11G17G23G21G 3
 -16250767.980 8 -12671254.99028  22739490.200
  -6037768.058 6  -5675837.54925  25307038.821
  -5126165.911 7  -4003391.60726  23629236.740
 -13259264.533 7  -9978146.79429  22557220.771
 -17419749.517 8 -13587622.26029  22328297.592
  17483556.205 5  13182848.42124  26465744.455
 92  9  4  0 16  0.0050000  0  5G28G11G17G23G21
 -16253757.860 8 -12673584.77028  22738921.093
  -6128263.380 6  -5746353.38025  25289817.544
  -5040654.946 7  -3936759.71126  23645508.954
 -13205609.439 7  -9936337.65328  22567430.603
 -17440472.186 8 -13603769.78029  22324353.913
 92  9  4  0 16 30.0050000  0  5G28G11G17G23G21
 -16256139.261 8 -12675440.39628  22738467.995
  -6218603.586 6  -5816748.29325  25272626.974
  -4954902.026 7  -3869939.27626  23661827.848
 -13151697.938 8  -9894328.69228  22577689.939
 -17460871.505 8 -13619665.33829  22320472.028
 92  9  4  0 17  0.0050000  0  5G28G11G17G23G21
 -16257917.895 8 -12676826.34428  22738128.912
  -6308792.209 6  -5887025.08925  25255463.688
  -4868914.094 7  -3802935.74326  23678190.338
 -13097537.925 7  -9852126.09128  22587996.357
 -17480953.922 8 -13635313.97029  22316650.436
 92  9  4  0 17 30.0050000  0  5G28G11G17G23G21
 -16259091.546 8 -12677740.88628  22737905.393
  -6398824.658 6  -5957180.20625  25238331.038
  -4782690.818 7  -3735748.78026  23694598.221
 -13043129.273 7  -9809729.73628  22598350.168
 -17500717.573 8 -13650714.21029  22312889.363
 92  9  4  0 18  0.0050000  0  5G28G11G17G23G21
 -16259664.200 8 -12678187.10428  22737797.082
  -6488703.165 6  -6027215.38225  25221227.747
  -4696237.525 7  -3668382.61526  23711050.111
 -12988478.357 8  -9767144.63428  22608750.116
 -17520167.598 8 -13665870.06529  22309188.551
 92  9  4  0 18 30.0050000  0  5G28G11G17G23G21
 -16259638.656 8 -12678167.20728  22737801.696
  -6578428.218 6  -6097130.97225  25204153.314
  -4609557.707 6  -3600839.90826  23727544.162
 -12933589.849 8  -9724374.37928  22619194.987
 -17539307.585 8 -13680784.33029  22305545.982
 92  9  4  0 19  0.0050000  0  5G28G11G17G23G21
 -16259016.364 8 -12677682.31528  22737920.617
  -6667998.900 6  -6166926.28325  25187108.747
  -4522654.259 7  -3533122.97026  23744081.712
 -12878466.824 8  -9681421.37228  22629684.267
 -17558139.584 8 -13695458.60929  22301962.231
 92  9  4  0 19 30.0050000  0  5G28G11G17G23G21
 -16257800.618 8 -12676734.98028  22738151.863
  -6757416.156 6  -6236601.99725  25170093.965
  -4435531.642 6  -3465235.23126  23760660.799
 -12823114.615 8  -9638289.79128  22640218.163
 -17576667.420 8 -13709895.87029  22298436.464
 92  9  4  0 20  0.0050000  0  5G28G11G17G23G21
 -16255987.215 8 -12675321.94128  22738497.855
  -6846673.697 6  -6306153.32025  25153109.024
  -4348187.061 7  -3397174.55226  23777281.570
 -12767531.020 8  -9594977.90128  22650795.013
 -17594887.586 8 -13724093.38829  22294969.544
 92  9  4  0 20 30.0050000  0  5G28G11G17G23G21
 -16253579.570 8 -12673445.86528  22738956.128
  -6935772.279 6  -6375580.74725  25136153.405
  -4260625.108 6  -3328944.48626  23793944.341
 -12711721.213 8  -9551489.76128  22661415.228
 -17612804.225 8 -13738054.39829  22291560.182
 92  9  4  0 21  0.0050000  0  5G28G11G17G23G21
 -16250577.725 8 -12671106.76328  22739526.721
  -7024709.867 6  -6444882.72025  25119228.431
  -4172847.277 6  -3260546.21026  23810647.962
 -12655687.584 8  -9507827.20128  22672077.708
 -17630418.133 8 -13751779.51129  22288208.525
 92  9  4  0 21 30.0050000  0  5G28G11G17G23G21
 -16246979.971 8 -12668303.31528  22740211.187
  -7113482.188 6  -6514055.94125  25102335.993
  -4084852.671 6  -3191978.99726  23827392.599
 -12599430.032 8  -9463990.15628  22682783.997
 -17647728.080 8 -13765267.78029  22284914.653
 92  9  4  0 22  0.0050000  0  5G28G11G17G23G21
 -16242783.345 8 -12665033.23128  22741009.706
  -7202083.813 6  -6583096.10525  25085476.500
  -3996639.200 6  -3123241.27226  23844179.479
 -12542947.216 8  -9419977.57728  22693532.373
 -17664731.769 8 -13778517.40829  22281679.016
 92  9  4  0 22 30.0060000  0  5G28G11G17G23G21
 -16237986.986 8 -12661295.81728  22741922.522
  -7290514.658 6  -6652003.22925  25068647.838
  -3908204.538 6  -3054331.16326  23861007.298
 -12486238.428 8  -9375788.93628  22704323.726
 -17681429.901 8 -13791528.93029  22278501.584
 92  9  4  0 23  0.0060000  0  5G28G11G17G23G21
 -16232587.630 8 -12657088.53228  22742949.945
  -7378762.569 6  -6720767.82425  25051854.194
  -3819552.666 6  -2985251.82126  23877876.897
 -12429305.654 8  -9331425.72528  22715157.594
 -17697818.087 8 -13804298.94029  22275383.223
 92  9  4  0 23 30.0060000  0  5G28G11G17G23G21
 -16226588.343 7 -12652413.77328  22744091.047
  -7466831.118 6  -6789392.59925  25035094.918
  -3730684.514 6  -2916003.94826  23894788.810
 -12372151.704 8  -9286890.19728  22726033.584
 -17713900.429 8 -13816830.62629  22272322.583
 92  9  4  0 24  0.0060000  0  5G28G11G17G23G21
 -16219981.486 7 -12647265.58928  22745347.584
  -7554709.845 6  -6857869.50425  25018372.951
  -3641592.819 6  -2846581.88526  23911742.226
 -12314770.591 8  -9242177.65128  22736953.125
 -17729669.484 8 -13829118.20529  22269321.968
 92  9  4  0 24 30.0060000  0  5G28G11G17G23G21
 -16212765.988 8 -12641643.12928  22746721.102
  -7642395.149 6  -6926195.66225  25001686.933
  -3552278.045 6  -2776985.98826  23928738.199
 -12257162.889 8  -9197288.53928  22747915.425
 -17745125.179 8 -13841161.58129  22266380.569
 92  9  4  0 25  0.0060000  0  5G28G11G17G23G21
 -16204940.773 8 -12635545.56228  22748210.672
  -7729883.263 6  -6994368.20225  24985037.232
  -3462740.191 6  -2707216.26626  23945776.714
 -12199329.084 8  -9152223.22928  22758920.665
 -17760266.742 8 -13852960.20429  22263499.191
 92  9  4  0 25 30.0060000  0  5G28G11G17G23G21
 -16196497.660 8 -12628966.52328  22749817.270
  -7817163.488 6  -7062378.72125  24968428.837
  -3372971.751 6  -2637266.84826  23962859.470
 -12141262.855 8  -9106976.83428  22769970.309
 -17775086.724 8 -13864508.25229  22260678.736
 92  9  4  0 26  0.0060000  0  5G28G11G17G23G21
 -16187438.868 8 -12621907.73028  22751541.564
  -7904235.510 6  -7130227.01425  24951859.508
  -3282976.690 6  -2567140.85326  23979984.349
 -12082968.116 8  -9061552.36228  22781063.459
 -17789587.714 8 -13875807.72029  22257918.876
 92  9  4  0 26 30.0060000  0  5G28G11G17G23G21
 -16177763.341 8 -12614368.35728  22753383.320
  -7991095.111 6  -7197909.79125  24935331.317
  -3192754.112 6  -2496837.55526  23997154.061
 -12024444.973 8  -9015949.93128  22792200.258
 -17803768.703 8 -13886857.84229  22255220.432
 92  9  4  0 27  0.0060000  0  5G28G11G17G23G21
 -16167469.610 8 -12606347.26628  22755342.046
  -8077738.029 6  -7265423.72325  24918843.444
   3153591.51016     19655.62531  24014365.791
 -11965693.290 8  -8970169.40028  22803380.088
 -17817628.458 8 -13897657.63929  22252583.119
 92  9  4  0 27 30.0060000  0  5G28G11G17G23G21
 -16156564.105 8 -12597849.48128  22757416.900
  -8164168.159 6  -7332771.85625  24902397.378
   3244262.712 7     90322.75724  24031620.557
 -11906721.357 8  -8924217.26128  22814602.539
 -17831174.159 8 -13908212.73029  22250005.431
 92  9  4  0 28  0.0060000  0  5G28G11G17G23G21
 -16145038.788 8 -12588868.70828  22759609.593
  -8250374.043 7  -7399945.26425  24885993.104
   3335162.053 6    161153.36225  24048918.268
 -11847522.213 8  -8878088.06828  22825867.573
 -17844397.898 8 -13918516.93929  22247489.563
 92  9  4  0 28 30.0060000  0  5G28G11G17G23G21
 -16132898.534 8 -12579408.77828  22761919.591
  -8336357.849 7  -7466945.59925  24869630.644
   3426283.749 6    232157.26725  24066257.525
 -11788102.137 8  -8831786.70928  22837174.204
 -17857304.903 8 -13928574.33529  22245033.264
 92  9  4  0 29  0.0060000  0  5G28G11G17G23G21
 -16120142.926 8 -12569469.36328  22764347.291
  -8422116.377 7  -7533770.40025  24853311.461
   3517627.189 6    303333.93425  24083640.833
 -11728462.298 8  -8785314.12428  22848522.966
 -17869894.880 8 -13938384.70529  22242636.912
 92  9  4  0 29 30.0060000  0  5G28G11G17G23G21
 -16106772.433 8 -12559050.78728  22766891.650
  -8507647.162 7  -7600417.73825  24837035.100
   3609191.294 6    374682.56625  24101064.333
 -11668604.487 8  -8738671.68328  22859913.982
 -17882168.786 8 -13947948.77629  22240301.499
 92  9  4  0 30  0.0060000  0  5G28G11G17G23G21
 -16092792.693 8 -12548157.49528  22769551.510
  -8592952.715 7  -7666889.57925  24820801.579
   3700969.517 6    446198.01925  24118528.971
 -11608535.523 8  -8691864.70428  22871344.616
 -17894132.188 8 -13957270.89929  22238024.354
 92  9  4  0 30 30.0060000  0  5G28G11G17G23G21
 -16078202.630 8 -12536788.63428  22772327.716
  -8678028.805 7  -7733182.60225  24804612.112
   3792962.257 6    517880.62625  24136034.337
 -11548255.752 7  -8644893.45928  22882815.829
 -17905784.084 8 -13966350.30429  22235808.008
 92  9  4  0 31  0.0060000  0  5G28G11G17G23G21
 -16062999.420 8 -12524941.98028  22775220.752
  -8762869.900 7  -7799292.55225  24788468.058
   3885171.430 6    589731.89225  24153580.718
 -11487763.578 8  -8597756.70628  22894326.536
 -17917122.220 8 -13975185.20529  22233650.606
 92  9  4  0 31 30.0060000  0  5G28G11G17G23G21
 -16047178.759 8 -12512614.19228  22778231.457
  -8847468.345 7  -7865213.39625  24772369.166
   3977600.771 6    661754.73325  24171169.728
 -11427055.674 8  -8550451.87128  22905879.210
 -17928142.264 8 -13983772.24729  22231553.676
 92  9  4  0 32  0.0060000  0  5G28G11G17G23G21
 -16030737.898 8 -12499803.14028  22781360.583
  -8931817.723 7  -7930940.13525  24756318.458
   4070252.762 6    733951.03925  24188801.541
 -11366130.169 8  -8502977.46028  22917473.713
 -17938841.100 8 -13992108.99629  22229517.314
 92  9  4  0 32 30.0060000  0  5G28G11G17G23G21
 -16013676.137 7 -12486508.27528  22784607.366
  -9015914.637 7  -7996470.19725  24740315.428
   4163127.065 6    806320.60325  24206475.768
 -11304988.075 7  -8455334.27228  22929108.209
 -17949218.597 8 -14000195.35729  22227542.352
 92  9  4  0 33  0.0060000  0  5G28G11G17G23G21
 -15995992.535 7 -12472728.84928  22787972.356
  -9099755.193 7  -8061800.46925  24724360.771
   4256223.828 6    878863.49926  24224190.674
 -11243630.007 8  -8407522.81628  22940783.905
 -17959273.988 8 -14008030.72029  22225628.579
 92  9  4  0 33 30.0060000  0  5G28G11G17G23G21
 -15977680.909 8 -12458460.06428  22791457.101
  -9183329.778 7  -8126923.48125  24708456.640
   4349549.018 6    951584.39426  24241949.208
 -11182050.196 7  -8359538.55028  22952501.734
 -17969000.981 8 -14015610.20129  22223777.819
 92  9  4  0 34  0.0060000  0  5G28G11G17G23G21
 -15958743.801 7 -12443703.88628  22795060.958
  -9266637.581 7  -8191838.61625  24692604.455
   4443099.948 6   1024481.18525  24259750.932
 -11120252.082 8  -8311384.19828  22964262.141
 -17978402.162 8 -14022935.80129  22221988.796
 92  9  4  0 34 30.0060000  0  5G28G11G17G23G21
 -15939185.126 7 -12428463.37828  22798782.662
  -9349678.977 7  -8256546.18525  24676802.104
   4536871.593 6   1097549.95825  24277595.060
 -11058240.622 8  -8263063.57128  22976062.284
 -17987481.299 8 -14030010.45329  22220261.053
 92  9  4  0 35  0.0060000  0  5G28G11G17G23G21
 -15919007.376 8 -12412740.47628  22802622.252
  -9432453.474 7  -8321045.74825  24661050.563
   4630860.686 6   1170788.19725  24295481.099
 -10996019.467 8  -8214579.57828  22987902.926
 -17996241.050 8 -14036836.20829  22218594.339
 92  9  4  0 35 30.0060000  0  5G28G11G17G23G21
 -15898209.113 8 -12396534.04228  22806580.303
  -9514955.896 7  -8385333.32125  24645349.751
   4725069.014 6   1244197.21125  24313409.456
 -10933588.007 8  -8165931.70428  22999782.912
 -18004679.674 8 -14043411.77629  22216988.559
 92  9  4  0 36  0.0060000  0  5G28G11G17G23G21
 -15876790.912 8 -12379844.55728  22810656.460
  -9597183.602 7  -8449406.82025  24629702.454
   4819495.341 6   1317776.16825  24331378.571
 -10870948.009 8  -8117121.32128  23011702.828
 -18012797.615 8 -14049737.42329  22215443.659
 92  9  4  0 36 30.0060000  0  5G28G11G17G23G21
 -15854747.563 8 -12362667.92928  22814851.761
  -9679128.124 7  -8513259.68426  24614108.824
   4914144.122 6   1391528.40425  24349388.773
 -10808094.927 8  -8068144.89828  23023663.080
 -18020589.830 8 -14055809.28429  22213960.518
 92  9  4  0 37  0.0060000  0  5G28G11G17G23G21
 -15832074.896 7 -12345000.93828  22819166.070
  -9760781.762 7  -8576885.85826  24598571.772
   5009018.947 6   1465456.82425  24367443.361
 -10745025.496 8  -8018999.89328  23035664.760
 -18028052.042 8 -14061623.98029  22212540.709
 92  9  4  0 37 30.0060000  0  5G28G11G17G23G21
 -15808773.917 7 -12326844.34728  22823599.841
  -9842139.087 7  -8640283.47726  24583089.170
   5104118.230 6   1539560.13525  24385538.993
 -10681741.643 8  -7969687.81027  23047707.563
 -18035185.032 8 -14067182.14529  22211183.585
 92  9  4  0 38  0.0060000  0  5G28G11G17G23G21
 -15784844.133 7 -12308197.77128  22828153.289
  -9923204.822 7  -8703449.22126  24567662.682
   5199442.592 6   1613838.78625  24403678.514
 -10618243.434 8  -7920208.69827  23059791.178
 -18041987.880 8 -14072483.06229  22209889.393
 92  9  4  0 38 30.0060000  0  5G28G11G17G23G21
 -15760290.544 7 -12289065.12828  22832825.374
 -10003971.197 7  -8766384.01526  24552292.981
   5294986.925 6   1688288.91725  24421860.130
 -10554536.745 8  -7870567.12227  23071914.225
 -18048465.462 8 -14077530.52029  22208657.085
 92  9  4  0 39  0.0060000  0  5G28G11G17G23G21
 -15735114.489 7 -12269447.45828  22837616.446
 -10084439.506 7  -8829086.58226  24536980.153
   5390748.796 6   1762908.48725  24440082.036
 -10490623.938 8  -7820764.95327  23084076.207
 -18054619.292 8 -14082325.71729  22207485.650
 92  9  4  0 39 30.0060000  0  5G28G11G17G23G21
 -15709314.740 7 -12249343.77028  22842525.571
 -10164604.554 7  -8891552.79926  24521725.895
   5486729.628 6   1837698.71125  24458345.912
 -10426503.956 7  -7770801.33627  23096277.711
 -18060447.525 8 -14086867.18129  22206376.893
 92  9  4  0 40  0.0060000  0  5G28G11G17G23G21
 -15682896.563 7 -12228758.18428  22847553.008
 -10244467.777 7  -8953783.84326  24506528.504
   5582924.363 6   1912655.61425  24476651.685
 -10362182.655 7  -7720680.85127  23108517.984
 -18065955.104 8 -14091158.79629  22205328.380
 92  9  4  0 40 30.0060000  0  5G28G11G17G23G21
 -15655860.533 7 -12207691.16828  22852697.276
 -10324026.292 7  -9015777.46526  24491388.813
   5679331.413 6   1987777.95725  24494997.854
 -10297661.531 7  -7670404.66227  23120795.886
 -18071142.587 8 -14095200.97929  22204341.366
 92  9  4  0 41  0.0060000  0  5G28G11G17G23G21
 -15628206.700 7 -12186142.74928  22857959.246
 -10403276.411 7  -9077530.77126  24476307.804
   5775950.952 6   2063065.87825  24513384.058
 -10232941.163 7  -7619973.22127  23133111.403
 -18076009.486 8 -14098993.36829  22203415.493
 92  9  4  0 41 30.0060000  0  5G28G11G17G23G21
 -15599934.674 7 -12164112.60228  22863339.317
 -10482214.090 7  -9139040.64926  24461286.092
   5872782.888 6   2138519.27425  24531810.830
 -10168021.875 7  -7569386.78127  23145465.089
 -18080555.163 8 -14102535.45629  22202550.314
 92  9  4  0 42  0.0060000  0  5G28G11G17G23G21
 -15571040.843 7 -12141597.93728  22868837.813
 -10560831.783 7  -9200301.14926  24446326.540
   5969830.668 6   2214140.90525  24550278.507
 -10102900.368 8  -7518642.74727  23157857.208
 -18084775.341 8 -14105823.89629  22201747.202
 92  9  4  0 42 30.0060000  0  5G28G11G17G23G21
 -15541523.092 7 -12118597.12928  22874455.504
 -10639123.809 7  -9261307.91226  24431427.856
   6067096.022 6   2289932.06025  24568788.464
 -10037575.316 8  -7467740.14627  23170288.432
 -18088668.011 8 -14108857.14729  22201006.583
 92  9  4  0 43  0.0060000  0  5G28G11G17G23G21
 -15511381.295 7 -12095110.02328  22880191.244
 -10717086.254 7  -9322057.83726  24416591.464
   6164579.039 6   2365892.75725  24587338.560
  -9972046.758 8  -7416678.93427  23182758.530
 -18092232.505 8 -14111634.66729  22200328.183
 92  9  4  0 43 30.0060000  0  5G28G11G17G23G21
 -15480615.850 7 -12071136.95028  22886045.951
 -10794715.272 7  -9382547.95526  24401820.039
   6262279.279 6   2442022.80425  24605930.949
  -9906315.568 8  -7365459.84427  23195266.899
 -18095468.386 8 -14114156.12429  22199712.100
 92  9  4  0 44  0.0060000  0  5G28G11G17G23G21
 -15449224.087 7 -12046675.86228  22892019.803
 -10872004.334 7  -9442773.18026  24387112.835
   6360199.845 6   2518324.50825  24624563.751
  -9840379.352 8  -7314080.97327  23207814.764
 -18098372.569 8 -14116419.12729  22199159.151
 92  9  4  0 44 30.0060000  0  5G28G11G17G23G21
 -15417209.393 7 -12021729.35328  22898111.407
 -10948952.925 7  -9502733.10026  24372469.348
   6458336.920 6   2594794.87125  24643239.151
  -9774241.886 8  -7262545.29827  23220400.752
 -18100947.977 8 -14118425.92929  22198668.992
 92  9  4  0 45  0.0060000  0  5G28G11G17G23G21
 -15384573.116 8 -11996298.49928  22904322.025
 -11025558.841 7  -9562426.01526  24357892.155
   6556689.020 6   2671432.84625  24661954.464
  -9707905.616 8  -7210854.70927  23233023.512
 -18103195.644 8 -14120177.36629  22198241.089
 92  9  4  0 45 30.0060000  0  5G28G11G17G23G21
 -15351322.106 7 -11970388.64328  22910650.097
 -11101824.579 7  -9621853.83526  24343377.980
   6655249.542 6   2748233.19225  24680709.852
  -9641376.982 8  -7159014.22427  23245683.108
 -18105121.565 8 -14121678.06329  22197874.631
 92  9  4  0 46  0.0060000  0  5G28G11G17G23G21
 -15317461.341 8 -11944003.63528  22917093.914
 -11177751.066 7  -9681017.33226  24328930.329
   6754013.867 6   2825192.35025  24699504.420
  -9574661.049 8  -7107027.79327  23258379.118
 -18106730.355 8 -14122931.67029  22197568.834
 92  9  4  0 46 30.0060000  0  5G28G11G17G23G21
 -15282990.249 7 -11917143.05828  22923653.785
 -11253333.679 7  -9739912.83726  24314547.901
   6852981.724 6   2902310.11125  24718337.963
  -9507757.580 8  -7054895.23627  23271110.275
 -18108020.668 8 -14123937.10229  22197323.193
 92  9  4  0 47  0.0060000  0  5G28G11G17G23G21
 -15247913.858 8 -11889810.83328  22930328.352
 -11328573.479 7  -9798541.24326  24300228.903
   6952148.233 6   2979582.64925  24737208.490
  -9440671.917 7  -7002620.70327  23283875.728
 -18108996.883 8 -14124697.78029  22197137.222
 92  9  4  0 47 30.0060000  0  5G28G11G17G23G21
 -15212229.225 7 -11862004.63328  22937119.252
 -11403463.493 7  -9856897.08726  24285978.804
   7051516.418 6   3057012.37925  24756116.335
  -9373401.266 7  -6950202.02427  23296677.515
 -18109655.482 8 -14125210.98029  22197012.627
 92  9  4  0 48  0.0060000  0  5G28G11G17G23G21
 -15175937.805 8 -11833725.63428  22944025.252
 -11478000.996 7  -9914978.22426  24271793.548
   7151085.351 6   3134598.49325  24775064.682
  -9305947.163 7  -6897640.40527  23309513.160
 -18109997.193 8 -14125477.23329  22196947.144
 92  9  4  0 48 30.0060000  0  5G28G11G17G23G21
 -15139041.005 8 -11804974.88828  22951046.510
 -11552182.946 7  -9972782.32626  24257677.767
   7250853.906 6   3212340.17825  24794050.055
  -9238311.067 7  -6844936.95827  23322383.243
 -18110022.541 8 -14125496.98629  22196942.676
 92  9  4  0 49  0.0060000  0  5G28G11G17G23G21
 -15101540.382 8 -11775753.65828  22958182.242
 -11626007.433 7 -10030307.89426  24243630.182
   7350819.853 6   3290235.64525  24813073.072
  -9170494.867 7  -6792093.17127  23335288.348
 -18109732.824 8 -14125271.24029  22196997.439
 92  9  4  0 49 30.0060000  0  5G28G11G17G23G21
 -15063442.883 7 -11746067.30828  22965431.423
 -11699476.418 7 -10087556.40826  24229649.864
   7450977.158 6   3368280.24525  24832133.453
  -9102505.155 7  -6739114.18827  23348226.518
 -18109133.769 8 -14124804.43329  22197111.437
 92  9  4  0 50  0.0060000  0  5G28G11G17G23G21
 -15024751.790 8 -11715918.41828  22972794.244
 -11772589.311 7 -10144527.49126  24215736.314
   7551322.624 6   3446471.48125  24851229.214
  -9034345.582 8  -6686002.83427  23361196.966
 -18108227.959 8 -14124098.60529  22197283.971
 92  9  4  0 50 30.0060000  0  5G28G11G17G23G21
 -14985466.656 8 -11685306.65028  22980270.350
 -11845341.541 7 -10201217.52626  24201891.839
   7651856.366 6   3524809.39925  24870359.636
  -8966015.464 7  -6632758.60727  23374199.208
 -18107014.275 8 -14123152.88429  22197514.600
 92  9  4  0 51  0.0060000  0  5G28G11G17G23G21
 -14945586.169 7 -11654230.95828  22987859.026
 -11917727.604 7 -10257622.23426  24188117.475
   7752580.300 6   3603295.49325  24889526.852
  -8897513.765 7  -6579380.67127  23387235.124
 -18105490.683 8 -14121965.67329  22197804.470
 92  9  4  0 51 30.0060000  0  5G28G11G17G23G21
 -14905111.975 7 -11622692.65428  22995560.877
 -11989745.049 7 -10313739.70826  24174413.031
   7853492.682 6   3681928.48125  24908728.884
  -8828842.364 7  -6525870.48727  23400302.229
 -18103658.150 8 -14120537.72529  22198153.299
 92  9  4  0 52  0.0060000  0  5G28G11G17G23G21
 -14864040.151 7 -11590688.62627  23003376.093
 -12061385.082 7 -10369563.09026  24160780.290
   7954598.457 6   3760712.13725  24927968.068
  -8759996.604 7  -6472224.46727  23413403.538
 -18101511.243 8 -14118864.80229  22198561.479
 92  9  4  0 52 30.0060000  0  5G28G11G17G23G21
 -14822375.536 7 -11558222.73127  23011304.756
 -12132648.414 7 -10425092.92426  24147218.898
   8055892.518 6   3839642.53525  24947243.970
  -8690981.217 7  -6418446.25127  23426537.195
 -18099054.120 8 -14116950.16129  22199029.380
 92  9  4  0 53  0.0060000  0  5G28G11G17G23G21
 -14780112.674 7 -11525290.65727  23019347.575
 -12203524.894 7 -10480321.33326  24133731.783
   8157381.154 6   3918724.50625  24966557.464
  -8621790.390 7  -6364531.34027  23439704.000
 -18096280.258 8 -14114788.70929  22199557.325
 92  9  4  0 53 30.0060000  0  5G28G11G17G23G21
 -14737254.019 7 -11491894.30027  23027503.648
 -12274012.971 7 -10535247.09326  24120319.020
   8259061.834 6   3997956.14925  24985906.539
  -8552426.330 7  -6310481.42927  23452903.468
 -18093191.582 8 -14112381.95729  22200145.208
 92  9  4  0 54  0.0060000  0  5G28G11G17G23G21
 -14693804.954 7 -11458037.94327  23035772.496
 -12344113.619 7 -10589870.95226  24106979.547
   8360929.357 6   4077333.35725  25005290.050
  -8482894.350 7  -6256300.70327  23466134.696
 -18089792.542 8 -14109733.35029  22200792.182
 92  9  4  0 54 30.0060000  0  5G28G11G17G23G21
 -14649767.326 7 -11423722.91827  23044151.937
 -12413824.204 7 -10644190.87326  24093713.870
   8462982.302 6   4156855.07725  25024712.064
  -8413196.091 7  -6201990.37327  23479398.129
 -18086083.953 8 -14106843.54129  22201498.023
 92  9  4  0 55  0.0060000  0  5G28G11G17G23G21
 -14605139.551 7 -11388948.05427  23052644.086
 -12483138.382 7 -10698201.90226  24080523.582
   8565223.293 6   4236523.34625  25044166.661
  -8343329.510 7  -6147548.90727  23492693.756
 -18082062.527 8 -14103709.96329  22202262.834
 92  9  4  0 55 30.0060000  0  5G28G11G17G23G21
 -14559916.777 8 -11353709.55527  23061248.939
 -12552046.633 7 -10751896.63726  24067411.279
   8667657.565 6   4316342.16125  25063658.370
  -8273289.485 7  -6092972.26427  23506021.479
 -18077722.429 8 -14100328.07529  22203089.061
 92  9  4  0 56  0.0060000  0  5G28G11G17G23G21
 -14514097.263 8 -11318006.05927  23069968.332
 -12620543.271 7 -10805270.60826  24054376.702
   8770287.121 6   4396313.16925  25083189.545
  -8203073.947 7  -6038258.86627  23519383.236
 -18073061.219 8 -14096695.96229  22203976.328
 92  9  4  0 56 30.0060000  0  6G28G11G17G23G21G12
 -14467684.352 7 -11281840.16727  23078800.079
 -12688627.082 7 -10858322.91126  24041420.479
   8873108.250 6   4476433.45425  25102756.138
  -8132686.121 7  -5983411.24127  23532777.897
 -18068081.706 8 -14092815.81529  22204923.871
   1292758.56715    -61037.88431  26476869.778
 92  9  4  0 57  0.0060000  0  6G28G11G17G23G21G12
 -14420677.777 8 -11245211.70827  23087745.516
 -12756292.889 7 -10911049.49626  24028544.164
   8976122.955 6   4556704.59225  25122359.128
  -8062124.861 7  -5928428.44627  23546204.772
 -18062781.968 8 -14088686.14829  22205932.784
   1232134.530 5   -108277.00821  26465333.632
 92  9  4  0 57 30.0060000  0  6G28G11G17G23G21G12
 -14373082.185 7 -11208124.25627  23096802.934
 -12823540.863 7 -10963450.49026  24015746.623
   9079326.980 6   4637123.25825  25141997.528
  -7991393.998 7  -5873313.48527  23559664.704
 -18057165.203 8 -14084309.45129  22207001.474
   1171874.274 5   -155233.28021  26453865.408
 92  9  4  0 58  0.0060000  0  6G28G11G17G23G21G12
 -14324899.201 7 -11170579.09327  23105972.687
 -12890368.313 7 -11015523.79626  24003029.870
   9182718.584 6   4717688.11825  25161672.350
  -7920495.491 7  -5818067.92726  23573156.034
 -18051232.264 8 -14079686.37229  22208130.642
   1111980.740 5   -201904.23121  26442470.023
 92  9  4  0 58 30.0060000  0  6G28G11G17G23G21G12
 -14276134.995 7 -11132581.03927  23115252.673
 -12956776.759 7 -11067270.61126  23990392.839
   9286292.427 6   4798394.90025  25181381.762
  -7849434.724 7  -5762695.90126  23586678.390
 -18044988.179 8 -14074820.84729  22209318.770
   1052452.869 5   -248289.53221  26431141.429
 92  9  4  0 59  0.0060000  0  6G28G11G17G23G21G12
 -14226787.242 7 -11094128.29427  23124642.423
 -13022758.861 7 -11118685.21726  23977837.038
   9390051.323 6   4879245.93825  25201127.280
  -7778208.681 7  -5707195.10226  23600232.609
 -18038428.828 8 -14069709.66329  22210566.557
    993298.132 5   -294384.17121  26419883.757
 92  9  4  0 59 30.0060000  0  6G28G11G17G23G21G12
 -14176856.977 7 -11055221.61627  23134143.052
 -13088311.295 7 -11169765.00626  23965362.813
   9493994.900 6   4960240.89425  25220907.941
  -7706817.720 7  -5651565.78626  23613817.364
 -18031554.284 8 -14064352.87729  22211874.626
    934520.297 5   -340184.93222  26408698.793
 92  9  4  1  0  0.0060000  0  6G28G11G17G23G21G12
 -14126342.561 7 -11015859.74927  23143755.947
 -13153427.878 7 -11220505.18626  23952971.032
   9598125.105 6   5041381.22925  25240723.286
  -7635259.908 7  -5595806.47026  23627434.447
 -18024361.810 8 -14058748.34229  22213243.194
    876125.970 5   -385687.01822  26397585.962
 92  9  4  1  0 30.0060000  0  6G28G11G17G23G21G12
 -14075247.118 7 -10976045.17627  23153479.797
 -13218106.886 7 -11270904.39826  23940663.043
   9702440.223 6   5122665.71025  25260574.556
  -7563537.647 7  -5539918.99726  23641083.638
 -18016853.341 8 -14052897.59029  22214672.144
    818116.957 5   -430888.74423  26386549.686
 92  9  4  1  1  0.0060000  0  6G28G11G17G23G21G12
 -14023567.514 7 -10935775.37927  23163314.419
 -13282340.120 7 -11320956.23826  23928439.845
   9806943.686 6   5204096.91925  25280458.953
  -7491646.548 7  -5483899.96826  23654764.170
 -18009024.065 8 -14046796.85729  22216162.151
    760501.930 5   -475783.55223  26375585.045
 92  9  4  1  1 30.0060000  0  6G28G11G17G23G21G12
 -13971304.310 7 -10895050.81627  23173260.037
 -13346123.822 7 -11370657.81626  23916302.191
   9911635.265 6   5285674.67425  25300380.481
  -7419586.808 7  -5427749.52626  23668476.277
 -18000873.174 8 -14040445.51729  22217712.807
    703285.002 5   -520368.15824  26364697.302
 92  9  4  1  2  0.0060000  0  5G28G11G17G23G21
 -13918462.429 7 -10853875.36527  23183315.157
 -13409457.807 7 -11420008.96826  23904249.794
  10016511.174 6   5367396.12425  25320338.754
  -7347362.451 7  -5371470.82626  23682220.309
 -17992404.117 8 -14033846.25329  22219324.441
 92  9  4  1  2 30.0060000  0  5G28G11G17G23G21
 -13865040.758 7 -10812248.12027  23193480.316
 -13472336.869 7 -11469005.62626  23892285.020
  10121572.841 6   5449262.33025  25340330.944
  -7274972.129 7  -5315062.79626  23695995.027
 -17983614.898 8 -14026997.51329  22220996.983
 92  9  4  1  3  0.0060000  0  5G28G11G17G23G21
 -13811047.782 7 -10770175.67327  23203755.156
 -13534764.192 7 -11517650.28726  23880405.551
  10226812.982 6   5531267.58425  25360355.424
  -7202423.019 7  -5258531.02626  23709800.899
 -17974512.204 8 -14019904.50529  22222729.433
 92  9  4  1  3 30.0060000  0  5G28G11G17G23G21
 -13756492.758 7 -10727665.30827  23214136.768
 -13596744.619 7 -11565946.71626  23868610.609
  10332222.578 6   5613404.87125  25380412.847
  -7129724.168 7  -5201882.57726  23723635.016
 -17965104.185 8 -14012573.58829  22224519.816
 92  9  4  1  4  0.0060000  0  5G28G11G17G23G21
 -13701365.442 7 -10684708.99027  23224627.025
 -13658262.673 7 -11613882.86126  23856904.214
  10437813.363 6   5695683.33825  25400507.860
  -7056863.946 7  -5145108.40526  23737500.481
 -17955378.918 8 -14004995.46329  22226370.135
 92  9  4  1  4 30.0060000  0  6G28G11G17G23G21G12
 -13645670.292 7 -10641310.19827  23235226.370
 -13719318.179 7 -11661458.58526  23845285.343
  10543581.511 6   5778100.01825  25420635.774
  -6983845.883 7  -5088211.22726  23751394.885
 -17945339.332 8 -13997172.40329  22228280.612
     -6362.13715    -18968.75031  26300985.485
 92  9  4  1  5  0.0060000  0  6G28G11G17G23G21G12
 -13589410.449 7 -10597471.39327  23245932.146
 -13779909.429 8 -11708672.53726  23833755.305
  10649524.322 6   5860652.77325  25440795.036
  -6910672.351 7  -5031192.88726  23765319.135
 -17934987.073 8 -13989105.72529  22230250.759
    -60738.963 5    -61337.52121  26290629.235
 92  9  4  1  5 30.0060000  0  6G28G11G17G23G21G12
 -13532585.976 7 -10553192.61327  23256745.310
 -13840031.677 8 -11755521.02426  23822314.796
  10755642.353 6   5943342.14625  25460989.824
  -6837342.622 7  -4974052.85926  23779273.301
 -17924321.197 8 -13980794.65629  22232280.623
   -114696.117 5   -103385.10521  26280361.275
 92  9  4  1  6  0.0060000  0  6G28G11G17G23G21G12
 -13475199.205 7 -10508475.68227  23267665.050
 -13899682.387 8 -11802002.11226  23810963.716
  10861934.617 6   6026167.22025  25481218.047
  -6763857.946 7  -4916792.07126  23793257.040
 -17913342.165 8 -13972239.56429  22234370.024
   -168230.698 5   -145099.97421  26270173.260
 92  9  4  1  6 30.0060000  0  6G28G11G17G23G21G12
 -13417250.198 7 -10463320.64727  23278692.843
 -13958856.467 8 -11848111.77226  23799703.199
  10968402.217 5   6109128.90525  25501479.307
  -6690216.998 7  -4859409.53226  23807270.036
 -17902047.994 8 -13963438.91729  22236519.518
   -221337.194 5   -186481.35121  26260064.835
 92  9  4  1  7  0.0060000  0  6G28G11G17G23G21G12
 -13358741.181 7 -10417729.22827  23289826.617
 -14017551.428 8 -11893848.09927  23788534.453
  11075043.261 5   6192225.75025  25521770.691
  -6616421.179 7  -4801906.27926  23821313.727
 -17890439.858 8 -13954393.61429  22238728.507
   -274013.095 5   -227527.45922  26250044.525
 92  9  4  1  7 30.0060000  0  6G28G11G17G23G21G12
 -13299669.809 7 -10371699.62127  23301067.073
 -14075760.294 8 -11939205.66427  23777457.640
  11181861.399 5   6275460.58125  25542097.752
  -6542467.504 7  -4744280.08226  23835386.924
 -17878514.174 8 -13945100.87529  22240997.498
   -326251.053 5   -268232.26123  26240103.626
 92  9  4  1  8  0.0060000  0  6G28G11G17G23G21G12
 -13240041.405 7 -10325235.95527  23312414.029
 -14133483.116 8 -11984184.46827  23766472.893
  11288851.681 5   6358829.59225  25562457.712
  -6468359.766 7  -4686533.79426  23849489.077
 -17866273.979 8 -13935563.07729  22243326.515
   -378050.934 5   -308595.79823  26230245.595
 92  9  4  1  8 30.0060000  0  6G28G11G17G23G21G12
 -13179857.919 7 -10278339.77727  23323866.313
 -14190716.902 8 -12028782.21927  23755581.451
  11396013.449 5   6442332.22325  25582849.970
  -6394098.914 7  -4628668.22026  23863620.171
 -17853719.447 8 -13925780.31829  22245715.412
   -429409.271 5   -348615.23323  26220471.763
 92  9  4  1  9  0.0060000  0  6G28G11G17G23G21G12
 -13119116.192 7 -10231008.58527  23335424.661
 -14247453.781 8 -12072992.77427  23744785.397
  11503350.716 5   6525971.55325  25603276.039
  -6319680.793 7  -4570680.07126  23877781.725
 -17840846.380 8 -13915749.35729  22248164.915
   -480318.423 5   -388284.70424  26210782.735
 92  9  4  1  9 30.0060000  0  6G28G11G17G23G21G12
 -13057820.596 7 -10183245.81627  23347089.176
 -14303693.126 8 -12116815.61827  23734082.986
  11610860.080 5   6609745.03825  25623731.689
  -6245108.656 7  -4512571.94126  23891971.755
 -17827657.050 8 -13905471.95429  22250674.907
   -530777.051 5   -427603.01624  26201182.066
 92  9  4  1 10  0.0060000  0  6G28G11G17G23G21G12
 -12995977.300 7 -10135056.25627  23358858.229
 -14359435.809 8 -12160251.47627  23723475.705
  11718536.597 5   6693648.76325  25644221.394
  -6170387.066 7  -4454347.33126  23906191.604
 -17814155.834 8 -13894951.52129  22253243.821
   -580786.091 5   -466571.00925  26191666.413
 92  9  4  1 10 30.0060000  0  6G28G11G17G23G21G12
 -12933590.454 7 -10086443.15727  23370729.700
 -14414681.375 8 -12203299.96027  23712963.485
  11826377.150 6   6777680.30025  25664743.567
  -6095519.344 7  -4396008.86826  23920437.815
 -17800345.545 8 -13884190.24929  22255871.933
   -630344.881 5   -505188.27224  26182234.682
 92  9  4  1 11  0.0060000  0  6G28G11G17G23G21G12
 -12870661.120 7 -10037407.33827  23382704.110
 -14469425.697 8 -12245957.85127  23702545.740
  11934381.705 6   6861839.62725  25685298.826
  -6020504.922 7  -4337556.07126  23934712.532
 -17786225.253 8 -13873187.42029  22258558.860
   -679448.801 5   -543451.06024  26172890.078
 92  9  4  1 11 30.0060000  0  6G28G11G17G23G21G12
 -12807196.025 7  -9987954.05227  23394780.592
 -14523670.571 8 -12288226.57927  23692222.907
  12042544.531 6   6946122.29025  25705881.013
  -5945349.613 7  -4278993.53226  23949014.324
 -17771799.898 8 -13861946.88129  22261304.000
   -728099.796 5   -581360.78925  26163631.508
 92  9  4  1 12  0.0060000  0  6G28G11G17G23G21G12
 -12743194.196 7  -9938082.55327  23406960.495
 -14577410.484 8 -12330101.83627  23681996.017
  12150867.188 6   7030529.49025  25726494.410
  -5870051.481 7  -4220319.68326  23963342.472
 -17757067.181 8 -13850466.84129  22264107.743
   -776291.750 5   -618912.88925  26154461.601
 92  9  4  1 12 30.0060000  0  6G28G11G17G23G21G12
 -12678657.043 7  -9887793.87927  23419241.496
 -14630641.041 8 -12371580.14627  23671866.226
  12259350.036 5   7115061.48925  25747138.103
  -5794609.629 7  -4161533.82126  23977698.793
 -17742025.860 8 -13838746.33329  22266970.134
   -824020.382 5   -656103.96825  26145379.481
 92  9  4  1 13  0.0060000  0  6G28G11G17G23G21G12
 -12613581.621 7  -9837085.79727  23431624.933
 -14683354.578 8 -12412655.63027  23661835.300
  12367996.523 6   7199721.08225  25767812.674
  -5719020.020 7  -4102632.85626  23992082.276
 -17726671.571 8 -13826781.94829  22269892.023
   -871277.603 5   -692927.78024  26136388.042
 92  9  4  1 13 30.0060000  0  6G28G11G17G23G21G12
 -12547969.232 7  -9785959.29927  23444110.729
 -14735547.309 8 -12453325.27727  23651903.490
  12476807.322 5   7284508.60525  25788519.768
  -5643282.766 7  -4043616.83426  24006495.471
 -17711003.727 8 -13814573.23629  22272873.669
   -918059.535 6   -729381.19024  26127485.713
 92  9  4  1 14  0.0060000  0  6G28G11G17G23G21G12
 -12481822.398 7  -9734416.36227  23456697.996
 -14787216.882 8 -12493587.26027  23642071.183
  12585780.325 5   7369422.57725  25809255.922
  -5567399.035 7  -3984486.66826  24020936.004
 -17695023.031 8 -13802120.75329  22275914.825
   -964363.456 6   -765462.13225  26118674.137
 92  9  4  1 14 30.0060000  0  6G28G11G17G23G21G12
 -12415140.781 7  -9682456.69327  23469387.250
 -14838357.964 8 -12533437.43627  23632339.861
  12694917.029 5   7454464.12725  25830019.853
  -5491367.644 7  -3925241.43326  24035404.414
 -17678727.361 8 -13789422.82229  22279015.739
  -1010184.110 6   -801166.47124  26109952.573
 92  9  4  1 15  0.0060000  0  6G28G11G17G23G21G12
 -12347933.091 7  -9630087.12827  23482176.519
 -14888973.798 8 -12572878.33027  23622707.930
  12804210.260 6   7539627.57225  25850819.265
  -5415194.793 7  -3865885.97526  24049899.260
 -17662122.713 8 -13776484.14729  22282175.649
  -1055524.292 6   -836496.43524  26101325.835
 92  9  4  1 15 30.0060000  0  6G28G11G17G23G21G12
 -12280191.188 7  -9577301.25527  23495067.033
 -14939051.413 8 -12611899.83927  23613178.096
  12913669.066 5   7624920.08125  25871647.492
  -5338871.281 7  -3806413.14626  24064423.467
 -17645199.375 8 -13763297.12429  22285396.251
  -1100370.954 5   -871441.84725  26092791.333
 92  9  4  1 16  0.0060000  0  6G28G11G17G23G21G12
 -12211916.262 7  -9524100.04927  23508060.198
 -14988586.818 8 -12650498.83627  23603751.451
  13023293.938 5   7710342.00525  25892511.206
  -5262396.447 7  -3746822.39826  24078976.051
 -17627956.728 8 -13749861.29829  22288677.478
  -1144720.025 5   -905999.46825  26084351.622
 92  9  4  1 16 30.0060000  0  6G28G11G17G23G21G12
 -12143109.105 7  -9470484.14127  23521153.733
 -15037576.184 8 -12688672.34227  23594429.297
  13133084.734 5   7795893.18825  25913402.277
  -5185769.928 7  -3687113.42226  24093557.881
 -17610394.190 8 -13736176.20029  22292019.436
  -1188567.375 5   -940166.24425  26076007.893
 92  9  4  1 17  0.0060000  0  6G28G11G17G23G21G12
 -12073774.205 7  -9416456.98027  23534348.107
 -15086018.463 8 -12726419.57527  23585211.038
  13243038.263 5   7881571.20625  25934329.034
  -5108994.644 7  -3627288.54026  24108167.315
 -17592513.679 8 -13722243.34729  22295422.411
  -1231911.904 5   -973941.16825  26067760.603
 92  9  4  1 17 30.0060000  0  6G28G11G17G23G21G12
 -12003912.923 7  -9362019.65727  23547643.164
 -15133910.214 8 -12763737.79927  23576097.568
  13353154.452 5   7967375.97125  25955283.905
  -5032070.673 7  -3567347.78026  24122804.622
 -17574314.856 8 -13708062.44629  22298885.415
  -1274749.967 5  -1007321.42225  26059608.256
 92  9  4  1 18  0.0060000  0  6G28G11G17G23G21G12
 -11933527.588 7  -9307173.96727  23561035.958
 -15181248.224 8 -12800624.54927  23567089.186
  13463432.487 5   8053306.78025  25976267.855
  -4954997.914 7  -3507291.12526  24137471.895
 -17555797.411 8 -13693633.26929  22302408.494
  -1317078.052 5  -1040304.26225  26051553.185
 92  9  4  1 18 30.0060000  0  6G28G11G17G23G21G12
 -11862624.187 7  -9251924.60927  23574528.471
 -15228033.692 8 -12837080.76127  23558186.167
  13573867.436 5   8139359.90725  25997280.952
  -4877781.160 7  -3447122.23026  24152166.434
 -17536965.567 8 -13678959.11629  22305991.935
  -1358897.292 5  -1072890.63525  26043593.720
 92  9  4  1 19  0.0060000  0  6G28G11G17G23G21G12
 -11791205.905 7  -9196274.03527  23588119.588
 -15274264.936 8 -12873105.09727  23549388.486
  13684457.248 5   8225533.73725  26018324.455
  -4800422.162 7  -3386842.52426  24166886.171
 -17517820.878 8 -13664041.17429  22309634.890
  -1400205.803 5  -1105079.03925  26035734.384
 92  9  4  1 19 30.0060000  0  6G28G11G17G23G21G12
 -11719272.191 7  -9140221.82627  23601807.632
 -15319936.213 8 -12908693.09427  23540697.555
  13795204.102 5   8311829.87325  26039398.768
  -4722918.624 7  -3326450.18026  24181633.994
 -17498360.219 8 -13648877.02929  22313337.750
  -1440997.583 5  -1136864.83025  26027973.175
 92  9  4  1 20  0.0060000  0  6G28G11G17G23G21G12
 -11646823.481 7  -9083768.32127  23615594.850
 -15365042.829 8 -12943841.10927  23532113.935
  13906108.643 5   8398248.96625  26060504.674
  -4645269.113 7  -3265944.07926  24196410.417
 -17478581.815 8 -13633465.29529  22317101.261
  -1481267.984 5  -1168244.23625  26020309.040
 92  9  4  1 20 30.0060000  0  6G28G11G17G23G21G12
 -11573861.056 7  -9026914.52627  23629479.403
 -15409580.863 8 -12978546.06927  23523638.744
  14017171.083 5   8484791.05625  26081639.414
  -4567473.062 7  -3205323.76826  24211215.183
 -17458484.944 8 -13617805.39329  22320925.794
  -1521012.806 5  -1199214.24825  26012747.312
 92  9  4  1 21  0.0060000  0  6G28G11G17G23G21G12
 -11500380.508 7  -8969656.99727  23643461.294
 -15453541.008 8 -13012800.72527  23515273.736
  14128397.029 5   8571460.50025  26102804.661
  -4489524.395 7  -3144584.59526  24226047.790
 -17438063.365 8 -13601892.47829  22324812.034
  -1560222.585 5  -1229767.30025  26005285.884
 92  9  4  1 21 30.0060000  0  6G28G11G17G23G21G12
 -11426380.300 7  -8911994.54827  23657543.844
 -15496916.375 8 -13046599.72427  23507020.090
  14239789.420 5   8658259.72225  26124004.041
  -4411419.912 7  -3083723.99826  24240911.008
 -17417313.062 8 -13585723.40929  22328760.051
  -1598890.351 5  -1259898.06525  25997927.560
 92  9  4  1 22  0.0060000  0  6G28G11G17G23G21G12
 -11351865.320 7  -8853930.98027  23671724.126
 -15539707.100 8 -13079943.14427  23498877.126
 -11047340.27915     57972.50331  26145236.209
  -4333162.757 7  -3022744.40026  24255802.657
 -17396236.987 8 -13569300.50029  22332770.794
   1584568.85415    -19267.18331  25990673.470
 92  9  4  1 22 30.0060000  0  6G28G11G17G23G21G12
 -11276831.986 7  -8795463.46627  23686001.443
 -15581904.263 8 -13112824.04427  23490847.864
 -10935617.191 5    145030.70621  26166488.544
  -4254747.486 7  -2961641.61126  24270724.916
 -17374829.220 8 -13552619.12129  22336844.833
   1546994.176 5    -48546.79222  25983522.496
 92  9  4  1 23  0.0060000  0  6G28G11G17G23G21G12
 -11201282.630 7  -8736593.89626  23700376.940
 -15623504.805 8 -13145240.07027  23482931.466
 -10823726.801 5    232217.93722  26187784.956
  -4176174.142 7  -2900415.66126  24285677.563
 -17353089.374 8 -13535678.99229  22340982.548
   1509973.866 5    -77393.69023  25976475.802
 92  9  4  1 23 30.0060000  0  6G28G11G17G23G21G12
 -11125219.588 7  -8677324.02726  23714851.509
 -15664506.544 8 -13177189.47627  23475128.767
 -10711670.408 5    319534.59023  26209108.017
  -4097444.104 7  -2839067.61226  24300659.167
 -17331018.396 8 -13518480.81429  22345182.802
   1473510.124 5   -105806.98024  25969534.768
 92  9  4  1 24  0.0060000  0  6G28G11G17G23G21G12
 -11048648.450 7  -8617658.22726  23729423.348
 -15704909.489 8 -13208672.28527  23467440.377
 -10599452.157 5    406977.27223  26230463.161
  -4018560.339 7  -2777599.72626  24315670.238
 -17308619.267 8 -13501026.96429  22349445.211
   1437602.981 5   -133786.53025  25962703.246
 92  9  4  1 24 30.0060000  0  6G28G11G17G23G21G12
 -10971578.271 7  -8557603.60426  23744090.161
 -15744717.872 8 -13239691.81727  23459865.323
 -10487079.770 5    494540.12024  26251848.664
  -3939530.013 7  -2716017.68426  24330709.099
 -17285898.768 8 -13483322.68029  22353768.581
   1402248.516 5   -161335.45925  25955975.835
 92  9  4  1 25  0.0060000  0  6G28G11G17G23G21G12
 -10894007.151 7  -8497158.62126  23758849.833
 -15783924.662 8 -13270242.57127  23452404.259
 -10374549.426 5    582225.99924  26273258.874
  -3860349.567 7  -2654318.67026  24345777.550
 -17262852.964 8 -13465364.90229  22358153.933
   1367453.765 5   -188448.18625  25949355.549
 92  9  4  1 25 30.0060000  0  6G28G11G17G23G21G12
 -10815931.094 7  -8436320.14926  23773706.426
 -15822520.929 8 -13300317.58627  23445059.333
 -10261856.269 5    670038.74424  26294703.715
  -3781013.138 6  -2592498.08726  24360874.840
 -17239475.668 8 -13447148.84829  22362602.264
   1333227.764 5   -215117.77225  25942842.309
 92  9  4  1 26  0.0060000  0  6G28G11G17G23G21G12
 -10737351.964 7  -8375089.70626  23788661.681
 -15860503.172 8 -13329914.14128  23437831.349
 -10149000.307 5    757978.36725  26316182.371
  -3701520.538 7  -2530555.81726  24376001.165
 -17215766.043 8 -13428673.81229  22367113.906
   1299574.039 5   -241341.36125  25936436.980
 92  9  4  1 26 30.0070000  0  6G28G11G17G23G21G12
 -10658265.447 7  -8313463.89726  23803711.625
 -15897865.953 8 -13359027.99728  23430721.990
 -10035974.519 5    846050.31425  26337690.441
  -3621865.084 7  -2468486.65426  24391159.769
 -17191719.301 8 -13409936.08329  22371689.940
   1266498.450 5   -267114.52825  25930143.223
 92  9  4  1 27  0.0070000  0  6G28G11G17G23G21G12
 -10578679.991 7  -8251449.29726  23818854.792
 -15934604.962 8 -13387655.78728  23423730.698
  -9922788.683 5    934246.98625  26359229.294
  -3542053.623 7  -2406295.92826  24406347.629
 -17167338.023 8 -13390937.69329  22376329.589
   1234005.090 6   -292433.97525  25923960.053
 92  9  4  1 27 30.0070000  0  6G28G11G17G23G21G12
 -10498594.568 7  -8189045.09926  23834094.527
 -15970717.887 8 -13415795.74828  23416858.706
  -9809438.341 5   1022571.87625  26380796.882
  -3462082.734 7  -2343980.96226  24421564.924
 -17142620.318 8 -13371677.15529  22381033.333
   1202096.632 5   -317297.66225  25917889.363
 92  9  4  1 28  0.0070000  0  6G28G11G17G23G21G12
 -10418016.492 7  -8126257.04626  23849429.083
 -16006206.968 8 -13443449.56228  23410105.201
  -9695930.247 5   1111019.63825  26402397.813
  -3381957.915 7  -2281546.06626  24436812.447
 -17117571.106 8 -13352158.29029  22385799.855
   1170770.779 6   -341707.38125  25911928.214
 92  9  4  1 28 30.0070000  0  6G28G11G17G23G21G12
 -10336942.852 7  -8063082.82526  23864857.792
 -16041064.633 8 -13470611.36428  23403472.722
  -9582259.573 5   1199594.13225  26424024.382
  -3301674.422 6  -2218987.52726  24452089.343
 -17092185.876 8 -13332377.58229  22390630.419
   1140035.313 6   -365657.06925  25906078.837
 92  9  4  1 29  0.0070000  0  6G28G11G17G23G21G12
 -10255383.062 7  -7999529.74726  23880378.499
 -16075294.465 8 -13497283.96128  23396958.880
  -9468433.450 5   1288289.73125  26445686.250
  -3221238.777 6  -2156310.41326  24467395.981
 -17066470.830 8 -13312339.89529  22395523.939
   1109886.669 6   -389149.49025  25900342.316
 92  9  4  1 29 30.0070000  0  6G28G11G17G23G21G12
 -10173340.344 7  -7935600.41826  23895989.958
 -16108895.340 8 -13523466.46228  23390564.489
  -9354454.279 5   1377104.53725  26467375.779
  -3140652.947 6  -2093516.26926  24482731.338
 -17040427.508 8 -13292046.37929  22400480.260
   1080326.042 6   -412183.67825  25894716.036
 92  9  4  1 30  0.0070000  0  6G28G11G17G23G21G12
 -10090819.657 7  -7871298.61026  23911692.412
 -16141867.082 8 -13549158.70128  23384290.433
  -9240325.394 5   1466036.10025  26489093.344
  -3059919.379 6  -2030607.01926  24498094.661
 -17014058.439 8 -13271499.05729  22405497.636
   1051353.789 6   -434759.40625  25889203.951
 92  9  4  1 30 30.0070000  0  6G28G11G17G23G21G12
 -10007825.143 7  -7806627.63126  23927485.902
 -16174208.543 8 -13574359.83328  23378135.701
  -9126049.061 5   1555082.50225  26510842.492
  -2979039.934 6  -1967584.09025  24513485.729
 -16987364.703 7 -13250698.73329  22410577.598
   1022970.966 5   -456875.86825  25883801.580
 92  9  4  1 31  0.0070000  0  6G28G11G17G23G21G12
  -9924361.615 7  -7741591.14226  23943369.480
 -16205919.763 8 -13599069.87028  23372101.171
  -9011629.114 5   1644240.76425  26532615.868
  -2898017.629 6  -1904449.84925  24528901.499
 -16960348.841 8 -13229647.43129  22415718.769
    995177.901 6   -478532.75925  25878514.906
 92  9  4  1 31 30.0070000  0  6G28G11G17G23G21G12
  -9840427.987 7  -7676188.36126  23959341.855
 -16236994.650 8 -13623284.05528  23366187.565
  -8897062.458 5   1733513.44525  26554417.389
  -2816849.180 6  -1841201.73325  24544348.208
 -16933007.568 8 -13208342.54129  22420921.429
    967980.633 6   -499725.40725  25873338.577
 92  9  4  1 32  0.0070000  0  6G28G11G17G23G21G12
  -9756027.273 7  -7610421.62026  23975402.724
 -16267431.034 8 -13647000.71428  23360395.664
  -8782350.837 5   1822899.07025  26576243.071
  -2735535.112 6  -1777840.15025  24559821.370
 -16905341.345 8 -13186784.45029  22426185.925
    941381.318 6   -520452.12125  25868276.605
 92  9  4  1 32 30.0070000  0  6G28G11G17G23G21G12
  -9671161.398 7  -7544292.39526  23991551.705
 -16297225.815 8 -13670217.40728  23354725.650
  -8667493.849 5   1912397.93424  26598099.097
  -2654075.056 6  -1714364.80625  24575322.145
 -16877349.302 8 -13164972.47329  22431512.657
    915383.337 6   -540710.25025  25863328.180
 92  9  4  1 33  0.0070000  0  6G28G11G17G23G21G12
  -9585829.908 7  -7477800.39626  24007789.100
 -16326373.554 8 -13692929.93328  23349179.249
  -8552489.869 5   2002011.37925  26619984.365
  -2572466.459 6  -1650773.71426  24590851.818
 -16849028.660 8 -13142904.44629  22436901.704
    889991.926 6   -560495.74225  25858496.058
 92  9  4  1 33 30.0070000  0  6G28G11G17G23G21G12
  -9500035.273 7  -7410947.45926  24024115.051
 -16354872.063 8 -13715136.54428  23343756.245
  -8437339.993 5   2091738.49124  26641898.217
  -2490709.671 7  -1587067.12126  24606410.356
 -16820379.517 8 -13120580.44229  22442353.544
    865209.558 5   -579806.62725  25853781.502
 92  9  4  1 34  0.0070000  0  6G28G11G17G23G21G12
  -9413781.142 7  -7343736.49926  24040529.446
 -16382719.750 8 -13736836.03928  23338456.954
  -8322045.734 5   2181578.09224  26663840.351
  -2408806.013 7  -1523246.11925  24621996.597
 -16791402.938 8 -13098001.28729  22447867.654
    841037.882 6   -598641.66825  25849181.073
 92  9  4  1 34 30.0070000  0  6G28G11G17G23G21G12
  -9327070.871 7  -7276170.10026  24057031.533
 -16409915.116 8 -13758027.23028  23333281.625
  -8206609.246 5   2271528.55725  26685806.574
  -2326756.380 6  -1459311.35925  24637609.913
 -16762099.694 8 -13075167.60129  22453443.944
    817478.438 5   -616999.62325  25844698.620
 92  9  4  1 35  0.0070000  0  6G28G11G17G23G21G12
  -9239906.151 6  -7208249.57126  24073618.243
 -16436454.827 8 -13778707.52328  23328231.750
  -8091030.310 5   2361589.89025  26707800.332
  -2244560.138 6  -1395262.34625  24653251.416
 -16732468.652 8 -13052078.46629  22459082.782
    794534.742 6   -634877.80925  25840332.259
 92  9  4  1 35 30.0070000  0  6G28G11G17G23G21G12
  -9152286.536 7  -7139974.60226  24090291.051
 -16462333.841 8 -13798872.98828  23323306.844
  -7975307.207 5   2451763.74325  26729821.781
  -2162214.917 6  -1331097.22825  24668920.324
 -16702507.289 8 -13028731.95829  22464784.006
    772211.774 6   -652272.29325  25836084.257
 92  9  4  1 36  0.0070000  0  6G28G11G17G23G21G12
  -9064217.114 7  -7071349.13526  24107049.269
 -16487551.900 8 -13818523.41628  23318508.263
  -7859442.871 5   2542047.54725  26751869.322
  -2079723.110 6  -1266817.94825  24684618.535
 -16672217.967 8 -13005129.89329  22470547.814
    750509.627 6   -669183.01125  25831952.524
 92  9  4  1 36 30.0070000  0  6G28G11G17G23G21G12
  -8975701.023 7  -7002375.60926  24123893.059
 -16512107.423 8 -13837657.58528  23313835.082
  -7743438.668 5   2632440.31525  26773943.428
  -1997085.296 6  -1202424.87125  24700343.850
 -16641601.047 8 -12981272.56529  22476374.336
    729430.367 6   -685608.34125  25827941.206
 92  9  4  1 37  0.0070000  0  6G28G11G17G23G21G12
  -8886735.236 7  -6933051.65026  24140821.985
 -16535992.372 8 -13856269.23528  23309289.824
  -7627290.126 5   2722945.60625  26796045.293
  -1914296.182 6  -1137913.88925  24716097.764
 -16610650.945 8 -12957155.59929  22482264.152
    708981.882 6   -701542.28425  25824051.540
 92  9  4  1 37 30.0070000  0  6G28G11G17G23G21G12
  -8797326.989 6  -6863382.97026  24157836.629
 -16559209.526 8 -13874360.52728  23304871.683
  -7511003.088 5   2813558.78725  26818174.487
  -1831360.881 6  -1073288.98725  24731878.685
 -16579372.375 8 -12932782.67029  22488216.571
    689161.595 6   -716986.61025  25820279.061
 92  9  4  1 38  0.0070000  0  6G28G11G17G23G21G12
  -8707477.694 7  -6793370.54626  24174935.161
 -16581755.004 8 -13891928.41828  23300581.724
  -7394576.764 5   2904280.46325  26840330.499
  -1748278.099 6  -1008549.19025  24747689.467
 -16547763.704 8 -12908152.54329  22494231.157
    669973.333 6   -731938.47025  25816627.797
 92  9  4  1 38 30.0070000  0  6G28G11G17G23G21G12
  -8617189.499 7  -6723016.17326  24192116.545
 -16603626.126 8 -13908970.86528  23296419.515
  -7278011.906 5   2995110.24625  26862509.709
  -1665047.667 6   -943694.32125  24763527.691
 -16515824.593 8 -12883264.92829  22500308.741
    651419.812 6   -746395.70025  25813096.708
 92  9  4  1 39  0.0070000  0  6G28G11G17G23G21G12
  -8526465.908 7  -6652322.51026  24209380.994
 -16624821.382 8 -13925486.64028  23292386.417
  -7161309.570 5   3086047.04125  26884717.065
  -1581670.350 6   -878724.98725  24779394.164
 -16483555.767 8 -12858120.38529  22506449.459
    633502.601 6   -760357.16025  25809686.713
 92  9  4  1 39 30.0070000  0  6G28G11G17G23G21G12
  -8435304.027 6  -6581287.34326  24226728.960
 -16645333.473 8 -13941470.08328  23288482.510
  -7044465.741 5   3177094.11625  26906949.929
  -1498141.167 6   -813637.31425  24795288.882
 -16450952.123 8 -12832714.93829  22512653.833
    616228.983 5   -773817.07825  25806401.648
 92  9  4  1 40  0.0070000  0  5G28G11G23G21G12
  -8343709.934 7  -6509915.35926  24244158.278
 -16665163.767 8 -13956922.25728  23284709.211
  -1414463.849 6   -748434.22225  24811212.157
 -16418017.075 8 -12807051.27929  22518920.913
    599597.762 6   -786776.42225  25803236.939
 92  9  4  1 40 30.0070000  0  6G28G15G11G23G21G12
  -8251695.087 6  -6438215.51726  24261667.459
   -398403.50816   -314178.70733  26725239.186
 -16684318.837 8 -13971848.27028  23281063.533
  -1330647.159 6   -683122.52225  24827162.135
 -16384759.276 8 -12781136.09129  22525249.886
    583602.429 5   -799240.28925  25800193.581
 92  9  4  1 41  0.0070000  0  6G28G15G11G23G21G12
  -8159270.456 6  -6366196.38626  24279253.593
   -493908.393 6   -388598.05124  26707065.222
 -16702805.000 8 -13986253.07128  23277546.049
  -1246699.855 6   -617709.07925  24843136.614
 -16351187.123 8 -12754975.96929  22531638.329
    568236.607 6   -811213.62825  25797268.054
 92  9  4  1 41 30.0070000  0  6G28G15G11G23G21G12
  -8066436.147 6  -6293858.00826  24296919.711
   -589370.676 6   -462984.21824  26688899.548
 -16720617.273 8 -14000132.77028  23274156.657
  -1162619.218 6   -552191.68025  24859137.924
 -16317297.483 8 -12728568.45829  22538087.068
    553505.561 6   -822692.37925  25794466.027
 92  9  4  1 42  0.0070000  0  6G28G15G11G23G21G12
  -7973193.398 6  -6221201.39726  24314664.826
   -684786.712 6   -537334.31124  26670742.956
 -16737751.865 8 -14013484.40928  23270895.991
  -1078403.707 6   -486569.21325  24875163.232
 -16283088.760 8 -12701912.30729  22544596.291
    539412.804 5   -833673.67825  25791784.271
 92  9  4  1 42 30.0070000  0  6G28G15G11G23G21G12
  -7879546.629 6  -6148229.94526  24332485.905
   -780156.544 5   -611648.42123  26652594.746
 -16754209.163 8 -14026308.26128  23267764.210
   -994055.648 6   -420843.51125  24891214.184
 -16248563.134 8 -12675009.21429  22551166.763
    525958.242 5   -844157.71525  25789224.861
 92  9  4  1 43  0.0070000  0  6G28G15G11G23G21G12
  -7785497.575 6  -6074945.03426  24350382.685
   -875477.253 5   -685924.35524  26634453.502
 -16769986.422 8 -14038602.22728  23264761.860
   -909574.476 6   -355013.97925  24907290.491
 -16213719.907 8 -12647858.64329  22557797.372
    513144.708 5   -854142.29725  25786785.936
 92  9  4  1 43 30.0070000  0  6G28G15G11G23G21G12
  -7691051.772 6  -6001350.95926  24368354.690
   -970748.822 6   -760161.81224  26616326.031
 -16785084.089 8 -14050366.65428  23261889.070
   -824962.806 6   -289082.83125  24923391.617
 -16178561.656 8 -12620462.59729  22564487.420
    500971.623 5   -863627.78125  25784468.900
 92  9  4  1 44  0.0070000  0  6G28G15G11G23G21G12
  -7596213.238 6  -5927450.87626  24386400.962
  -1065970.051 5   -834360.27023  26598207.579
 -16799501.242 8 -14061600.80428  23259145.507
   -740221.796 6   -223050.87825  24939517.687
 -16143089.296 8 -12592821.79929  22571237.725
    489439.866 5   -872613.53725  25782272.559
 92  9  4  1 44 30.0070000  0  6G28G15G11G23G21G12
  -7500993.980 6  -5853254.08326  24404520.305
  -1161148.271 5   -908525.06723  26580091.091
 -16813245.637 8 -14072310.71828  23256530.068
   -655361.058 6   -156925.66025  24955666.313
 -16107312.390 8 -12564943.68229  22578046.016
    478541.997 5   -881105.35225  25780198.912
 92  9  4  1 45  0.0070000  0  6G28G15G11G23G21G12
  -7405395.978 6  -5778762.23826  24422712.449
  -1256280.689 5   -982654.15524  26561986.022
 -16826314.666 8 -14082494.38028  23254042.932
   -570380.118 6    -90706.75425  24971838.769
 -16071230.329 8 -12536827.79129  22584911.829
    468280.366 5   -889101.40925  25778245.657
 92  9  4  1 45 30.0070000  0  6G28G15G11G23G21G12
  -7309419.564 6  -5703975.47126  24440976.152
  -1351362.201 5  -1056743.53624  26543896.272
 -16838703.734 8 -14092148.20028  23251685.314
   -485276.417 6    -24392.17925  24988030.610
 -16034840.269 8 -12508471.88529  22591836.906
    458659.715 6   -896597.98325  25776415.629
 92  9  4  1 46  0.0070000  0  6G28G15G11G23G21G12
  -7213070.866 6  -5628898.59726  24459311.612
  -1446394.127 5  -1130794.37725  26525813.760
 -16850414.590 8 -14101273.54928  23249457.496
   -400053.247 6     42015.45125  25004248.238
 -15998145.603 8 -12479878.65229  22598819.366
    449678.410 5   -903596.39225  25774706.182
 92  9  4  1 46 30.0070000  0  6G28G15G11G23G21G12
  -7116349.954 6  -5553531.72726  24477716.219
  -1541371.542 5  -1204802.67725  26507738.693
 -16861442.938 8 -14109867.08028  23247358.688
   -314708.671 6    108517.69825  25020491.096
 -15961143.765 8 -12451046.04429  22605860.536
    441340.790 6   -910093.20225  25773120.128
 92  9  4  1 47  0.0070000  0  6G28G15G11G23G21G12
  -7019262.611 6  -5477879.31026  24496190.920
  -1636294.686 5  -1278768.70425  26489676.866
 -16871789.793 8 -14117929.57028  23245389.991
   -229245.293 6    175112.52825  25036753.565
 -15923837.752 8 -12421976.41529  22612959.834
    433645.872 6   -916089.26925  25771655.405
 92  9  4  1 47 30.0070000  0  6G28G15G11G23G21G12
  -6921810.759 7  -5401942.87226  24514735.977
  -1731160.738 5  -1352690.31225  26471625.592
 -16881452.744 8 -14125459.15028  23243551.255
   -143662.717 6    241800.22325  25053039.518
 -15886226.684 8 -12392669.07829  22620116.999
    426596.020 6   -921582.62125  25770314.499
 92  9  4  1 48  0.0070000  0  6G28G15G11G23G21G12
  -6823997.882 6  -5325725.08126  24533349.854
  -1825967.630 5  -1426565.73525  26453583.088
 -16890430.604 8 -14132454.90328  23241842.618
    -57961.616 6    308580.29725  25069347.790
 -15848310.850 8 -12363124.27129  22627331.726
    420192.552 6   -926572.30225  25769095.451
 92  9  4  1 48 30.0070000  0  6G28G15G11G23G21G12
  -6725826.638 7  -5249228.07426  24552031.468
  -1920713.279 5  -1500393.43325  26435551.390
 -16898721.839 8 -14138915.60628  23240264.986
     27858.008 6    375452.69625  25085678.400
 -15810090.710 8 -12333342.33129  22634604.739
    414436.913 6   -931057.23525  25768001.216
 92  9  4  1 49  0.0070000  0  6G28G15G11G23G21G12
  -6627296.980 6  -5172451.77426  24570780.444
  -2015392.190 5  -1574169.20025  26417537.059
 -16906321.666 8 -14144837.56028  23238818.415
    113799.109 6    442419.75325  25102033.178
 -15771562.946 8 -12303320.70629  22641936.869
    409334.073 6   -935033.47225  25767031.033
 92  9  4  1 49 30.0070000  0  6G28G15G11G23G21G12
  -6528414.513 6  -5095400.53626  24589597.087
  -2110005.076 5  -1647893.51625  26399534.047
 -16913231.273 8 -14150221.66628  23237503.469
    199858.633 6    509479.13525  25118410.275
 -15732730.365 8 -12273061.54329  22649326.575
    404882.748 5   -938501.98025  25766182.557
 92  9  4  1 50  0.0070000  0  6G28G15G11G23G21G12
  -6429183.372 6  -5018077.65926  24608480.122
  -2204551.036 6  -1721565.60725  26381540.464
 -16919450.733 8 -14155068.00228  23236320.598
    286035.101 6    576629.58425  25134809.713
 -15693594.518 8 -12242566.07729  22656773.765
    401083.139 5   -941462.71325  25765457.889
 92  9  4  1 50 30.0070000  0  6G28G15G11G23G21G12
  -6329609.571 6  -4940487.71626  24627429.418
  -2299030.533 6  -1795185.95825  26363561.379
 -16924981.601 8 -14159377.76928  23235267.659
    372325.072 6    643868.51525  25151228.580
 -15654158.093 8 -12211836.39729  22664278.266
    397933.392 5   -943917.02625  25764858.551
 92  9  4  1 51  0.0070000  0  6G28G15G11G23G21G12
  -6229696.788 6  -4862633.67526  24646442.236
  -2393442.041 6  -1868753.38125  26345596.430
 -16929822.777 8 -14163150.11628  23234346.409
    458727.931 6    711195.39425  25167670.612
 -15614421.973 8 -12180873.18729  22671839.733
    395434.831 6   -945863.93325  25764383.842
 92  9  4  1 51 30.0070000  0  6G28G15G11G23G21G12
  -6129449.499 6  -4784518.93625  24665518.005
  -2487785.163 6  -1942267.44425  26327643.643
 -16933975.165 8 -14166385.74528  23233556.622
    545241.467 6    778608.55125  25184133.757
 -15574388.196 8 -12149678.02829  22679457.785
    393586.552 5   -947304.09725  25764033.377
 92  9  4  1 52  0.0070000  0  6G28G15G11G23G21G12
  -6028868.000 6  -4706143.80926  24684658.186
  -2582054.370 6  -2015723.93025  26309703.835
 -16937434.069 8 -14169080.99628  23232898.725
    631868.708 6    846110.27925  25200617.266
 -15534053.748 8 -12118248.59929  22687133.664
    392393.280 6   -948233.88925  25763805.857
 92  9  4  1 52 30.0070000  0  6G28G15G11G23G21G12
  -5927951.747 6  -4627507.80525  24703861.338
  -2676244.305 6  -2089118.66025  26291780.398
 -16940195.124 8 -14171232.45628  23232373.203
    718612.583 6    913702.87425  25217124.305
 -15493415.523 8 -12086582.46229  22694866.413
    391859.407 6   -948649.88025  25763705.380
 92  9  4  1 53  0.0070000  0  6G28G15G11G23G21G12
  -5826708.334 6  -4548616.89925  24723127.744
  -2770357.343 6  -2162453.45025  26273871.168
 -16942261.680 8 -14172842.76828  23231980.004
    805468.407 6    981382.72225  25233653.332
 -15452478.254 8 -12054683.29029  22702656.039
    391981.664 6   -948554.61125  25763728.351
 92  9  4  1 53 30.0070000  0  6G28G15G11G23G21G12
  -5725133.598 6  -4469467.81125  24742456.951
  -2864383.930 6  -2235720.86325  26255978.908
 -16943625.214 8 -14173905.25728  23231720.613
    892443.402 6   1049155.47125  25250205.896
 -15411234.629 8 -12022545.40429  22710504.274
    392768.742 6   -947941.27325  25763877.885
 92  9  4  1 54  0.0070000  0  6G28G15G11G23G21G12
  -5623231.746 6  -4390063.85025  24761848.260
  -2958322.908 6  -2308920.02125  26238103.750
 -16944285.891 8 -14174420.07828  23231595.181
    979535.855 6   1117019.67425  25266778.593
 -15369686.240 8 -11990170.04929  22718410.782
    394220.392 6   -946810.06925  25764154.074
 92  9  4  1 54 30.0070000  0  6G28G15G11G23G21G12
  -5521006.406 6  -4310407.81725  24781300.482
  -3052172.311 6  -2382049.46525  26220245.057
 -16944242.680 8 -14174386.42128  23231602.596
   1066745.106 6   1184974.92825  25283373.449
 -15327833.358 8 -11957557.40529  22726375.318
    396337.543 6   -945160.32925  25764558.425
 92  9  4  1 55  0.0070000  0  6G28G15G11G23G21G12
  -5418460.468 6  -4230501.93625  24800814.125
  -3145930.164 6  -2455107.49225  26202404.871
 -16943494.861 8 -14173803.70428  23231744.767
   1154071.148 6   1253021.19325  25299989.444
 -15285676.311 8 -11924707.74529  22734397.504
    399120.960 6   -942991.44125  25765087.035
 92  9  4  1 55 30.0070000  0  6G28G15G11G23G21G12
  -5315601.313 6  -4150351.98925  24820388.141
  -3239598.549 6  -2528095.75825  26184579.163
 -16942045.935 8 -14172674.67928  23232020.867
   1241508.876 6   1321154.48925  25316627.724
 -15243219.835 8 -11891624.79329  22742476.241
    402567.322 6   -940305.93525  25765741.747
 92  9  4  1 56  0.0070000  0  6G28G15G11G23G21G12
  -5212430.360 6  -4069959.12725  24840021.257
  -3333172.974 6  -2601010.95625  26166772.689
 -16939892.788 8 -14170996.91728  23232431.024
   1329060.034 6   1389376.14325  25333288.871
 -15200462.057 8 -11858307.03129  22750613.399
    406679.678 6   -937101.45525  25766523.625
 92  9  4  1 56 30.0070000  0  6G28G15G11G23G21G12
  -5108952.233 6  -3989326.84225  24859711.825
  -3426652.736 6  -2673852.25125  26148985.036
 -16937036.241 8 -14168771.03328  23232974.137
   1416723.106 6   1457685.01625  25349970.319
 -15157404.591 8 -11824755.75429  22758806.927
    411457.276 6   -933378.67425  25767432.519
 92  9  4  1 57  0.0070000  0  7G28G25G15G11G23G21G12
  -5005167.845 6  -3908455.99325  24879462.156
  -2859515.30015  -1591551.31535  27118656.591
  -3520033.697 5  -2746616.60125  26131210.794
 -16933473.086 8 -14165994.57128  23233652.098
   1504499.694 6   1526082.34525  25366673.389
 -15114045.620 8 -11790969.54029  22767057.974
    416903.591 6   -929134.78925  25768470.280
 92  9  4  1 57 30.0070000  0  7G28G25G15G11G23G21G12
  -4901076.916 6  -3827346.23325  24899268.871
  -2951226.627 6  -1663014.45125  27101202.198
  -3613309.862 6  -2819299.38225  26113459.270
 -16929198.764 8 -14162663.94728  23234465.633
   1592393.035 6   1594570.68825  25383399.989
 -15070381.494 8 -11756945.55529  22775367.530
    423022.841 6   -924366.47325  25769635.150
 92  9  4  1 58  0.0070000  0  7G28G25G15G11G23G21G12
  -4796682.418 6  -3745999.93525  24919136.692
  -3042985.504 5  -1734514.71025  27083739.372
  -3706478.846 6  -2891898.50125  26095731.847
 -16924212.460 8 -14158778.52828  23235414.568
   1680402.883 6   1663149.73125  25400146.324
 -15026412.364 8 -11722683.88029  22783734.440
    429816.073 5   -919073.04325  25770927.639
 92  9  4  1 58 30.0070000  0  7G28G25G15G11G23G21G12
  -4691983.042 6  -3664416.07825  24939059.921
  -3134784.633 6  -1806046.35024  27066269.550
  -3799534.129 6  -2964409.04125  26078024.627
 -16918508.847 8 -14154334.16228  23236499.625
   1768534.045 6   1731823.39025  25416917.523
 -14982134.100 8 -11688181.33729  22792160.138
    437288.622 6   -913250.25525  25772349.449
 92  9  4  1 59  0.0070000  0  7G28G25G15G11G23G21G12
  -4586984.579 6  -3582599.21225  24959040.976
  -3226623.809 6  -1877609.15023  27048792.363
  -3892475.945 6  -3036831.25125  26060339.900
 -16912089.931 8 -14149332.41828  23237720.640
   1856783.011 6   1800588.78925  25433709.954
 -14937549.898 8 -11653440.39929  22800644.023
    445438.549 6   -906899.64425  25773899.573
 92  9  4  1 59 30.0070000  0  7G28G25G15G11G23G21G12
  -4481691.284 6  -3500552.52525  24979077.607
  -3318501.925 6  -1949202.36023  27031308.763
  -3985303.430 6  -3109164.27125  26042676.309
 -16904956.565 8 -14143773.97728  23239077.624
   1945148.264 6   1869444.84325  25450526.305
 -14892661.336 8 -11618462.29429  22809186.040
    454265.159 6   -900021.71825  25775579.734
 92  9  4  2  0  0.0070000  0  7G28G25G15G11G23G21G12
  -4376111.195 6  -3418282.41825  24999168.244
  -3410420.470 5  -2020827.12023  27013818.885
  -4078018.671 6  -3181409.84825  26025031.947
 -16897112.375 8 -14137661.63128  23240570.337
   2033625.006 6   1938387.74625  25467363.364
 -14847472.893 8 -11583250.51129  22817784.916
    463764.724 6   -892619.42425  25777387.524
 92  9  4  2  0 30.0070000  0  7G28G25G15G11G23G21G12
  -4270249.866 6  -3335793.12425  25019313.269
  -3502379.381 6  -2092483.18123  26996320.574
  -4170621.960 6  -3253568.27525  26007409.536
 -16888559.264 8 -14130996.88728  23242198.062
   2122210.451 6   2007415.33725  25484220.549
 -14801987.240 8 -11547807.15529  22826440.614
    473935.389 6   -884694.25025  25779322.300
 92  9  4  2  1  0.0070000  0  7G28G25G15G11G23G21G12
  -4164107.967 6  -3253085.21425  25039511.262
  -3594372.837 5  -2164166.25623  26978814.004
  -4263107.842 6  -3325635.12525  25989810.459
 -16879293.943 8 -14123777.18928  23243961.260
   2210906.979 6   2076529.48125  25501099.522
 -14756201.877 8 -11512130.24529  22835152.992
    484780.540 6   -876243.45925  25781386.772
 92  9  4  2  1 30.0070000  0  7G28G25G15G11G23G21G12
  -4057697.296 6  -3170167.90825  25059760.428
  -3686407.126 6  -2235881.06723  26961300.509
  -4355482.987 6  -3397615.70025  25972233.427
 -16869324.615 8 -14116008.87928  23245859.048
   2299705.639 6   2145723.26925  25517996.091
 -14710125.965 8 -11476226.94429  22843921.512
    496291.949 6   -867273.51925  25783577.594
 92  9  4  2  2  0.0070000  0  7G28G25G15G11G23G21G12
  -3951016.741 6  -3087040.25725  25080061.213
  -3778475.573 5  -2307622.57523  26943780.866
  -4447741.613 6  -3469505.50625  25954677.519
 -16858646.886 8 -14107688.57328  23247890.641
   2388609.950 6   2214999.34025  25534913.806
 -14663755.866 8 -11440094.40129  22852745.434
    508474.114 6   -857780.91225  25785895.108
 92  9  4  2  2 30.0070000  0  7G28G25G15G11G23G21G12
  -3844070.780 6  -3003705.80325  25100412.703
  -3870575.848 5  -2379388.84824  26926254.692
  -4539881.793 6  -3541302.97825  25937141.853
 -16847260.949 8 -14098816.44528  23250057.121
   2477619.010 6   2284357.00725  25551852.615
 -14617092.514 8 -11403733.34829  22861625.495
    521326.984 6   -847765.67525  25788340.939
 92  9  4  2  3  0.0070000  0  7G28G25G15G11G23G21G12
  -3736869.111 6  -2920172.13125  25120812.564
  -3962711.970 5  -2451183.05825  26908719.613
  -4631907.685 6  -3613011.42325  25919627.355
 -16835172.931 8 -14089397.21728  23252357.588
   2566725.555 6   2353790.63825  25568808.547
 -14570142.602 8 -11367149.00429  22870559.372
    534844.276 6   -837232.67825  25790914.808
 92  9  4  2  3 30.0070000  0  7G28G25G15G11G23G21G12
  -3629414.598 6  -2836441.43325  25141260.674
  -4054880.981 5  -2523002.86825  26891183.857
  -4723817.146 6  -3684629.12825  25902138.214
 -16822382.273 8 -14079430.46228  23254791.892
   2655929.734 6   2423300.41125  25585783.651
 -14522906.224 8 -11330341.44129  22879548.626
    549026.779 6   -826181.34425  25793612.068
 92  9  4  2  4  0.0070000  0  7G28G25G15G11G23G21G12
  -3521708.501 6  -2752514.66625  25161755.479
  -4147077.760 5  -2594844.37025  26873637.825
  -4815605.585 6  -3756152.57925  25884673.161
 -16808886.391 8 -14068914.21128  23257360.312
   2745233.405 6   2492887.65725  25602777.998
 -14475381.527 8 -11293309.22429  22888592.287
    563876.953 6   -814609.74925  25796437.925
 92  9  4  2  4 30.0070000  0  7G28G25G15G11G23G21G12
  -3413761.319 6  -2668400.09525  25182297.887
  -4239307.118 5  -2666711.23325  26856088.156
  -4907278.275 6  -3827585.78625  25867229.423
 -16794692.444 8 -14057853.99228  23260061.444
   2834629.027 6   2562546.52425  25619790.220
 -14427576.183 8 -11256058.29629  22897689.427
    579387.932 6   -802523.23025  25799389.138
 92  9  4  2  5  0.0070000  0  7G28G25G15G11G23G21G12
  -3305574.234 6  -2584098.52925  25202886.295
  -4331564.219 5  -2738599.70625  26838529.233
  -4998830.696 6  -3898925.30025  25849806.920
 -16779798.008 8 -14046247.95128  23262895.394
   2924117.999 6   2632278.19325  25636818.615
 -14379488.317 8 -11218587.24129  22906840.625
    595562.002 6   -789920.02725  25802466.322
 92  9  4  2  5 30.0070000  0  7G28G25G15G11G23G21G12
  -3197148.505 6  -2499610.98525  25223518.312
  -4423843.942 5  -2810505.84325  26820968.549
  -5090258.107 6  -3970167.43625  25832409.597
 -16764200.809 8 -14034094.29128  23265863.629
   3013702.254 6   2702084.10725  25653865.892
 -14331116.316 8 -11180894.78429  22916044.731
    612401.571 6   -776798.28425  25805671.813
 92  9  4  2  6  0.0070000  0  7G28G25G15G11G23G21G12
  -3088483.379 6  -2414937.00125  25244197.749
  -4516139.316 5  -2882424.18525  26803406.111
  -5181553.743 6  -4041306.87225  25815034.497
 -16747896.332 8 -14021389.52028  23268966.121
   3103386.030 6   2771967.51225  25670931.825
 -14282456.256 8 -11142977.86029  22925304.410
    629911.292 6   -763154.34025  25809004.278
 92  9  4  2  6 30.0070000  0  7G28G25G15G11G23G21G12
  -2979580.288 6  -2330077.53325  25264919.584
  -4608446.389 5  -2954351.66125  26785840.644
  -5272714.391 6  -4112341.08725  25797686.963
 -16730883.126 8 -14008132.47528  23272203.769
   3193170.095 6   2841929.08425  25688017.632
 -14233506.913 8 -11104835.51029  22934618.685
    648092.493 6   -748987.13325  25812463.696
 92  9  4  2  7  0.0070000  0  7G28G25G15G11G23G21G12
  -2870446.717 6  -2245038.49125  25285687.869
  -4700766.473 5  -3026289.21125  26768273.849
  -5363741.956 6  -4183271.63225  25780365.255
 -16713165.132 8 -13994326.25228  23275575.553
   3283049.836 6   2911965.23425  25705121.596
 -14184272.465 8 -11066471.02829  22943987.469
    666941.372 6   -734299.71425  25816049.848
 92  9  4  2  7 30.0070000  0  7G28G25G15G11G23G21G12
  -2761083.284 6  -2159820.31925  25306498.759
  -4793093.957 5  -3098232.59325  26750704.955
  -5454630.933 6  -4254094.18925  25763070.849
 -16694739.528 8 -13979968.64628  23279081.806
   3373027.721 6   2982077.88325  25722245.065
 -14134750.719 8 -11027882.65529  22953412.216
    686460.727 6   -719089.77925  25819765.669
 92  9  4  2  8  0.0070000  0  7G28G25G15G11G23G21G12
  -2651494.251 6  -2074426.32125  25327352.499
  -4885427.275 5  -3170180.49725  26733134.317
  -5545380.434 6  -4324808.02825  25745803.169
 -16675607.609 8 -13965060.65728  23282722.607
   3463102.256 6   3052265.78025  25739386.180
 -14084943.363 8 -10989071.74829  22962890.012
    706649.521 6   -703358.25425  25823609.050
 92  9  4  2  8 30.0070000  0  7G28G25G15G11G23G21G12
  -2541682.873 6  -1988859.11425  25348247.383
  -4977763.105 5  -3242130.36825  26715564.446
  -5635987.562 6  -4395410.92425  25728563.904
 -16655768.655 8 -13949601.72728  23286497.716
   3553273.921 6   3122529.40325  25756543.531
 -14034849.812 8 -10950037.81429  22972422.511
    727508.543 6   -687104.45125  25827577.909
 92  9  4  2  9  0.0070000  0  7G28G25G15G11G23G21G12
  -2431651.799 6  -1903120.71925  25369186.934
  -5070098.238 5  -3314079.69325  26697992.099
  -5726449.673 6  -4465900.90025  25711348.595
 -16635222.368 8 -13933591.63228  23290407.915
   3643542.439 6   3192868.53325  25773721.384
 -13984470.161 8 -10910780.96329  22982010.035
    749037.892 6   -670328.32725  25831675.029
 92  9  4  2  9 30.0070000  0  7G28G25G15G11G23G21G12
  -2321413.914 6  -1817221.16125  25390164.674
  -5162439.536 5  -3386033.80925  26680420.303
  -5816773.725 6  -4536283.21325  25694158.470
 -16613978.410 8 -13917037.90727  23294450.525
   3733898.227 6   3263275.62925  25790915.597
 -13933814.219 8 -10871308.79329  22991649.250
    771228.385 6   -653037.03725  25835896.894
 92  9  4  2 10  0.0070000  0  7G28G25G15G11G23G21G12
  -2210971.698 6  -1731162.39025  25411181.791
  -5254783.372 5  -3457989.90425  26662847.069
  -5906956.700 6  -4606555.60325  25676997.779
 -16592036.195 8 -13899940.08227  23298626.265
   3824341.417 6   3333750.76825  25808127.075
 -13882881.714 8 -10831621.13729  23001341.563
    794080.495 6   -635230.18925  25840244.754
 92  9  4  2 10 30.0070000  0  7G28G25G15G11G23G21G12
  -2100332.581 6  -1644950.15325  25432236.242
  -5347131.044 6  -3529949.00625  26645272.893
  -5997000.073 6  -4676719.25825  25659864.238
 -16569399.743 8 -13882301.28827  23302933.456
   3914867.720 6   3404290.72525  25825353.944
 -13831676.776 8 -10791721.18329  23011085.965
    817590.324 6   -616910.79825  25844717.059
 92  9  4  2 11  0.0070000  0  7G28G25G15G11G23G21G12
  -1989492.936 6  -1558581.70125  25453327.825
  -5439472.981 6  -3601903.66925  26627701.352
  -6086894.756 6  -4746766.98525  25642758.528
 -16546062.601 8 -13864116.52127  23307374.022
   4005483.593 6   3474900.53825  25842596.066
 -13780193.039 8 -10751603.99129  23020882.485
    841764.285 6   -598073.91625  25849317.190
 92  9  4  2 11 30.0070000  0  7G28G25G15G11G23G21G12
  -1878450.032 6  -1472054.83825  25474459.898
  -5531800.155 6  -3673846.75725  26610132.930
  -6176632.226 6  -4816692.25025  25625680.711
 -16522018.647 8 -13845380.96327  23311949.492
   4096195.073 5   3545584.80625  25859858.075
 -13728424.732 8 -10711265.04529  23030733.444
    866608.641 6   -578714.65825  25854045.981
 92  9  4  2 12  0.0070000  0  7G28G25G15G11G23G21G12
  -1767210.754 6  -1385374.96425  25495627.156
  -5624113.480 6  -3745779.15225  26592567.188
  -6266213.754 6  -4886496.00425  25608633.258
 -16497271.926 8 -13826097.82627  23316658.693
   4186997.928 6   3616340.20925  25877135.674
 -13676375.863 8 -10670707.48129  23040637.499
    892119.468 6   -558836.04525  25858900.913
 92  9  4  2 12 30.0070000  0  7G28G25G15G11G23G21G12
  -1655778.661 6  -1298544.89725  25516831.790
  -5716410.501 6  -3817698.74025  26575002.460
  -6355637.303 6  -4956176.64525  25591614.696
 -16471822.977 8 -13806267.48627  23321501.460
   4277891.527 6   3687166.44125  25894432.327
 -13624047.215 8 -10629931.91929  23050595.194
    918296.187 6   -538438.58625  25863882.977
 92  9  4  2 13  0.0070000  0  7G28G25G15G11G23G21G12
  -1544165.144 6  -1211573.39525  25538071.972
  -5808696.264 6  -3889609.57925  26557439.862
  -6444908.553 6  -5025738.58225  25574627.323
 -16445680.132 8 -13785896.43627  23326476.904
   4368867.825 6   3758056.99125  25911745.667
 -13571446.718 8 -10588944.51529  23060604.506
    945130.838 6   -517528.41025  25868987.068
 92  9  4  2 13 30.0070000  0  7G28G25G15G11G23G21G12
  -1432374.010 6  -1124463.49525  25559344.652
  -5900968.386 6  -3961509.78925  26539882.040
  -6534025.482 6  -5095180.31825  25557668.446
 -16418844.200 8 -13764985.33527  23331583.450
   4459925.815 6   3829011.32925  25929073.772
 -13518575.149 8 -10547745.89328  23070666.540
    972622.449 6   -496106.41025  25874219.024
 92  9  4  2 14  0.0070000  0  7G28G25G15G11G23G21G12
  -1320410.701 6  -1037219.45625  25580649.707
  -5993226.623 5  -4033399.24025  26522323.975
  -6622988.082 6  -5164501.76625  25540738.277
 -16391317.896 8 -13743536.27627  23336821.666
   4551062.709 6   3900027.07225  25946416.180
 -13465435.303 8 -10506338.21428  23080778.657
   1000768.321 6   -474174.50725  25879575.238
 92  9  4  2 14 30.0070000  0  7G28G25G15G11G23G21G12
  -1208279.478 6   -949844.54725  25601987.477
  -6085468.730 5  -4105276.02725  26504772.447
  -6711794.775 6  -5233701.75025  25523839.940
 -16363102.372 8 -13721550.16627  23342190.728
   4642277.700 5   3971103.65625  25963771.654
 -13412028.129 8 -10464722.24428  23090941.935
   1029567.574 6   -451733.48625  25885057.646
 92  9  4  2 15  0.0070000  0  7G28G25G15G11G23G21G12
  -1095989.231 6   -862345.77425  25623356.570
  -6177697.831 5  -4177142.72325  26487221.045
  -6800449.022 6  -5302782.91825  25506969.726
 -16334204.016 8 -13699031.97927  23347689.891
   4733564.437 6   4042236.15425  25981144.015
 -13358359.813 8 -10422902.77428  23101153.824
   1059013.931 6   -428788.23825  25890660.516
 92  9  4  2 15 30.0070000  0  7G28G25G15G11G23G21G12
   -983544.669 5   -774726.72525  25644753.903
  -6269912.373 5  -4248998.12125  26469671.839
  -6888949.428 6  -5371744.24325  25490129.099
 -16304624.563 8 -13675983.08527  23353318.904
   4824921.401 6   4113423.44225  25998528.461
 -13304432.133 8 -10380881.20128  23111415.999
   1089105.681 6   -405340.09825  25896386.033
 92  9  4  2 16  0.0070000  0  7G28G25G15G11G23G21G12
   -870952.255 6   -686992.45125  25666180.084
  -6362112.223 5  -4320842.03225  26452125.654
  -6977296.572 6  -5440586.13325  25473318.848
 -16274367.532 8 -13652406.19027  23359075.949
   4916345.157 6   4184662.75925  26015926.718
 -13250248.411 8 -10338660.11328  23121726.981
   1119839.505 6   -381391.66525  25902235.030
 92  9  4  2 16 30.0070000  0  7G28G25G15G11G23G21G12
   -758215.660 5   -599145.86725  25687633.216
  -6454295.343 5  -4392672.88725  26434582.682
  -7065488.423 6  -5509307.00925  25456536.506
 -16243433.900 8 -13628302.06927  23364962.164
   5007835.050 6   4255953.55025  26033336.327
 -13195809.463 8 -10296240.14128  23132086.379
   1151214.455 6   -356943.63525  25908203.686
 92  9  4  2 17  0.0070000  0  7G28G25G15G11G23G21G12
   -645343.093 6   -511193.35025  25709111.950
  -6546463.815 5  -4464492.37125  26417046.481
  -7153527.425 6  -5577908.76925  25439782.329
 -16211829.280 8 -13603675.12027  23370976.340
   5099385.753 6   4327291.72925  26050758.583
 -13141120.601 8 -10253625.45228  23142493.437
   1183224.817 6   -332000.43525  25914294.293
 92  9  4  2 17 30.0070000  0  7G28G25G15G11G23G21G12
   -532339.260 6   -423138.53025  25730617.131
  -6638615.993 5  -4536299.15025  26399510.495
  -7241412.596 6  -5646390.71725  25423057.564
 -16179555.793 8 -13578526.96627  23377118.227
   5190995.555 6   4398676.04525  26068190.148
 -13086183.322 8 -10210817.17228  23152947.387
   1215868.971 6   -306563.39425  25920507.229
 92  9  4  2 18  0.0070000  0  7G28G25G15G11G23G21G12
   -419210.731 5   -334986.52025  25752143.777
  -6730752.511 6  -4608093.70125  26381977.792
  -7329144.676 6  -5714753.31925  25406361.772
 -16146617.302 8 -13552860.63227  23383386.288
   5282660.808 6   4470103.52325  26085632.886
 -13031001.202 8 -10167818.11428  23163447.768
   1249142.940 6   -280635.58925  25926839.922
 92  9  4  2 18 30.0070000  0  7G28G25G15G11G23G21G12
   -305967.142 6   -246744.81025  25773693.134
  -6822876.912 6  -4679878.83525  26364449.024
  -7416727.430 6  -5782999.59625  25389696.057
 -16113020.997 8 -13526681.70427  23389780.301
   5374374.850 6   4541568.94425  26103089.244
 -12975581.101 8 -10124633.60728  23173994.488
   1283039.800 6   -254222.46625  25933291.321
 92  9  4  2 19  0.0070000  0  7G28G25G15G11G23G21G12
   -192608.978 5   -158413.92025  25795264.392
  -6914983.077 6  -4751649.77825  26346922.433
  -7504155.657 6  -5851125.45125  25373058.399
 -16078764.313 8 -13499988.20127  23396299.060
   5466140.505 6   4613074.63425  26120552.138
 -12919920.187 8 -10081261.47128  23184586.303
   1317562.039 6   -227321.92625  25939861.135
 92  9  4  2 19 30.0070000  0  7G28G25G15G11G23G21G12
    -79137.852 6    -69994.89625  25816858.110
  -7007066.878 6  -4823403.29525  26329397.294
  -7591425.349 6  -5919127.78225  25356451.853
 -16043846.772 8 -13472779.75827  23402943.161
   5557958.834 5   4684621.40225  26138022.267
 -12864017.555 8 -10037700.97328  23195224.941
   1352710.360 6   -199933.63825  25946548.524
 92  9  4  2 20  0.0070000  0  7G28G25G15G11G23G21G12
     34443.741 5     18510.10425  25838475.358
  -7099124.616 6  -4895136.51025  26311879.258
  -7678533.323 6  -5987004.06025  25339876.109
 -16008268.362 8 -13445056.32127  23409713.460
   5649830.242 6   4756209.54325  26155506.256
 -12807872.715 8  -9993951.74528  23205908.054
   1388484.850 6   -172057.41925  25953353.549
 92  9  4  2 20 30.0070000  0  7G28G25G15G11G23G21G12
    148126.998 5    107094.32125  25860105.616
  -7191158.988 6  -4966851.53125  26294365.157
  -7765482.480 6  -6054756.65125  25323329.887
 -15972035.375 8 -13416822.83527  23416608.786
   5741748.965 5   4827834.51325  26172996.840
 -12751491.519 8  -9950018.34528  23216636.796
   1424879.512 6   -143697.93925  25960280.387
 92  9  4  2 21  0.0070000  0  7G28G25G15G11G23G21G12
    261910.054 6    195756.35625  25881757.116
  -7283165.595 6  -5038544.87625  26276856.569
  -7852269.042 6  -6122382.51025  25306813.288
 -15935147.433 7 -13388079.01827  23423628.220
   5833716.073 5   4899497.17125  26190497.523
 -12694872.848 8  -9905899.91528  23227411.656
   1461894.753 6   -114854.85125  25967323.276
 92  9  4  2 21 30.0070000  0  7G28G25G15G11G23G21G12
    375791.204 6    284494.80525  25903429.776
  -7375140.106 6  -5110213.24325  26259354.507
  -7938888.677 6  -6189878.28625  25290330.189
 -15897603.769 7 -13358824.22627  23430772.754
   5925732.856 6   4971198.53225  26208008.672
 -12638015.670 8  -9861595.61128  23238231.527
   1499531.413 6    -85527.59125  25974485.682
 92  9  4  2 22  0.0070000  0  7G28G25G15G11G23G21G12
    489763.907 6    373304.64425  25925116.770
  -7467082.573 6  -5181856.66125  26241857.837
  -8025341.957 6  -6257244.44725  25273878.579
 -15859408.380 8 -13329061.60227  23438041.023
   6017796.207 5   5042936.23325  26225526.626
 -12580922.907 8  -9817107.73028  23249095.685
   1537785.850 6    -55718.96925  25981765.491
 92  9  4  2 22 30.0070000  0  7G28G25G15G11G23G21G12
    603822.108 5    462181.03725  25946818.752
  -7558993.054 6  -5253475.11925  26224367.394
  -8111629.485 7  -6324481.47225  25257459.183
 -15820565.077 8 -13298794.09527  23445432.757
   6109902.814 6   5114707.62625  26243054.159
 -12523598.272 8  -9772439.17928  23260004.535
   1576654.238 6    -25431.94925  25989163.374
 92  9  4  2 23  0.0070000  0  7G28G25G15G11G23G21G12
    717962.165 6    551121.24525  25968542.105
  -7650868.911 6  -5325066.62525  26206883.722
  -8197748.957 6  -6391587.52725  25241071.500
 -15781075.192 8 -13268022.77727  23452947.271
   6202051.854 5   5186512.03025  26260588.593
 -12466042.095 8  -9727590.21828  23270956.631
   1616135.065 6      5331.88725  25996676.011
 92  9  4  2 23 30.0070000  0  7G28G25G15G11G23G21G12
    832184.821 6    640125.82625  25990277.781
  -7742703.757 6  -5396626.14625  26189409.082
  -8283693.962 6  -6458557.62525  25224717.042
 -15740936.102 8 -13236745.56727  23460585.315
   6294247.044 5   5258352.45625  26278132.061
 -12408251.132 8  -9682558.28628  23281953.700
   1656231.526 6     36576.00725  26004306.231
 92  9  4  2 24  0.0070000  0  7G28G25G15G11G23G21G12
    946492.784 6    729196.82825  26012029.586
  -7834488.522 6  -5468146.66725  26171944.566
  -8369456.534 6  -6525385.58025  25208396.239
 -15700142.932 7 -13204958.68627  23468347.881
   6386493.630 5   5330232.92925  26295685.074
 -12350219.855 8  -9637339.10127  23292996.772
   1696948.598 6     68303.58425  26012054.590
 92  9  4  2 24 30.0070000  0  7G28G25G15G11G23G21G12
   1060877.223 5    818327.49025  26033797.098
  -7926225.582 6  -5539630.04225  26154486.710
  -8455039.011 6  -6592073.17425  25192110.359
 -15658702.056 8 -13172667.13627  23476233.820
   6478786.399 5   5402149.39125  26313249.422
 -12291953.404 8  -9591936.66027  23304084.533
   1738279.916 6    100509.84525  26019919.193
 92  9  4  2 25  0.0070000  0  7G28G25G15G11G23G21G12
   1175338.991 5    907518.34025  26055578.111
  -8017908.463 6  -5611071.15125  26137039.015
  -8540435.027 6  -6658615.49625  25175859.302
 -15616610.784 8 -13139868.75127  23484243.156
   6571128.658 5   5474104.41825  26330820.733
 -12233448.842 8  -9546348.68627  23315217.668
   1780228.425 6    133197.02225  26027901.532
 92  9  4  2 25 30.0070000  0  7G28G25G15G11G23G21G12
   1289870.425 6    996763.51325  26077372.390
  -8109538.224 6  -5682470.87225  26119602.394
  -8625646.286 6  -6725013.83825  25159644.797
 -15573874.611 7 -13106567.85927  23492376.116
   6663516.078 5   5546094.59025  26348402.557
 -12174710.508 8  -9500578.55727  23326395.252
   1822788.800 6    166360.96225  26035999.201
 92  9  4  2 26  0.0070000  0  7G28G25G15G11G23G21G12
   1404470.383 5   1086062.15025  26099178.908
  -8201109.852 6  -5753825.31125  26102176.397
  -8710668.200 6  -6791264.63025  25143466.773
 -15530492.477 7 -13072763.62127  23500631.383
   6755950.558 5   5618121.42225  26365992.498
 -12115736.463 8  -9454624.75027  23337617.665
   1865962.102 6    200002.56425  26044215.130
 92  9  4  2 26 30.0070000  0  7G28G25G15G11G23G21G12
   1519134.209 5   1175410.41425  26120998.819
  -8292621.986 6  -5825133.40725  26084761.576
  -8795499.545 6  -6857366.94525  25127322.719
 -15486467.043 7 -13038458.13627  23509009.177
   6848430.036 5   5690183.38525  26383588.916
 -12056528.393 8  -9408488.59127  23348884.660
   1909746.060 6    234119.97025  26052546.783
 92  9  4  2 27  0.0070000  0  7G28G25G15G11G23G21G12
   1633856.796 5   1264804.54925  26142830.586
  -8384073.736 6  -5896394.41125  26067358.525
  -8880139.994 6  -6923320.50426  25111216.517
 -15441801.787 8 -13003654.03527  23517508.709
   6940952.238 5   5762278.66425  26401194.374
 -11997088.922 8  -9362172.13727  23360195.005
   1954137.417 6    268710.60225  26060995.082
 92  9  4  2 27 30.0070000  0  7G28G25G15G11G23G21G12
   1748641.055 5   1354246.67425  26164674.676
  -8475456.065 6  -5967601.32925  26049968.781
  -8964580.650 6  -6989118.37026  25095148.129
 -15396491.724 8 -12968347.51527  23526131.398
   7033523.136 5   5834411.78025  26418813.227
 -11937412.627 8  -9315671.11427  23371551.075
   1999141.023 6    303778.35625  26069560.059
 92  9  4  2 28  0.0070000  0  7G28G25G15G11G23G21G12
   1863478.023 5   1443729.97225  26186526.298
  -8566771.422 6  -6038756.06125  26032592.594
  -9048824.394 7  -7054762.79226  25079116.987
 -15350543.626 8 -12932543.84227  23534874.875
   7126136.964 5   5906578.35624  26436437.523
 -11877504.625 8  -9268989.56127  23382951.049
   2044750.452 6    339318.19925  26078237.981
 92  9  4  2 28 30.0070000  0  7G28G25G15G11G23G21G12
   1978366.880 5   1533253.68425  26208386.144
  -8658015.012 6  -6109854.88825  26015229.467
  -9132866.804 6  -7120250.31526  25063124.443
 -15303956.974 8 -12896242.57127  23543740.089
   7218795.304 5   5978779.65724  26454067.866
 -11817363.217 8  -9222126.12527  23394395.695
   2090966.457 6    375330.72125  26087030.471
 92  9  4  2 29  0.0070000  0  7G28G25G15G11G23G21G12
   2093302.954 5   1622814.08725  26230258.925
  -8749184.939 6  -6180896.32125  25997880.828
  -9216705.946 6  -7185579.48526  25047169.540
 -15256734.189 8 -12859445.60927  23552726.246
   7311497.149 5   6051014.93025  26471708.236
 -11756990.032 8  -9175082.07827  23405884.603
   2137786.644 5    411813.98025  26095940.572
 92  9  4  2 29 30.0070000  0  7G28G25G15G11G23G21G12
   2208283.296 5   1712409.13625  26252141.532
  -8840278.291 6  -6251878.03725  25980547.508
  -9300339.242 7  -7250748.23226  25031254.584
 -15208876.807 7 -12822154.18027  23561833.023
   7404242.102 6   6123283.67125  26489358.202
 -11696385.428 8  -9127857.73027  23417417.678
   2185209.706 6    448767.01125  26104965.594
